[[{"header":{"parameterUnit":"m.s-1","parameterCategory":1,"la1":30.6,"la2":29.2853,"lo1":-89.7004,"lo2":-87.6739,"dy":0.0162,"dx":0.0183,"nx":112,"ny":82,"refTime":"2024-06-18T12:00:00:Z","depth":0,"parameterNumber":2,"parameterNumberName":"U-component_of_WINDS"},"data":[0.0,0.0,0.0,0.0,0.0,0.0,0.0,0.0,0.0,0.0,0.0,0.0,0.0,0.0,0.0,0.0,0.0,0.0,0.0,0.0,0.0,0.0,0.0,0.0,0.0,0.0,0.0,0.0,0.0,0.0,0.0,0.0,0.0,0.0,0.0,0.0,0.0,0.0,0.0,0.0,0.0,0.0,0.0,0.0,0.0,0.0,0.0,0.0,0.0,0.0,0.0,0.0,0.0,0.0,0.0,0.0,0.0,0.0,0.0,0.0,0.0,0.0,0.0,0.0,0.0,0.0,0.0,0.0,0.0,0.0,0.0,0.0,0.0,0.0,0.0,0.0,0.0,0.0,0.0,0.0,0.0,0.0,0.0,0.0,0.0,0.0,0.0,0.0,0.0,0.0,0.0,0.0,0.0,0.0,0.0,0.0,0.0,0.0,0.0,0.0,0.0,0.0,0.0,0.0,0.0,0.0,0.0,0.0,0.0,0.0,0.0,0.0,0.0,0.0,0.0,0.0,0.0,0.0,0.0,0.0,0.0,0.0,0.0,0.0,0.0,0.0,0.0,0.0,0.0,0.0,0.0,0.0,0.0,0.0,0.0,0.0,0.0,0.0,0.0,0.0,0.0,0.0,0.0,0.0,0.0,0.0,0.0,0.0,0.0,0.0,0.0,0.0,0.0,0.0,0.0,0.0,0.0,0.0,0.0,0.0,0.0,0.0,0.0,0.0,0.0,0.0,0.0,0.0,0.0,0.0,0.0,0.0,0.0,0.0,0.0,0.0,0.0,0.0,0.0,0.0,0.0,0.0,0.0,0.0,0.0,0.0,0.0,0.0,0.0,0.0,0.0,0.0,0.0,0.0,0.0,0.0,0.0,0.0,0.0,0.0,0.0,0.0,0.0,0.0,0.0,0.0,0.0,0.0,0.0,0.0,0.0,0.0,0.0,0.0,0.0,0.0,0.0,0.0,0.0,0.0,0.0,0.0,0.0,0.0,0.0,0.0,0.0,0.0,0.0,0.0,0.0,0.0,0.0,0.0,0.0,0.0,0.0,0.0,0.0,0.0,0.0,0.0,0.0,0.0,0.0,0.0,0.0,0.0,0.0,0.0,0.0,0.0,0.0,0.0,0.0,0.0,0.0,0.0,0.0,0.0,0.0,0.0,0.0,0.0,0.0,0.0,0.0,0.0,0.0,0.0,0.0,0.0,0.0,0.0,0.0,0.0,0.0,0.0,0.0,0.0,0.0,0.0,0.0,0.0,0.0,0.0,0.0,0.0,0.0,0.0,0.0,0.0,0.0,0.0,0.0,0.0,0.0,0.0,0.0,0.0,0.0,0.0,0.0,0.0,0.0,0.0,0.0,0.0,0.0,0.0,0.0,0.0,0.0,-0.0411,0.0,0.0,0.0,0.0,0.0,0.0,0.0,0.0,0.0,0.0,0.0,0.0,0.0,0.0,0.0,0.0,0.0,0.0,0.0,0.0,0.0,0.0,0.0,0.0,0.0,0.0,0.0,0.0,0.0,0.0,0.0,0.0,0.0,0.0,0.0,0.0,0.0,0.0,0.0,0.0,0.0,0.0,0.0,0.0,0.0,0.0,0.0,0.0,0.0,0.0,0.0,0.0,0.0,0.0,0.0,0.0,0.0,0.0,0.0,0.0,0.0,0.0,0.0,0.0,0.0,0.0,0.0,0.0,0.0,0.0,0.0,0.0,0.0,0.0,0.0,0.0,0.0,0.0,0.0,0.0,0.0,0.0,0.0,0.0,0.0,0.0,0.0,0.0,0.0,0.0,0.0,0.0,0.0,0.0,0.0,0.0,0.0,0.0,0.0,0.0,0.0,0.0,0.0,0.0,0.0,0.0,0.0,0.0,0.0,0.0,0.0,-0.1496,-0.0942,-0.0931,-0.0932,-0.0932,-0.0932,-0.0653,-0.0593,-0.0883,-0.0571,0.0,0.0,0.0,0.0,0.0,0.0,0.0,0.0,0.0,0.0,0.0,0.0,0.0,0.0,0.0,0.0,0.0,0.0,0.0,0.0,0.0,0.0,0.0,0.0,0.0,0.0,0.0,0.0,0.0,0.0,0.0,0.0,0.0,0.0,0.0,0.0,0.0,0.0,0.0,0.0,0.0,0.0,0.0,0.0,0.0,0.0,0.0,0.0,0.0,0.0,0.0,0.0,0.0,0.0,0.0,0.0,0.0,0.0,0.0,0.0,0.0,0.0,0.0,0.0,0.0,0.0,0.0,0.0,0.0,0.0,0.0,0.0,0.0,0.0,0.0,0.0,0.0,0.0,0.0,0.0,0.0,0.0,0.0,0.0,0.0,0.0,0.0,0.0,0.0,0.0,0.0,0.0,0.0,0.0,0.0,0.0,0.0,0.0,0.0,0.0,0.0,0.0,-0.3705,-0.371,-0.3714,-0.3717,-0.3717,-0.3717,-0.2573,-0.2331,-0.3471,-0.2247,0.0,0.0,0.0,0.0,0.0,0.0,0.0,0.0,0.0,0.0,0.0,0.0,0.0,0.0,0.0,0.0,0.0,0.0,0.0,0.0,0.0,0.0,0.0,0.0,0.0,0.0,0.0,0.0,0.0,0.0,0.0,0.0,0.0,0.0,0.0,0.0,0.0,0.0,0.0,0.0,0.0,0.0,0.0,0.0,0.0,0.0,0.0,0.0,0.0,0.0,0.0,0.0,0.0,0.0,0.0,0.0,0.0,0.0,0.0,0.0,0.0,0.0,0.0,0.0,0.0,0.0,0.0,0.0,0.0,0.0,0.0,0.0,0.0,0.0,0.0,0.0,0.0,0.0,0.0,0.0,0.0,0.0,0.0,0.0,0.0,0.0,0.0,0.0,0.0,0.0,0.0,0.0,0.0,0.0,0.0,0.0,0.0,0.0,0.0,0.0,0.0,0.0,-0.4393,-0.3991,-0.4011,-0.3989,-0.3989,-0.3989,-0.3457,-0.3321,-0.3779,0.0,0.0,0.0,0.0,0.0,0.0,0.0,0.0,0.0,0.0,0.0,0.0,0.0,0.0,0.0,0.0,0.0,0.0,0.0,0.0,0.0,0.0,0.0,0.0,0.0,0.0,0.0,0.0,0.0,0.0,0.0,0.0,0.0,0.0,0.0,0.0,0.0,0.0,0.0,0.0,0.0,0.0,0.0,0.0,0.0,0.0,0.0,0.0,0.0,0.0,0.0,0.0,0.0,0.0,0.0,0.0,0.0,0.0,0.0,0.0,0.0,0.0,0.0,0.0,0.0,0.0,0.0,0.0,0.0,0.0,0.0,0.0,0.0,0.0,0.0,0.0,0.0,0.0,0.0,0.0,0.0,0.0,0.0,0.0,0.0,0.0,0.0,0.0,0.0,0.0,0.0,0.0,0.0,0.0,0.0,0.0,0.0,0.0,0.0,0.0,0.0,0.0,-0.6226,-0.5678,-0.5261,-0.5219,-0.5198,-0.5185,-0.5154,-0.463,-0.4466,-0.4819,0.0,0.0,0.0,0.0,0.0,0.0,0.0,0.0,0.0,0.0,0.0,0.0,0.0,0.0,0.0,0.0,0.0,0.0,0.0,0.0,0.0,0.0,0.0,0.0,0.0,0.0,0.0,0.0,0.0,0.0,0.0,0.0,0.0,0.0,0.0,0.0,0.0,0.0,0.0,0.0,0.0,0.0,0.0,0.0,0.0,0.0,0.0,0.0,0.0,0.0,0.0,0.0,0.0,0.0,0.0,0.0,0.0,0.0,0.0,0.0,0.0,0.0,0.0,0.0,0.0,0.0,0.0,0.0,0.0,0.0,0.0,0.0,0.0,0.0,0.0,0.0,0.0,0.0,0.0,0.0,0.0,0.0,0.0,0.0,0.0,0.0,0.0,0.0,0.0,0.0,0.0,0.0,0.0,0.0,0.0,0.0,0.0,0.0,0.0,0.0,0.0,0.0,-0.7597,-0.7831,-0.7952,-0.7804,-0.7807,-0.7753,-0.7611,-0.627,-0.5897,0.0,0.0,0.0,0.0,0.0,0.0,0.0,0.0,0.0,0.0,0.0,0.0,0.0,0.0,0.0,0.0,0.0,0.0,0.0,0.0,0.0,0.0,0.0,0.0,0.0,0.0,0.0,0.0,0.0,0.0,0.0,0.0,0.0,0.0,0.0,0.0,0.0,0.0,0.0,0.0,0.0,0.0,0.0,0.0,0.0,0.0,0.0,0.0,0.0,0.0,0.0,0.0,0.0,0.0,0.0,0.0,0.0,0.0,0.0,0.0,0.0,0.0,0.0,0.0,0.0,0.0,0.0,0.0,0.0,0.0,0.0,0.0,0.0,0.0,0.0,0.0,0.0,0.0,0.0,0.0,0.0,0.0,0.0,0.0,0.0,0.0,0.0,0.0,0.0,0.0,0.0,0.0,0.0,0.0,0.0,0.0,0.0,0.0,0.0,0.0,0.0,0.0,0.0,-0.7464,-0.7611,-0.7712,-0.7665,-0.7658,-0.7645,-0.7604,-0.7116,-0.696,-0.7283,0.0,0.0,0.0,0.0,0.0,0.0,0.0,0.0,0.0,0.0,0.0,0.0,0.0,0.0,0.0,0.0,0.0,0.0,0.0,0.0,0.0,0.0,0.0,0.0,0.0,0.0,0.0,0.0,0.0,0.0,0.0,0.0,0.0,0.0,0.0,0.0,0.0,0.0,0.0,0.0,0.0,0.0,0.0,0.0,0.0,0.0,0.0,0.0,0.0,0.0,0.0,0.0,0.0,0.0,0.0,0.0,0.0,0.0,0.0,0.0,0.0,0.0,0.0,0.0,0.0,0.0,0.0,0.0,0.0,0.0,0.0,0.0,0.0,0.0,0.0,0.0,0.0,0.0,0.0,0.0,0.0,0.0,0.0,0.0,0.0,0.0,0.0,0.0,0.0,0.0,0.0,0.0,0.0,0.0,0.0,0.0,0.0,0.0,0.0,0.0,0.0,0.0,-0.7396,-0.7525,-0.7577,-0.7516,-0.7532,-0.7482,-0.7398,-0.7278,-0.717,-0.7131,0.0,0.0,0.0,0.0,0.0,0.0,0.0,0.0,0.0,0.0,0.0,0.0,0.0,0.0,0.0,0.0,0.0,0.0,0.0,0.0,0.0,0.0,0.0,0.0,0.0,0.0,0.0,0.0,0.0,0.0,0.0,0.0,0.0,0.0,0.0,0.0,0.0,0.0,0.0,0.0,0.0,0.0,0.0,0.0,0.0,0.0,0.0,0.0,0.0,0.0,0.0,0.0,0.0,0.0,0.0,0.0,0.0,0.0,0.0,0.0,0.0,0.0,0.0,0.0,0.0,0.0,0.0,0.0,0.0,0.0,0.0,0.0,0.0,0.0,0.0,0.0,0.0,0.0,0.0,0.0,0.0,0.0,0.0,0.0,0.0,0.0,0.0,0.0,0.0,0.0,0.0,0.0,0.0,0.0,0.0,0.0,0.0,0.0,0.0,0.0,0.0,0.0,-0.7396,-0.7482,-0.7502,-0.7389,-0.7376,-0.7292,-0.7105,-0.6977,-0.687,-0.6749,0.0,0.0,0.0,0.0,0.0,0.0,0.0,0.0,0.0,0.0,0.0,0.0,0.0,0.0,0.0,0.0,0.0,0.0,0.0,0.0,0.0,0.0,0.0,0.0,0.0,0.0,0.0,0.0,0.0,0.0,0.0,0.0,0.0,0.0,0.0,0.0,0.0,0.0,0.0,0.0,0.0,0.0,0.0,0.0,0.0,0.0,0.0,0.0,0.0,0.0,0.0,0.0,0.0,0.0,0.0,0.0,0.0,0.0,0.0,0.0,-0.8182,-0.8162,0.0,0.0,0.0,0.0,0.0,0.0,0.0,0.0,0.0,0.0,0.0,0.0,0.0,0.0,0.0,0.0,0.0,0.0,0.0,0.0,0.0,0.0,0.0,0.0,0.0,0.0,0.0,0.0,0.0,0.0,0.0,0.0,0.0,0.0,0.0,0.0,0.0,0.0,0.0,0.0,-0.7396,-0.7292,-0.7202,-0.7168,-0.7168,-0.7154,-0.7098,-0.7065,-0.7038,-0.7026,-0.6918,0.0,0.0,0.0,0.0,0.0,0.0,0.0,0.0,0.0,0.0,0.0,0.0,0.0,0.0,0.0,0.0,0.0,0.0,0.0,0.0,0.0,0.0,0.0,0.0,0.0,0.0,0.0,0.0,0.0,0.0,0.0,0.0,0.0,0.0,0.0,0.0,0.0,0.0,0.0,0.0,0.0,0.0,0.0,0.0,0.0,0.0,0.0,0.0,0.0,0.0,0.0,0.0,0.0,0.0,0.0,0.0,0.0,0.0,0.0,-0.8479,-0.8425,0.0,0.0,0.0,0.0,0.0,0.0,0.0,0.0,0.0,0.0,0.0,0.0,0.0,0.0,0.0,0.0,0.0,0.0,0.0,0.0,0.0,0.0,0.0,0.0,0.0,0.0,0.0,0.0,0.0,0.0,0.0,0.0,0.0,0.0,0.0,0.0,0.0,0.0,0.0,0.0,-0.7396,-0.7215,-0.7098,-0.7098,-0.7098,-0.7098,-0.7098,-0.7098,-0.7065,-0.6997,-0.6945,0.0,0.0,0.0,0.0,0.0,0.0,0.0,0.0,0.0,0.0,0.0,0.0,0.0,0.0,0.0,0.0,0.0,0.0,0.0,0.0,0.0,0.0,0.0,0.0,0.0,0.0,0.0,0.0,0.0,0.0,0.0,0.0,0.0,0.0,0.0,0.0,0.0,0.0,0.0,0.0,0.0,0.0,0.0,0.0,0.0,0.0,0.0,0.0,0.0,0.0,0.0,0.0,0.0,-0.9349,-0.941,-0.9403,-0.9281,-0.9288,-0.9383,-0.8879,-0.8784,-0.896,-0.8655,0.0,0.0,0.0,0.0,0.0,0.0,0.0,0.0,0.0,0.0,0.0,0.0,0.0,0.0,0.0,0.0,0.0,0.0,0.0,0.0,0.0,0.0,-0.7963,-0.8267,-0.8208,-0.7986,-0.7634,0.0,0.0,0.0,0.0,0.0,0.0,0.0,0.0,0.0,0.0,0.0,-0.7403,-0.7258,-0.7148,-0.7098,-0.7098,-0.7098,-0.7098,-0.7098,-0.7045,-0.6951,-0.6924,-0.6864,0.0,0.0,0.0,0.0,0.0,0.0,0.0,0.0,0.0,0.0,0.0,0.0,0.0,0.0,0.0,0.0,0.0,0.0,0.0,0.0,0.0,0.0,0.0,0.0,0.0,0.0,0.0,0.0,0.0,0.0,0.0,0.0,-0.8906,-0.9077,0.0,0.0,0.0,0.0,0.0,0.0,0.0,0.0,0.0,0.0,0.0,0.0,0.0,-0.939,-0.932,-0.939,-0.9396,-0.9383,-0.9403,-0.941,-0.941,-0.939,-0.939,-0.9403,-0.9328,0.0,-0.9286,-0.8859,0.0,0.0,0.0,0.0,0.0,0.0,0.0,0.0,0.0,0.0,0.0,0.0,0.0,0.0,0.0,0.0,0.0,0.0,0.0,0.0,0.0,0.0,-0.8274,-0.8444,-0.8464,-0.8403,-0.8219,-0.8192,-0.8124,-0.7807,-0.7672,-0.7597,0.0,0.0,0.0,0.0,0.0,0.0,-0.743,-0.7376,-0.7292,-0.7112,-0.7098,-0.7098,-0.7098,-0.7098,-0.7085,-0.7071,-0.6957,-0.6951,-0.7038,-0.6816,0.0,0.0,0.0,0.0,0.0,0.0,0.0,0.0,0.0,0.0,0.0,0.0,0.0,0.0,0.0,0.0,0.0,0.0,0.0,0.0,0.0,0.0,0.0,0.0,0.0,0.0,0.0,0.0,0.0,-0.9007,-0.9306,-0.9315,-0.9383,-0.9403,0.0,0.0,0.0,0.0,0.0,0.0,0.0,0.0,0.0,-0.941,-0.9462,-0.951,-0.951,-0.9591,-0.9632,-0.9632,-0.9632,-0.9632,-0.9632,-0.9632,-0.9632,-0.9632,-0.9632,-0.9632,-0.9598,-0.9239,-0.9178,-0.9264,0.0,0.0,0.0,0.0,-0.9015,-0.8907,-0.9035,-0.9042,-0.8988,-0.8791,0.0,0.0,0.0,0.0,0.0,0.0,0.0,-0.8513,-0.8512,-0.8464,-0.8451,-0.8574,-0.8608,-0.8594,-0.8533,-0.852,-0.8431,-0.8126,-0.8085,-0.8072,-0.8015,-0.7902,0.0,0.0,0.0,-0.7767,-0.7638,-0.755,-0.7475,-0.7384,-0.7319,-0.7272,-0.7272,-0.7168,-0.7098,-0.7098,-0.7038,-0.7031,-0.7092,-0.6992,-0.6985,0.0,0.0,0.0,0.0,0.0,0.0,0.0,0.0,0.0,0.0,0.0,0.0,0.0,0.0,0.0,0.0,0.0,0.0,0.0,0.0,0.0,0.0,0.0,0.0,0.0,0.0,0.0,0.0,-0.9393,-0.9598,-0.9557,-0.9618,-0.9605,0.0,0.0,0.0,0.0,0.0,0.0,-0.9551,-0.958,-0.9601,-0.9641,-0.972,-0.9781,-0.9781,-0.9812,-0.9846,-0.9846,-0.9812,-0.9792,-0.9792,-0.9792,-0.9792,-0.9792,-0.9792,-0.9792,-0.9771,-0.9544,-0.9503,-0.9591,-0.9442,-0.9315,-0.9234,-0.9396,-0.9369,-0.926,-0.9417,-0.9415,-0.9376,-0.9095,-0.8973,-0.8872,-0.8669,0.0,0.0,0.0,0.0,-0.8696,-0.8621,-0.8567,-0.8581,-0.8703,-0.8743,-0.8743,-0.8743,-0.8798,-0.8723,-0.8417,-0.8403,-0.843,-0.8362,-0.8201,0.0,-0.8074,-0.8031,-0.7943,-0.7828,-0.7753,-0.7685,-0.7611,-0.7519,-0.745,-0.745,-0.7326,-0.7215,-0.7181,-0.7175,-0.7161,-0.7098,-0.7098,-0.7098,-0.7098,0.0,0.0,0.0,0.0,0.0,0.0,0.0,0.0,0.0,0.0,0.0,0.0,0.0,0.0,0.0,0.0,0.0,0.0,0.0,0.0,0.0,0.0,0.0,0.0,0.0,0.0,0.0,0.0,0.0,-0.9954,-0.9866,0.0,0.0,0.0,0.0,-0.9605,-0.972,-0.9832,-0.9974,-1.0019,-1.0118,-1.0261,-1.0274,-1.0249,-1.0249,-1.0076,-0.9977,-0.997,-0.9859,-0.9792,-0.9792,-0.9792,-0.9792,-0.9792,-0.9792,-0.9792,-0.9778,-0.9659,-0.9605,-0.9591,-0.9442,-0.9315,-0.922,-0.949,-0.9503,-0.9424,-0.9544,-0.9503,-0.941,-0.939,-0.9171,-0.8906,-0.8892,-0.8791,0.0,0.0,-0.871,-0.8716,-0.8852,-0.8784,-0.8737,-0.8865,-0.8899,-0.8899,-0.8899,-0.9035,-0.9029,-0.8587,-0.8396,-0.8349,-0.8478,0.0,-0.8281,-0.8281,-0.8396,-0.8296,-0.7868,-0.7905,-0.7885,-0.7631,-0.759,-0.759,-0.759,-0.7584,-0.7516,-0.7389,-0.7382,-0.7292,-0.7098,-0.7098,-0.7098,-0.7098,-0.7092,0.0,0.0,0.0,0.0,0.0,0.0,0.0,0.0,0.0,0.0,0.0,0.0,0.0,0.0,0.0,0.0,0.0,0.0,0.0,0.0,0.0,0.0,0.0,0.0,0.0,0.0,0.0,0.0,-1.0175,-1.0028,0.0,-1.0039,-1.0086,-1.0093,-1.0046,-1.0086,-1.0141,-1.0195,-1.0233,-1.0254,-1.0308,-1.0315,-1.0315,-1.0315,-1.0222,-1.0202,-1.0195,-1.0141,-1.0114,-1.0114,-0.9981,-0.994,-0.9934,-0.9832,-0.9792,-0.9785,-0.9737,-0.9717,-0.971,-0.9686,-0.9578,-0.9469,-0.9673,-0.9652,-0.9551,-0.9693,-0.9707,-0.9646,-0.9557,-0.9388,-0.9239,-0.9311,-0.9305,-0.9286,-0.9286,-0.9218,-0.913,-0.9117,-0.8967,-0.8845,-0.8899,-0.8912,-0.8912,-0.8912,-0.8953,-0.8967,-0.8777,-0.871,-0.8682,-0.8635,-0.8532,-0.843,-0.843,-0.8478,-0.8451,-0.8262,-0.8289,-0.8282,-0.818,-0.7997,-0.7858,-0.7858,-0.7706,-0.7536,-0.7403,-0.7396,-0.7299,-0.7105,-0.7098,-0.7098,-0.7098,-0.7004,-0.7053,0.0,0.0,0.0,0.0,0.0,0.0,0.0,0.0,0.0,0.0,0.0,0.0,0.0,0.0,0.0,0.0,0.0,0.0,0.0,0.0,0.0,0.0,0.0,0.0,0.0,-0.9954,-1.0076,-1.0295,-1.0229,-1.0191,-1.0276,-1.0324,-1.0383,-1.0383,-1.0399,-1.0453,-1.0507,-1.0587,-1.0614,-1.0614,-1.0527,-1.0507,-1.0507,-1.0405,-1.0383,-1.0383,-1.0335,-1.0315,-1.0308,-1.0175,-1.0096,-1.0089,-1.0019,-0.9913,-0.9866,-0.9866,-0.9839,-0.9792,-0.9792,-0.9731,-0.9693,-0.9758,-0.9731,-0.9693,-0.9758,-0.9792,-0.9771,-0.9683,-0.9578,-0.9476,-0.9578,-0.9571,-0.953,-0.953,-0.9462,-0.939,-0.9288,-0.9157,-0.9061,-0.9061,-0.9061,-0.9061,-0.9061,-0.9061,-0.9061,-0.9061,-0.898,-0.8879,-0.8777,-0.8703,-0.8655,-0.873,-0.8669,-0.8635,-0.8635,-0.8587,-0.854,-0.8512,-0.8309,-0.8162,-0.8162,-0.8011,-0.7814,-0.7611,-0.7597,-0.7509,-0.7283,-0.7276,-0.7276,-0.7276,-0.7181,-0.7276,-0.7597,0.0,0.0,0.0,0.0,0.0,0.0,0.0,0.0,0.0,0.0,0.0,0.0,0.0,0.0,0.0,0.0,0.0,0.0,0.0,0.0,0.0,0.0,0.0,-1.0028,-0.9997,-1.0089,-1.0276,-1.0419,-1.0446,-1.0349,-1.0432,-1.0514,-1.0514,-1.0649,-1.0765,-1.0914,-1.109,-1.12,-1.12,-1.1029,-1.0921,-1.0921,-1.0663,-1.0514,-1.0514,-1.0403,-1.0304,-1.0335,-1.0297,-1.0322,-1.0322,-1.0315,-1.0195,-1.0028,-0.999,-0.9934,-0.9798,-0.9792,-0.9792,-0.9792,-0.9792,-0.9792,-0.9792,-0.9792,-0.9792,-0.9792,-0.9792,-0.9697,-0.9618,-0.9618,-0.951,-0.9424,-0.9424,-0.9424,-0.9417,-0.9417,-0.9417,-0.941,-0.941,-0.941,-0.941,-0.941,-0.941,-0.941,-0.941,-0.915,-0.8926,-0.8926,-0.8926,-0.8973,-0.9165,-0.9042,0.0,-0.8919,-0.8791,-0.8669,-0.8546,-0.8526,-0.8526,-0.8526,-0.8519,-0.8357,-0.8008,-0.7988,-0.7885,-0.7617,-0.7604,-0.7604,-0.7604,-0.7617,-0.776,-0.7988,0.0,0.0,0.0,0.0,0.0,0.0,0.0,0.0,0.0,0.0,0.0,0.0,0.0,0.0,0.0,0.0,0.0,0.0,0.0,0.0,0.0,-1.0035,-1.0055,-1.0202,-1.0304,-1.0426,-1.0582,-1.0636,-1.0683,-1.0725,-1.0894,-1.1016,-1.1016,-1.105,-1.1091,-1.1138,-1.1172,-1.12,-1.12,-1.1159,-1.1104,-1.1104,-1.1057,-1.1016,-1.1009,-1.0975,-1.0867,-1.0725,-1.0617,-1.0541,-1.0426,-1.0324,-1.0256,-1.0209,-1.0062,-0.9994,-0.9947,-0.9832,-0.9792,-0.9792,-0.9792,-0.9792,-0.9792,-0.9792,-0.9792,-0.9792,-0.9792,-0.9765,-0.9731,-0.9731,-0.9734,-0.97,-0.97,-0.9625,-0.9544,-0.9544,-0.9462,-0.941,-0.941,-0.941,-0.941,-0.941,-0.941,-0.941,-0.941,-0.9313,-0.9259,-0.9259,-0.9259,-0.9273,-0.9342,-0.9286,-0.9218,-0.9138,-0.9083,-0.9043,-0.9002,-0.8872,-0.8784,-0.8784,-0.871,-0.8446,-0.8015,-0.7988,-0.7925,-0.776,-0.7753,-0.7753,-0.7753,-0.797,-0.8072,0.0,0.0,0.0,0.0,0.0,0.0,0.0,0.0,0.0,0.0,0.0,0.0,0.0,0.0,0.0,0.0,0.0,0.0,0.0,0.0,0.0,0.0,-1.0256,-1.0258,-1.0439,-1.0534,-1.0622,-1.0677,-1.0833,-1.0941,-1.1029,-1.1118,-1.1247,-1.1341,-1.1355,-1.1444,-1.1567,-1.1574,-1.1547,-1.1443,-1.1382,-1.1321,-1.1295,-1.1227,-1.12,-1.12,-1.12,-1.1152,-1.1036,-1.0948,-1.086,-1.0765,-1.0622,-1.0521,-1.0453,-1.0265,-1.017,-1.0096,0.0,0.0,0.0,0.0,-0.7734,-0.7734,-0.7734,-0.7734,-0.7734,-0.7734,-0.7734,-0.7734,-0.7734,-0.8252,-0.8806,-0.8806,-0.9211,-0.97,-0.97,-0.9632,-0.9564,-0.9564,-0.9564,-0.9564,-0.9564,-0.9564,-0.9564,-0.9564,-0.9564,0.0,-0.9564,-0.9462,-0.943,-0.9469,-0.9422,-0.9403,-0.9376,-0.9315,-0.9274,-0.9274,-0.9178,-0.9095,-0.9095,-0.8981,0.0,0.0,0.0,-0.8223,-0.8099,-0.8092,0.0,0.0,0.0,0.0,0.0,0.0,0.0,0.0,-0.816,-0.8764,0.0,0.0,0.0,0.0,0.0,0.0,0.0,0.0,0.0,0.0,0.0,0.0,0.0,0.0,0.0,0.0,-1.0298,-1.0261,-1.0412,-1.0245,-1.0278,-1.0705,-1.1016,-1.1234,-1.1247,-1.1261,-1.139,-1.1647,-1.1667,-1.1782,-1.2084,-1.2098,0.0,0.0,0.0,-1.1606,-1.147,-1.137,-1.1288,-1.1274,-1.1288,-1.1274,-1.1227,-1.124,-1.1234,-1.1193,-1.0771,-1.053,-1.0399,-1.0032,-0.9819,-0.9672,-0.9588,-0.8543,-0.6935,-0.5437,-0.4885,-0.4885,-0.4885,0.0,0.0,-0.4885,-0.4885,-0.4885,-0.4885,-0.5927,-0.7113,-0.7113,-0.816,-0.9238,-0.9238,-0.9238,-0.9238,-0.9238,-0.9238,-0.9238,-0.9238,-0.9238,-0.9238,-0.9238,-0.9238,-0.9238,-0.9238,-0.9361,-0.9476,-0.9612,-0.9517,-0.9476,-0.9591,-0.949,-0.9437,-0.9437,-0.9437,0.0,-0.9437,-0.9315,-0.9165,-0.8946,-0.8654,-0.8347,-0.8031,-0.8038,-0.8101,-0.8183,-0.8221,-0.7627,-0.6414,-0.6426,-0.579,-0.4557,-0.7066,-0.8304,0.0,0.0,0.0,0.0,0.0,0.0,0.0,0.0,0.0,0.0,0.0,0.0,0.0,0.0,0.0,-1.0738,-0.9478,-0.8551,-0.8742,-0.7513,-0.7706,-1.0741,-1.1274,-1.1396,-1.1518,-1.1633,-1.1775,-1.2002,-1.2016,-1.2036,-1.2098,-1.2098,-1.2084,-1.2057,-1.203,-1.2002,-1.1968,-1.1941,-1.1823,-1.1701,-1.1866,0.0,-1.1348,-1.1477,-1.1396,-1.1117,-0.949,-0.877,-0.8631,-0.6856,-0.6081,-0.6085,-0.7489,-0.695,-0.5345,-0.5008,-0.4885,-0.4885,-0.4885,-0.4885,-0.4885,-0.4885,-0.4885,-0.4885,-0.4885,-0.5131,0.0,-0.5376,-0.5621,-0.5835,-0.5835,-0.5835,-0.5835,-0.5835,-0.5835,-0.5835,-0.5835,-0.5835,-0.5835,-0.5835,-0.5835,-0.5835,-0.5835,-0.8,-0.9747,-0.9744,-0.9754,-0.9707,-0.9618,-0.9585,-0.9564,-0.9564,-0.9564,-0.9564,-0.9564,-0.9537,-0.9401,-0.9158,-0.785,-0.6461,-0.5088,-0.5178,-0.5218,-0.5083,-0.5216,-0.5119,-0.4672,-0.4832,-0.478,-0.4519,-0.507,-0.5326,0.0,0.0,0.0,0.0,0.0,0.0,0.0,0.0,0.0,0.0,0.0,-0.7609,-0.7806,0.0,-0.7984,-0.8128,-0.7325,-0.6764,-0.6925,-0.6155,-0.6681,-0.9618,-1.0078,-1.0613,-1.175,-1.1904,-1.204,-1.2264,-1.2284,-1.2318,-1.2393,-1.2393,-1.2332,-1.2182,-1.1183,-1.1108,-1.2098,-1.0018,-0.9425,-1.0341,-0.9388,-0.8837,-0.8603,-0.8681,-0.862,-0.8433,-0.7388,-0.6949,-0.6859,-0.5733,-0.4669,-0.3894,-0.4798,-0.4563,-0.3608,-0.2771,-0.2448,-0.2462,-0.2462,-0.2462,-0.2462,-0.2462,-0.2462,-0.2462,-0.2462,-0.3046,-0.3689,-0.3689,-0.4272,-0.4885,-0.4885,-0.4885,-0.4885,-0.4885,-0.4885,-0.4885,-0.4885,-0.4885,-0.4885,-0.4885,-0.4885,-0.4885,-0.4885,-0.6263,-0.7642,-0.8465,-0.7886,-0.7621,-0.8413,-0.7769,-0.7256,-0.7256,-0.7256,-0.7256,-0.7256,-0.7175,-0.7069,-0.6868,-0.606,-0.5235,-0.4379,-0.4441,-0.4441,-0.4351,-0.4448,-0.4059,-0.319,-0.3298,-0.2968,-0.2258,-0.2248,-0.3082,0.0,0.0,0.0,0.0,0.0,0.0,0.0,-0.6945,-0.6564,-0.5338,-0.5093,-0.5135,-0.5317,-0.5407,-0.5437,-0.5437,-0.514,-0.4952,-0.5077,-0.4762,-0.5299,-0.7366,-0.8026,-0.8985,-1.0727,-1.0914,-1.103,-1.1268,-1.1311,-1.1333,-1.1442,-1.1449,-1.1351,-1.1138,-0.9515,-0.9381,-1.0969,-0.7595,-0.671,-0.8318,-0.6672,-0.5868,-0.5801,-0.5819,-0.5823,-0.5766,-0.5293,-0.4876,-0.4495,-0.4388,-0.3479,-0.2187,-0.218,-0.2113,-0.1842,-0.0508,0.0,0.0,0.0,0.0,0.0,0.0,0.0,0.0,0.0,-0.0956,-0.2002,-0.2002,-0.2954,-0.3935,-0.3935,-0.3935,-0.3935,-0.3935,-0.3935,-0.3935,-0.3935,-0.3935,-0.3935,-0.3935,-0.3935,-0.3935,-0.3935,-0.3935,-0.461,-0.6625,-0.5774,-0.5376,-0.6747,-0.5743,-0.4885,-0.4885,-0.4885,-0.4885,-0.4885,-0.4801,-0.4558,-0.4145,-0.4101,-0.3977,-0.3654,-0.3624,-0.3624,-0.3624,-0.3635,-0.3021,-0.1779,-0.1772,-0.115,0.0,0.0,-0.1347,-0.94,-0.8766,-0.7178,-0.5696,-0.5255,-0.5266,0.0,-0.5402,-0.5168,-0.5122,-0.5103,-0.5115,-0.5131,-0.5392,-0.559,-0.559,-0.4238,-0.3192,-0.3195,-0.1734,-0.1406,-0.3485,-0.5141,-0.6273,-0.6655,-0.6691,-0.6772,-0.6982,-0.7014,-0.7014,-0.7026,-0.7026,-0.7014,-0.696,-0.6734,-0.6734,-0.6964,-0.6499,-0.6273,-0.6319,-0.6273,-0.6082,-0.5801,-0.5907,-0.5907,-0.5692,-0.3963,-0.223,-0.063,-0.062,-0.0479,-0.0307,-0.0304,-0.0299,-0.0262,-0.0065,0.0,0.0,0.0,0.0,0.0,0.0,0.0,0.0,0.0,-0.0123,-0.0278,-0.0278,-0.0401,-0.0555,-0.0555,-0.0555,-0.0555,-0.0555,-0.0555,-0.0555,-0.0555,-0.0555,-0.0555,-0.0555,-0.0555,-0.0555,-0.0555,-0.0555,-0.1602,-0.4702,-0.5008,-0.4977,-0.5161,-0.5008,-0.4885,-0.4885,-0.4885,-0.4885,-0.4885,-0.4879,-0.4257,-0.2817,-0.272,-0.2071,-0.0571,-0.0511,-0.0511,-0.0511,-0.0518,-0.043,-0.0246,-0.0246,-0.0154,0.0,0.0,-0.0185,-0.5426,-0.515,-0.4461,-0.3751,-0.3539,-0.3539,-0.3668,-0.3595,-0.3257,-0.2339,-0.2129,-0.2118,-0.2134,-0.2229,-0.2349,-0.2349,-0.1696,-0.1211,-0.1211,-0.0511,-0.0317,-0.12,-0.1983,-0.3392,-0.5938,-0.6165,-0.6254,-0.6408,-0.6401,-0.6418,-0.6418,-0.6418,-0.6398,-0.6314,-0.508,-0.5051,-0.629,-0.3846,-0.3185,-0.4309,-0.3164,-0.2571,-0.243,-0.2489,-0.2493,-0.2371,-0.1553,-0.0748,0.0,0.0,0.0,0.0,0.0,0.0,0.0,0.0,0.0,0.0,0.0,0.0,0.0,0.0,0.0,0.0,0.0,0.0,0.0,0.0,0.0,0.0,0.0,0.0,0.0,0.0,0.0,0.0,0.0,0.0,0.0,0.0,0.0,0.0,0.0,0.0,-0.0463,-0.1848,-0.2064,-0.2401,-0.3384,-0.2647,-0.2064,-0.2064,-0.2064,-0.2064,-0.2064,-0.2064,-0.1756,-0.1079,-0.1042,-0.0733,-0.0031,0.0,0.0,0.0,0.0,0.0,0.0,0.0,0.0,0.0,0.0,0.0,-0.2701,-0.2547,-0.2443,-0.193,-0.1822,-0.1817,-0.1816,-0.181,-0.146,-0.025,0.0,0.0,0.0,0.0,0.0,0.0,0.0,0.0,0.0,0.0,0.0,0.0,0.0,-0.1186,-0.4252,-0.4567,-0.4615,-0.4694,-0.4711,-0.4721,-0.4721,-0.4721,-0.466,-0.4581,-0.3061,-0.3004,-0.4545,-0.1527,-0.0758,-0.2244,-0.071,0.0,0.0,0.0,0.0,0.0,0.0,0.0,0.0,0.0,0.0,0.0,0.0,0.0,0.0,0.0,0.0,0.0,0.0,0.0,0.0,0.0,0.0,0.0,0.0,0.0,0.0,0.0,0.0,0.0,0.0,0.0,0.0,0.0,0.0,0.0,0.0,0.0,0.0,0.0,0.0,0.0,0.0,0.0,0.0,0.0,0.0,-0.0434,-0.1665,-0.074,0.0,0.0,0.0,0.0,0.0,0.0,0.0,0.0,0.0,0.0,0.0,0.0,0.0,0.0,0.0,0.0,0.0,0.0,0.0,0.0,0.0,0.0,-0.3183,-0.2698,-0.2284,-0.0516,-0.0065,-0.0066,-0.0068,-0.0069,-0.0071,0.0,0.0,0.0,0.0,0.0,0.0,0.0,0.0,0.0,0.0,0.0,0.0,0.0,0.0,-0.0042,-0.0168,-0.0208,-0.0207,-0.0207,-0.0209,-0.021,-0.021,-0.021,-0.021,-0.021,-0.0125,-0.0124,-0.0207,-0.0082,-0.004,-0.008,-0.004,0.0,0.0,0.0,0.0,0.0,0.0,0.0,0.0,0.0,0.0,0.0,0.0,0.0,0.0,0.0,0.0,0.0,0.0,0.0,0.0,0.0,0.0,0.0,0.0,0.0,0.0,0.0,0.0,0.0,0.0,0.0,0.0,0.0,0.0,0.0,0.0,0.0,0.0,0.0,0.0,0.0,0.0,0.0,0.0,0.0,0.0,-0.0031,-0.0062,-0.0031,0.0,0.0,0.0,0.0,0.0,0.0,0.0,0.0,0.0,0.0,0.0,0.0,0.0,0.0,0.0,0.0,0.0,0.0,0.0,0.0,0.0,0.0,-0.1074,-0.0906,-0.0776,-0.0163,0.0,0.0,0.0,0.0,0.0,0.0,0.0,0.0,0.0,0.0,0.0,0.0,0.0,0.0,0.0,0.0,0.0,0.0,0.0,0.0,0.0,0.0,0.0,0.0,0.0,0.0,0.0,0.0,0.0,0.0,0.0,0.0,0.0,0.0,0.0,0.0,0.0,0.0,0.0,0.0,0.0,0.0,0.0,0.0,0.0,0.0,0.0,0.0,0.0,0.0,0.0,0.0,0.0,0.0,0.0,0.0,0.0,0.0,0.0,0.0,0.0,0.0,0.0,0.0,0.0,0.0,0.0,0.0,0.0,0.0,0.0,0.0,0.0,0.0,0.0,0.0,0.0,0.0,0.0,0.0,0.0,0.0,0.0,0.0,0.0,0.0,0.0,0.0,0.0,0.0,0.0,0.0,0.0,0.0,0.0,0.0,0.0,0.0,0.0,0.0,0.0,0.0,0.0,0.0,0.0,0.0,0.0,0.0,0.0,0.0,0.0,0.0,0.0,0.0,0.0,0.0,0.0,0.0,0.0,0.0,0.0,0.0,0.0,0.0,0.0,0.0,0.0,0.0,0.0,0.0,0.0,0.0,0.0,0.0,0.0,0.0,0.0,0.0,0.0,0.0,0.0,0.0,0.0,0.0,0.0,0.0,0.0,0.0,0.0,0.0,0.0,0.0,0.0,0.0,0.0,0.0,0.0,0.0,0.0,0.0,0.0,0.0,0.0,0.0,0.0,0.0,0.0,0.0,0.0,0.0,0.0,0.0,0.0,0.0,0.0,0.0,0.0,0.0,0.0,0.0,0.0,0.0,0.0,0.0,0.0,0.0,0.0,0.0,0.0,0.0,0.0,0.0,0.0,0.0,0.0,0.0,0.0,0.0,0.0,0.0,0.0,0.0,0.0,0.0,0.0,0.0,0.0,0.0,0.0,0.0,0.0,0.0,0.0,0.0,0.0,0.0,0.0,0.0,0.0,0.0,0.0,0.0,0.0,0.0,0.0,0.0,0.0,0.0,0.0,0.0,0.0,0.0,0.0,0.0,0.0,0.0,0.0,0.0,0.0,0.0,0.0,0.0,0.0,0.0,0.0,0.0,0.0,0.0,0.0,0.0,0.0,0.0,0.0,0.0,0.0,0.0,0.0,0.0,0.0,0.0,0.0,0.0,0.0,0.0,0.0,0.0,0.0,0.0,0.0,0.0,0.0,0.0,0.0,0.0,0.0,0.0,0.0,0.0,0.0,0.0,0.0,0.0,0.0,0.0,0.0,0.0,0.0,0.0,0.0,0.0,0.0,0.0,0.0,0.0,0.0,0.0,0.0,0.0,0.0,0.0,0.0,0.0,0.0,0.0,0.0,0.0,0.0,0.0,0.0,0.0,0.0,0.0,0.0,0.0,0.0,0.0,0.0,0.0,0.0,0.0,0.0,0.0,0.0,0.0,0.0,0.0,0.0,0.0,0.0,0.0,0.0,0.0,0.0,0.0,0.0,0.0,0.0,0.0,0.0,0.0,0.0,0.0,0.0,0.0,0.0,0.0,0.0,0.0,0.0,0.0,0.0,0.0,0.0,0.0,0.0,0.0,0.0,0.0,0.0,0.0,0.0,0.0,0.0,0.0,0.0,0.0,0.0,0.0,0.0,0.0,0.0,0.0,0.0,0.0,0.0,0.0,0.0,0.0,0.0,0.0,0.0,0.0,0.0,0.0,0.0,0.0,0.0,0.0,0.0,0.0,0.0,0.0,0.0,0.0,0.0,0.0,0.0,0.0,0.0,0.0,0.0,0.0,0.0,0.0,0.0,0.0,0.0,0.0,0.0,0.0,0.0,0.0,0.0,0.0,0.0,0.0,0.0,0.0,0.0,0.0,0.0,0.0,0.0,0.0,0.0,0.0,0.0,0.0,0.0,0.0,0.0,0.0,0.0,0.0,0.0,0.0,0.0,0.0,0.0,0.0,0.0,0.0,0.0,0.0,0.0,0.0,0.0,0.0,0.0,0.0,0.0,0.0,0.0,0.0,0.0,0.0,0.0,0.0,0.0,0.0,0.0,0.0,0.0,0.0,0.0,0.0,0.0,0.0,0.0,0.0,0.0,0.0,0.0,0.0,0.0,0.0,0.0,0.0,0.0,0.0,0.0,0.0,0.0,0.0,0.0,0.0,0.0,0.0,0.0,0.0,0.0,0.0,0.0,0.0,0.0,0.0,0.0,0.0,0.0,0.0,0.0,0.0,0.0,0.0,0.0,0.0,0.0,0.0,0.0,0.0,0.0,0.0,0.0,0.0,0.0,0.0,0.0,0.0,0.0,0.0,0.0,0.0,0.0,0.0,0.0,0.0,0.0,0.0,0.0,0.0,0.0,0.0272,0.1097,0.0492,0.0,0.0,0.0,0.0,0.0,0.0,0.0,0.0,0.0,0.0355,0.116,0.1192,0.1546,0.2349,0.2382,0.2357,0.2373,0.2373,0.2381,0.2362,0.2362,0.2362,0.0,0.0,0.0,0.0,0.0,0.0,0.0,0.0,0.0,0.0,0.0,0.0,0.0,0.0,0.0,0.0,0.0,0.0,0.0,0.0,0.0,0.0,0.0,0.0,0.0,0.0,0.0,0.0,0.0,0.0,0.0,0.0,0.0,0.0,0.0,0.0,0.0,0.0,0.0,0.0,0.0,0.0,0.0,0.0,0.0,0.0,0.0,0.0,0.0,0.0,0.0,0.0,0.0,0.0,0.0,0.0,0.0,0.0,0.0,0.0181,0.0358,0.0071,0.0,0.0,0.0,0.0,0.0,0.0,0.0,0.0,0.0,0.0,0.0,0.0,0.0,0.0,0.0,0.0,0.007,0.0351,0.0386,0.0456,0.0736,0.0772,0.0772,0.0771,0.0771,0.1325,0.2925,0.1513,0.0463,0.0693,0.0719,0.0714,0.0714,0.0714,0.0714,0.0714,0.0714,0.1426,0.3006,0.3071,0.3814,0.5361,0.5394,0.5393,0.5398,0.5398,0.5396,0.5396,0.5396,0.5396,0.0,0.0,0.0,0.0,0.0,0.0,0.0,0.0,0.0,0.0,0.0,0.0,0.0,0.0,0.0,0.0,0.0,0.0,0.0,0.0,0.0,0.0,0.0,0.0,0.0,0.0,0.0,0.0,0.0,0.0,0.0,0.0,0.0,0.0,0.0,0.0,0.0,0.0,0.0,0.0,0.0,0.0,0.0,0.0,0.0,0.0,0.0,0.0,0.0,0.0,0.0,0.0,0.0,0.0,0.0,0.0,0.0,0.0,0.0,0.1065,0.2134,0.0537,0.0,0.0,0.0,0.0,0.0,0.0,0.0,0.0,0.0,0.0,0.0,0.0,0.0,0.0,0.0,0.0,0.0491,0.21,0.24,0.2903,0.4512,0.4791,0.4808,0.4791,0.4782,0.4919,0.5219,0.3503,0.2812,0.4314,0.4467,0.4461,0.4461,0.4461,0.4461,0.4461,0.4461,0.4594,0.4926,0.4926,0.5092,0.5391,0.5391,0.5398,0.5408,0.5408,0.5385,0.5396,0.5396,0.5396,0.0,0.0,0.0,0.0,0.0,0.0,0.0,0.0,0.0,0.0,0.0,0.0,0.0,0.0,0.0,0.0,0.0,0.0,0.0,0.0,0.0,0.0,0.0,0.0,0.0,0.0,0.0,0.0,0.0,0.0,0.0,0.0,0.0,0.0,0.0,0.0,0.0,0.0,0.0,0.0,0.0,0.0,0.0,0.0,0.0,0.0,0.0,0.0,0.0,0.0,0.0,0.0,0.0,0.0,0.0,0.0,0.0642,0.1522,0.1522,0.2794,0.4245,0.3321,0.3036,0.3003,0.3003,0.3022,0.3006,0.3006,0.3022,0.3003,0.3003,0.3018,0.3034,0.3034,0.3034,0.3034,0.3034,0.3034,0.3284,0.4244,0.4407,0.4704,0.5635,0.5801,0.5815,0.5813,0.5806,0.6146,0.7086,0.6341,0.5698,0.5621,0.5614,0.5614,0.5614,0.5614,0.5614,0.5614,0.5614,0.6005,0.6876,0.6905,0.7286,0.8141,0.8174,0.8174,0.8174,0.8174,0.8174,0.8174,0.8174,0.8174,0.0,0.0,0.0,0.0,0.0,0.0,0.0,0.0,0.0,0.0,0.0,0.0,0.0,0.0,0.0,0.0,0.0,0.0,0.0,0.0,0.0,0.0,0.0,0.0,0.0,0.0,0.0,0.0,0.0,0.0,0.0,0.0,0.0,0.0,0.0,0.0,0.0,0.0,0.0,0.0,0.0,0.0,0.0,0.0,0.0,0.0,0.0,0.0,0.0,0.0,0.0,0.0,0.0,0.0,0.0,0.0,0.1258,0.295,0.2906,0.4462,0.6446,0.6431,0.6127,0.5791,0.5791,0.5785,0.5807,0.5807,0.5817,0.5791,0.5791,0.58,0.5812,0.5829,0.5822,0.5815,0.5829,0.5818,0.5917,0.6351,0.6423,0.6568,0.697,0.7042,0.7042,0.7042,0.7042,0.7553,0.8972,0.9174,0.8606,0.7187,0.7,0.694,0.694,0.694,0.694,0.694,0.694,0.7532,0.8859,0.8922,0.9527,1.0786,1.0752,1.0752,1.0819,1.0752,1.0738,1.0738,1.0738,1.0718,0.0,0.0,0.0,0.0,0.0,0.0,0.0,0.0,0.0,0.0,0.0,0.0,0.0,0.0,0.0,0.0,0.0,0.0,0.0,0.0,0.0,0.0,0.0,0.0,0.0,0.0,0.0,0.0,0.0,0.0,0.0,0.0,0.0,0.0,0.0,0.0,0.0,0.0,0.0,0.0,0.0,0.0,0.0,0.0,0.0,0.0,0.0,0.0,0.0,0.0,0.0,0.0,0.0,0.0,0.0,0.0,0.132,0.3064,0.2952,0.5413,0.8585,0.8481,0.7251,0.5798,0.5798,0.5794,0.5788,0.5788,0.5794,0.5798,0.5798,0.5805,0.5825,0.5963,0.5892,0.5825,0.5963,0.5892,0.6315,0.8085,0.8451,0.8992,1.0743,1.1074,1.1074,1.1074,1.1074,1.1139,1.1305,1.1305,1.1263,1.1071,1.0866,1.0709,1.0709,1.0709,1.0709,1.0709,1.0709,1.0772,1.0931,1.0931,1.0993,1.1159,1.0961,1.0955,1.1159,1.0955,1.0894,1.0894,1.0894,1.0819,0.0,0.0,0.0,0.0,0.0,0.0,0.0,0.0,0.0,0.0,0.0,0.0,0.0,0.0,0.0,0.0,0.0,0.0,0.0,0.0,0.0,0.0,0.0,0.0,0.0,0.0,0.0,0.0,0.0,0.0,0.0,0.0,0.0,0.0,0.0,0.0,0.0,0.0,0.0,0.0,0.0,0.0,0.0,0.0,0.0,0.0,0.0,0.0,0.0,0.0,0.0746,0.188,0.188,0.2664,0.3797,0.3797,0.5045,0.6743,0.6585,0.8332,1.0627,1.0492,0.9903,0.9291,0.9291,0.9291,0.9291,0.9291,0.9291,0.9291,0.9291,0.9291,0.9318,0.9469,0.9458,0.9458,0.962,0.9647,0.9835,1.0614,1.0761,1.0963,1.1616,1.1712,1.1678,1.1597,1.1584,1.1584,1.1584,1.1584,1.1584,1.1584,1.1511,1.1436,1.1436,1.1436,1.1436,1.1436,1.1436,1.1396,1.1301,1.1336,1.1295,1.12,1.1104,1.1104,1.12,1.1104,1.1077,1.1077,1.1077,1.1043,0.0,0.0,0.0,0.0,0.0,0.0,0.0,0.0,0.0,0.0,0.0,0.0,0.0,0.0,0.0,0.0,0.0,0.0,0.0,0.0,0.0,0.0,0.0,0.0,0.0,0.0,0.0,0.0,0.0,0.0,0.0,0.0,0.0,0.0,0.0,0.0,0.0,0.0,0.0,0.0,0.0,0.0,0.0,0.0,0.0,0.0041,0.0646,0.0917,0.0985,0.161,0.2742,0.4029,0.4029,0.4967,0.6293,0.6293,0.7537,0.9239,0.9051,1.028,1.1945,1.1796,1.1748,1.1748,1.1748,1.1687,1.1584,1.1584,1.1584,1.159,1.1638,1.1644,1.1692,1.1881,1.1932,1.1938,1.2132,1.2132,1.2098,1.2098,1.2098,1.2064,1.1918,1.1898,1.1864,1.1762,1.1748,1.1748,1.1748,1.1748,1.1735,1.1687,1.1644,1.1631,1.1584,1.1584,1.1584,1.1584,1.1584,1.1572,1.1463,1.1457,1.1409,1.1336,1.1288,1.1288,1.1336,1.1288,1.1261,1.1261,1.1261,1.124,0.0,0.0,0.0,0.0,0.0,0.0,0.0,0.0,0.0,0.0,0.0,0.0,0.0,0.0,0.0,0.0,0.0,0.0,0.0,0.0,0.0,0.0,0.0,0.0,0.0,0.0,0.0,0.0,0.0,0.0,0.0,0.0,0.0,0.0,0.0,0.0,0.0,0.0,0.0,0.0,0.0,0.0,0.0,0.0,0.0,0.0124,0.2161,0.3061,0.3223,0.5344,0.6254,0.6254,0.6254,0.6293,0.6293,0.6293,0.7617,0.9395,0.9239,1.0547,1.2257,1.2145,1.2091,1.2091,1.2091,1.185,1.1584,1.1584,1.1584,1.1617,1.1753,1.1793,1.1868,1.221,1.2207,1.2139,1.2257,1.2207,1.2098,1.2098,1.2098,1.2098,1.2098,1.2098,1.2098,1.2098,1.2091,1.2091,1.2091,1.2091,1.2036,1.1807,1.1793,1.1739,1.1597,1.1584,1.1584,1.1584,1.1584,1.1584,1.1619,1.1619,1.1613,1.1613,1.1463,1.1463,1.1613,1.1463,1.1389,1.1389,1.1389,1.1342,0.0,0.0,0.0,0.0,0.0,0.0,0.0,0.0,0.0,0.0,0.0,0.0,0.0,0.0,0.0,0.0,0.0,0.0,0.0,0.0,0.0,0.0,0.0,0.0,0.0,0.0,0.0,0.0,0.0,0.0,0.0,0.0,0.0,0.0,0.0,0.0,0.0,0.0,0.0,0.0,0.0,0.0799,0.231,0.231,0.3129,0.4614,0.5169,0.5428,0.5484,0.605,0.715,0.8439,0.8439,0.9294,1.0546,1.0546,1.0934,1.1502,1.1371,1.1752,1.2264,1.2145,1.2098,1.2098,1.2098,1.1925,1.1726,1.1726,1.1843,1.1932,1.1979,1.2023,1.204,1.2244,1.225,1.2257,1.2406,1.2393,1.2366,1.2366,1.2366,1.2332,1.2237,1.2254,1.222,1.2118,1.2098,1.2098,1.2098,1.2098,1.2077,1.1993,1.1898,1.1739,1.1597,1.1584,1.1584,1.1584,1.1584,1.1584,1.1584,1.1584,1.1584,1.1584,1.1572,1.1572,1.1584,1.1572,1.1545,1.1545,1.1545,1.1518,0.0,0.0,0.0,0.0,0.0,0.0,0.0,0.0,0.0,0.0,0.0,0.0,0.0,0.0,0.0,0.0,0.0,0.0,0.0,0.0,0.0,0.0,0.0,0.0,0.0,0.0,0.0,0.0,0.0,0.0,0.0,0.0,0.0,0.0,0.0,0.0,0.0,0.0,0.0421,0.1262,0.1262,0.2478,0.4654,0.4654,0.5385,0.6753,0.7448,0.7746,0.0,0.8516,0.9557,1.066,1.066,1.1415,1.2501,1.2501,1.2501,1.2488,1.24,1.2372,1.2352,1.2295,1.2268,1.2254,1.22,1.204,1.1918,1.1918,1.1986,1.2111,1.2173,1.2186,1.222,1.2332,1.2372,1.2393,1.2481,1.2501,1.2501,1.2501,1.2501,1.2474,1.2386,1.2372,1.2338,1.2244,1.2268,1.2268,1.2268,1.2268,1.2247,1.2193,1.206,1.1945,1.1796,1.1735,1.1665,1.1665,1.1755,1.1789,1.1789,1.1728,1.1665,1.1665,1.1647,1.1584,1.1584,1.1584,1.1584,1.1584,1.1584,1.1584,0.0,0.0,0.0,0.0,0.0,0.0,0.0,0.0,0.0,0.0,0.0,0.0,0.0,0.0,0.0,0.0,0.0,0.0,0.0,0.0,0.0,0.0,0.0,0.0,0.0,0.0,0.0,0.0,0.0,0.0,0.0,0.0,0.0084,0.021,0.0253,0.0168,0.0,0.0168,0.1262,0.3315,0.3524,0.4779,0.6951,0.6951,0.7034,0.7281,0.9223,1.004,1.0193,1.2164,1.2874,1.2706,1.2706,1.2651,1.2515,1.2515,1.2508,1.2501,1.2501,1.2501,1.2501,1.2501,1.2501,1.2474,1.2345,1.2241,1.2132,1.2118,1.2125,1.2166,1.2271,1.2305,1.2338,1.2467,1.2501,1.2501,1.2501,1.2501,1.2501,1.2501,1.2501,1.2501,1.2501,1.2501,1.2501,1.2501,1.2501,1.2501,1.2501,1.2501,1.2447,1.2318,1.2298,1.223,1.2125,1.1938,1.1807,1.1807,1.1979,1.2098,1.2098,1.1911,1.1793,1.1793,1.1658,1.1584,1.1584,1.1584,1.1584,1.1584,1.1584,1.1584,0.0,0.0,0.0,0.0,0.0,0.0,0.0,0.0,0.0,0.0,0.0,0.0,0.0,0.0,0.0,0.0,0.0,0.0,0.0,0.0,0.0,0.0,0.0,0.0,0.0,0.0,0.0,0.0,0.0,0.0,0.0,0.0,0.0757,0.2478,0.2519,0.1723,0.0,0.1681,0.2771,0.3315,0.5072,0.708,0.9207,0.9207,1.0169,1.1837,1.2244,1.2385,1.242,1.2815,1.2982,1.2948,1.2948,1.2813,1.2638,1.2638,1.2603,1.2501,1.2501,1.2501,1.2501,1.2501,1.2501,1.2494,1.2461,1.2427,1.2372,1.2271,1.2318,1.2406,1.244,1.2454,1.2461,1.2494,1.2501,1.2501,1.2501,1.2501,1.2501,1.2501,1.2501,1.2501,1.2501,1.2501,1.2501,1.2501,1.2501,1.2501,1.2501,1.2501,1.2488,1.2454,1.2352,1.2277,1.2275,1.2132,1.2043,1.2043,1.2077,1.2098,1.2098,1.1911,1.1793,1.1793,1.1658,1.1584,1.1584,1.1584,1.1584,1.1584,1.1584,1.1584,0.0,0.0,0.0,0.0,0.0,0.0,0.0,0.0,0.0,0.0,0.0,0.0,0.0,0.0,0.0,0.0,0.0,0.0,0.0,0.0,0.0,0.0,0.0,0.0,0.0,0.0,0.0,0.0,0.0967,0.1555,0.1513,0.2519,0.3608,0.4821,0.4863,0.4277,0.3107,0.4279,0.5365,0.6408,0.7618,0.9378,1.1552,1.1552,1.2222,1.3397,1.3315,1.3275,1.3268,1.3193,1.3159,1.3098,1.3098,1.3009,1.2827,1.272,1.2638,1.2596,1.2528,1.2501,1.2501,1.2501,1.2501,1.2501,1.2501,1.2501,1.2488,1.2406,1.244,1.2501,1.2501,1.2501,1.2501,1.2501,1.2501,1.2501,1.2501,1.2501,1.2501,1.2501,1.2501,1.2501,1.2501,1.2501,1.2501,1.2501,1.2501,1.2501,1.2501,1.2501,1.2501,1.2501,1.2433,1.2386,1.2386,1.2311,1.2275,1.2207,1.2268,1.2264,1.2264,1.2121,1.1979,1.18,1.1658,1.1584,1.1584,1.1584,1.1617,1.1678,1.1678,1.1755,0.0,0.0,0.0,0.0,0.0,0.0,0.0,0.0,0.0,0.0,0.0,0.0,0.0,0.0,0.0,0.0,0.0,0.0,0.0,0.0,0.0,0.0,0.0,0.0128,0.0463,0.0505,0.0673,0.1009,0.2813,0.386,0.3818,0.5658,0.6871,0.7205,0.7201,0.7368,0.7706,0.7372,0.8165,1.0003,1.0336,1.1511,1.3403,1.3403,1.3403,1.3403,1.3403,1.3403,1.3403,1.3403,1.3322,1.3248,1.3248,1.3159,1.3016,1.282,1.2752,1.2672,1.2556,1.2501,1.2501,1.2501,1.2501,1.2501,1.2501,1.2501,1.2501,1.2501,1.2501,1.2501,1.2501,1.2501,1.2501,1.2501,1.2501,1.2501,1.2501,1.2501,1.2501,1.2501,1.2501,1.2501,1.2501,1.2501,1.2501,1.2501,1.2501,1.2501,1.2501,1.2501,1.2501,1.2501,1.2501,1.2501,1.2501,1.2501,1.2447,1.2332,1.2433,1.2488,1.2467,1.2352,1.2155,1.1834,1.1748,1.1687,1.1687,1.1687,1.1748,1.1864,1.1864,1.1938,0.0,0.0,0.0,0.0,0.0,0.0,0.0,0.0,0.0,0.0,0.0,0.0,0.0,0.0,0.0,0.0,0.0,0.0,0.0,0.0,0.0,0.0,0.0,0.0716,0.2604,0.2855,0.365,0.5533,0.599,0.6202,0.616,0.6495,0.7581,0.9503,0.9545,1.0419,1.2347,1.0466,0.967,1.0003,1.1973,1.3065,1.3403,1.3403,1.3403,1.3403,1.3403,1.3403,1.3403,1.3403,1.339,1.3363,1.3363,1.3275,1.3166,1.3016,1.284,1.2672,1.2556,1.2501,1.2501,1.2501,1.2501,1.2501,1.2501,1.2501,1.2501,1.2501,1.2501,1.2501,1.2501,1.2501,1.2501,1.2501,1.2501,1.2501,1.2501,1.2501,1.2501,1.2501,1.2501,1.2501,1.2501,1.2501,1.2501,1.2501,1.2501,1.2501,1.2501,1.2501,1.2501,1.2501,1.2501,1.2501,1.2501,1.2501,1.2494,1.2467,1.2488,1.2447,1.2325,1.2305,1.221,1.207,1.2043,1.203,1.203,1.203,1.2043,1.2064,1.2064,1.2077,0.0,0.0,0.0,0.0,0.0,0.0,0.0,0.0,0.0,0.0,0.0,0.0,0.0,0.0,0.0,0.0,0.0,0.0,0.0,0.0,0.0,0.0,0.1093,0.2226,0.3274,0.4444,0.5616,0.662,0.7789,0.8498,0.854,0.967,1.0798,1.1849,1.1849,1.2347,1.3403,1.2347,1.1849,1.1849,1.2893,1.3403,1.3403,1.3403,1.3403,1.3403,1.3403,1.3403,1.3403,1.3403,1.3403,1.3403,1.3403,1.3356,1.3268,1.3084,1.2861,1.2672,1.2556,1.2501,1.2501,1.2501,1.2501,1.2501,1.2501,1.2501,1.2501,1.2501,1.2501,1.2501,1.2501,1.2501,1.2501,1.2501,1.2501,1.2501,1.2501,1.2501,1.2501,1.2501,1.2501,1.2501,1.2501,1.2501,1.2501,1.2501,1.2501,1.2501,1.2501,1.2501,1.2501,1.2501,1.2501,1.2501,1.2501,1.2501,1.2501,1.2501,1.2501,1.2474,1.2406,1.2332,1.2257,1.2227,1.2139,1.2098,1.2098,1.2098,1.2139,1.222,1.222,1.2268,0.0,0.0,0.0,0.0,0.0,0.0,0.0,0.0,0.0,0.0,0.0,0.0,0.0,0.0,0.0,0.0,0.0,0.0206,0.0703,0.0792,0.1006,0.1513,0.3107,0.4363,0.4905,0.6491,0.7706,0.8248,0.9836,1.084,1.0882,1.2478,1.3403,1.3403,1.3403,1.3403,1.3403,1.3403,1.3403,1.3403,1.3403,1.3403,1.3403,1.3403,1.3403,1.3403,1.3403,1.3403,1.3403,1.3403,1.3403,1.3403,1.3403,1.3376,1.3322,1.3132,1.2895,1.2672,1.2596,1.2528,1.2501,1.2501,1.2501,1.2501,1.2501,1.2501,1.2501,1.2501,1.2501,1.2501,1.2501,1.2501,1.2501,1.2501,1.2528,1.2556,1.2556,1.2556,1.2556,1.2556,1.2528,1.2501,1.2501,1.2501,1.2501,1.2501,1.2501,1.2501,1.2501,1.2501,1.2501,1.2501,1.2501,1.2501,1.2501,1.2501,1.2501,1.2501,1.2501,1.2501,1.2501,1.24,1.2338,1.2338,1.2261,1.2207,1.2207,1.2207,1.2261,1.2338,1.2338,1.24,0.0,0.0,0.0,0.0,0.0,0.0,0.0,0.0,0.0,0.0,0.0,0.0,0.0,0.0,0.0,0.0,0.0,0.0726,0.2839,0.3139,0.3898,0.5984,0.6366,0.7285,0.9332,0.967,1.0632,1.2768,1.3065,1.3148,1.3148,1.3314,1.3403,1.3403,1.3403,1.3403,1.3403,1.3403,1.3403,1.3403,1.3403,1.3403,1.3403,1.3403,1.3403,1.3403,1.3403,1.3403,1.3403,1.3403,1.3403,1.3403,1.3403,1.3315,1.3227,1.3207,1.2976,1.2686,1.2679,1.2584,1.2501,1.2501,1.2501,1.2501,1.2501,1.2501,1.2501,1.2501,1.2501,1.2501,1.2501,1.2501,1.2501,1.2501,1.261,1.2672,1.2672,1.2672,1.2672,1.2672,1.2596,1.2501,1.2501,1.2501,1.2501,1.2501,1.2501,1.2501,1.2501,1.2501,1.2501,1.2501,1.2501,1.2501,1.2501,1.2501,1.2501,1.2501,1.2501,1.2501,1.2501,1.2488,1.2488,1.2488,1.2474,1.2467,1.2467,1.2467,1.2474,1.2488,1.2488,1.2488,0.0,0.0,0.0,0.0,0.0,0.0,0.0,0.0,0.0,0.0,0.0,0.0431,0.1779,0.0919,0.0483,0.1899,0.2099,0.2387,0.322,0.4541,0.5754,0.6613,0.7956,0.9124,0.992,1.1261,1.2478,1.3362,1.3403,1.3403,1.3403,1.3403,1.3403,1.3403,1.3403,1.3403,1.3403,1.3403,1.3403,1.3403,1.3403,1.3403,1.3403,1.3403,1.3403,1.3403,1.3403,1.3403,1.3403,1.3403,1.3403,1.3403,1.3403,1.3363,1.3302,1.3248,1.3084,1.2861,1.2726,1.2591,1.2501,1.2501,1.2501,1.2501,1.2501,1.2501,1.2501,1.2501,1.2501,1.2501,1.2501,1.2569,1.2617,1.2522,1.2691,1.282,1.263,1.2739,1.282,1.2623,1.2617,1.2617,1.2515,1.2501,1.2501,1.2501,1.2501,1.2501,1.2501,1.2501,1.2501,1.2501,1.2501,1.2501,1.2501,1.2501,1.2501,1.2501,1.2501,1.2501,1.2501,1.2501,1.2501,1.2501,1.2501,1.2501,1.2501,1.2501,1.2501,1.2501,1.2501,1.2501,0.0,0.0,0.0,0.0,0.0,0.0,0.0,0.0,0.0,0.0,0.0506,0.1176,0.2108,0.1512,0.1474,0.3138,0.3397,0.386,0.5234,0.6759,0.7998,0.8749,1.0169,1.1137,1.1089,1.2478,1.3403,1.3403,1.3403,1.3403,1.3403,1.3403,1.3403,1.3403,1.3403,1.3403,1.3403,1.3403,1.3403,1.3403,1.3403,1.3403,1.3403,1.3403,1.3403,1.3403,1.3403,1.3403,1.3403,1.3403,1.3403,1.3403,1.3403,1.3403,1.339,1.3281,1.3193,1.305,1.2908,1.2773,1.2644,1.2644,1.2644,1.2644,1.2644,1.2644,1.2644,1.2644,1.2644,1.2644,1.2644,1.2651,1.2657,1.2651,1.2773,1.2854,1.2739,1.2887,1.2941,1.2684,1.2691,1.2638,1.2528,1.2501,1.2501,1.2501,1.2501,1.2501,1.2501,1.2501,1.2501,1.2501,1.2501,1.2501,1.2501,1.2501,1.2501,1.2501,1.2501,1.2501,1.2501,1.2501,1.2501,1.2501,1.2501,1.2501,1.2501,1.2501,1.2501,1.2501,1.2501,1.2501,0.0,0.0,0.0,0.0,0.0,0.0,0.0,0.0,0.0,0.0,0.1529,0.2289,0.0398,0.1582,0.3012,0.3364,0.3431,0.4982,0.9386,1.0003,1.0882,1.3148,1.3403,1.3403,1.3403,1.3403,1.3403,1.3403,1.3403,1.3403,1.3403,1.3403,1.3403,1.3403,1.3403,1.3403,1.3403,1.3403,1.3403,1.3403,1.3403,1.3403,1.3403,1.3403,1.3403,1.3403,1.3403,1.3403,1.3403,1.3403,1.3403,1.3403,1.3403,1.3403,1.3403,1.3403,1.3302,1.3214,1.3214,1.3118,1.3003,1.3003,1.3003,1.3003,1.3003,1.3003,1.3003,1.3003,1.3003,1.3003,1.3003,1.2732,1.2583,1.2928,1.2847,1.2813,1.3146,1.3105,1.3003,1.3003,1.2834,1.2645,1.2528,1.2501,1.2501,1.2501,1.2501,1.2501,1.2501,1.2501,1.2501,1.2501,1.2501,1.2501,1.2501,1.2501,1.2501,1.2501,1.2501,1.2501,1.2501,1.2501,1.2501,1.2501,1.2501,1.2501,1.2501,1.2501,1.2501,1.2501,1.2501,1.2501,0.0,0.0,0.0,0.0,0.0,0.0,0.0,0.0,0.0,0.0,0.0467,0.1176,0.2187,0.1541,0.1894,0.5051,0.565,0.6695,0.947,1.1312,1.2644,1.3321,1.3403,1.3403,1.3403,1.3403,1.3403,1.3403,1.3403,1.3403,1.3403,1.3403,1.3403,1.3403,1.3403,1.3403,1.3403,1.3403,1.3403,1.3403,1.3403,1.3403,1.3403,1.3403,1.3403,1.3403,1.3403,1.3403,1.3403,1.3403,1.3403,1.3403,1.3403,1.3403,1.3403,1.3403,1.3302,1.3214,1.3214,1.3118,1.3003,1.3003,1.3003,1.3003,1.3003,1.3003,1.3003,1.3003,1.3003,1.3023,1.3125,1.3009,1.2887,1.2982,1.3085,1.3173,1.3091,1.3193,1.3248,1.3043,1.2962,1.284,1.2691,1.2576,1.2501,1.2501,1.2501,1.2542,1.2651,1.2625,1.2625,1.2625,1.2569,1.2501,1.2501,1.2501,1.2501,1.2501,1.2501,1.2501,1.2501,1.2603,1.261,1.2501,1.261,1.261,1.2501,1.2501,1.2556,1.2618,1.2556,1.2562,0.0,0.0,0.0212,0.1034,0.062,0.0,0.0,0.0,0.0,0.0,0.0626,0.1602,0.3001,0.2783,0.3556,0.7137,0.7829,0.867,1.0866,1.2455,1.3403,1.3403,1.3403,1.3403,1.3403,1.3403,1.3403,1.3403,1.3403,1.3403,1.3403,1.3403,1.3403,1.3403,1.3403,1.3403,1.3403,1.3403,1.3403,1.3403,1.3403,1.3403,1.3403,1.3403,1.3403,1.3403,1.3403,1.3403,1.3403,1.3403,1.3403,1.3403,1.3403,1.3403,1.3403,1.3403,1.3342,1.3261,1.3261,1.3248,1.3173,1.3173,1.3173,1.3173,1.3173,1.3173,1.3173,1.3173,1.3173,1.3193,1.3241,1.32,1.3173,1.3173,1.318,1.3248,1.3193,1.3227,1.3254,1.3118,1.3084,1.3037,1.2847,1.2745,1.2684,1.2684,1.2684,1.2718,1.2813,1.282,1.282,1.282,1.2739,1.2657,1.2596,1.2589,1.2569,1.2508,1.2556,1.2589,1.2589,1.2638,1.2718,1.2684,1.2773,1.2779,1.2684,1.2684,1.2732,1.282,1.2725,1.2732,0.0,0.0143,0.0683,0.2388,0.1387,0.0,0.0,0.0154,0.0271,0.0274,0.1555,0.2783,0.3281,0.4694,0.6593,0.9194,0.9721,1.0607,1.2868,1.3302,1.3403,1.3403,1.3403,1.3403,1.3403,1.3403,1.3403,1.3403,1.3403,1.3403,1.3403,1.3403,1.3403,1.3403,1.3403,1.3403,1.3403,1.3403,1.3403,1.3403,1.3403,1.3403,1.3403,1.3403,1.3403,1.3403,1.3403,1.3403,1.3403,1.3403,1.3403,1.3403,1.3403,1.3403,1.3403,1.3403,1.3403,1.3403,1.3403,1.3403,1.3403,1.3403,1.3403,1.3403,1.3403,1.3403,1.3403,1.3403,1.3403,1.3403,1.3403,1.3403,1.3403,1.3403,1.32,1.3118,1.3342,1.3295,1.3234,1.3234,1.322,1.3173,1.3043,1.3009,1.3003,1.3003,1.3009,1.3023,1.3023,1.3023,1.3023,1.3023,1.3009,1.2941,1.2726,1.2713,1.2691,1.2556,1.2671,1.272,1.2766,1.2733,1.2834,1.3003,1.3016,1.3016,1.3003,1.3003,1.3009,1.3023,1.3009,1.3009,0.0,0.1117,0.2026,0.0946,0.0338,0.0,0.0,0.125,0.2419,0.2426,0.1486,0.1642,0.5003,0.4719,0.5184,0.8981,0.9834,1.0794,1.2922,1.3302,1.3403,1.3403,1.3403,1.3403,1.3403,1.3403,1.3403,1.3403,1.3403,1.3403,1.3403,1.3403,1.3403,1.3403,1.3403,1.3403,1.3403,1.3403,1.3403,1.3403,1.3403,1.3403,1.3403,1.3403,1.3403,1.3403,1.3403,1.3403,1.3403,1.3403,1.3403,1.3403,1.3403,1.3403,1.3403,1.3403,1.3403,1.3403,1.3403,1.3403,1.3403,1.3403,1.3403,1.3403,1.3403,1.3403,1.3403,1.3403,1.3403,1.3403,1.3403,1.3403,1.3403,1.3403,1.3349,1.3322,1.339,1.3376,1.3349,1.3349,1.3254,1.3207,1.3173,1.3077,1.3003,1.3003,1.3098,1.3166,1.3166,1.3166,1.3166,1.3166,1.3071,1.2989,1.2955,1.2948,1.2935,1.2901,1.2935,1.2963,1.3071,1.3078,1.3037,1.3003,1.3111,1.3111,1.3003,1.3003,1.3057,1.3166,1.305,1.3064,0.1371,0.281,0.4052,0.3117,0.2957,0.303,0.3011,0.3836,0.4927,0.59,0.4459,0.3999,0.7283,0.705,0.7453,1.0702,1.1438,1.1977,1.3051,1.3302,1.3403,1.3403,1.3403,1.3403,1.3403,1.3403,1.3403,1.3403,1.3403,1.3403,1.3403,1.3403,1.3403,1.3403,1.3403,1.3403,1.3403,1.3403,1.3403,1.3403,1.3403,1.3403,1.3403,1.3403,1.3403,1.3403,1.3403,1.3403,1.3403,1.3403,1.3403,1.3403,1.3403,1.3403,1.3403,1.3403,1.3403,1.3403,1.3403,1.3403,1.3403,1.3403,1.3403,1.3403,1.3403,1.3403,1.3403,1.3403,1.3403,1.3403,1.3403,1.3403,1.3403,1.3403,1.3403,1.3403,1.3403,1.3403,1.3403,1.3403,1.3336,1.3281,1.3281,1.322,1.3173,1.3173,1.3234,1.3281,1.3281,1.3281,1.3281,1.3281,1.3214,1.3186,1.3111,1.3105,1.3071,1.3003,1.3064,1.3139,1.3207,1.3241,1.3247,1.3173,1.3247,1.3247,1.3173,1.3173,1.3248,1.3281,1.3207,1.3214,0.3305,0.448,0.5872,0.6385,0.641,0.6293,0.6293,0.6566,0.7306,0.9061,0.7738,0.7099,0.9643,0.9877,1.0372,1.2648,1.3159,1.3214,1.3214,1.3322,1.3403,1.3403,1.3403,1.3403,1.3403,1.3403,1.3403,1.3403,1.3403,1.3403,1.3403,1.3403,1.3403,1.3403,1.3403,1.3403,1.3403,1.3403,1.3403,1.3403,1.3403,1.3403,1.3403,1.3403,1.3403,1.3403,1.3403,1.3403,1.3403,1.3403,1.3403,1.3403,1.3403,1.3403,1.3403,1.3403,1.3403,1.3403,1.3403,1.3403,1.3403,1.3403,1.3403,1.3403,1.3403,1.3403,1.3403,1.3403,1.3403,1.3403,1.3403,1.3403,1.3403,1.3403,1.3403,1.3403,1.3403,1.3403,1.3403,1.3403,1.3403,1.3403,1.3403,1.3403,1.3403,1.3403,1.3403,1.3403,1.3403,1.3403,1.3403,1.3403,1.3403,1.3349,1.322,1.3214,1.32,1.3084,1.3186,1.3214,1.3214,1.3336,1.3403,1.3403,1.3403,1.3403,1.3403,1.3403,1.3403,1.3403,1.3403,1.3403,0.4866,0.5222,0.6086,0.8048,0.7408,0.6293,0.6293,0.7699,0.9061,0.9338,0.7738,0.7529,1.1551,1.0901,1.0528,1.2787,1.3268,1.337,1.337,1.339,1.3403,1.3403,1.3403,1.3403,1.3403,1.3403,1.3403,1.3403,1.3403,1.3403,1.3403,1.3403,1.3403,1.3403,1.3403,1.3403,1.3403,1.3403,1.3403,1.3403,1.3403,1.3403,1.3403,1.3403,1.3403,1.3403,1.3403,1.3403,1.3403,1.3403,1.3403,1.3403,1.3403,1.3403,1.3403,1.3403,1.3403,1.3403,1.3403,1.3403,1.3403,1.3403,1.3403,1.3403,1.3403,1.3403,1.3403,1.3403,1.3403,1.3403,1.3403,1.3403,1.3403,1.3403,1.3403,1.3403,1.3403,1.3403,1.3403,1.3403,1.3403,1.3403,1.3403,1.3403,1.3403,1.3403,1.3403,1.3403,1.3403,1.3403,1.3403,1.3403,1.3403,1.339,1.337,1.337,1.3363,1.3342,1.3363,1.337,1.337,1.339,1.3403,1.3403,1.3403,1.3403,1.3403,1.3403,1.3403,1.3403,1.3403,1.3403,0.8347,0.7901,0.7706,1.0093,0.9314,0.825,0.9477,1.0469,1.1134,1.1134,1.043,1.0409,1.2496,1.2183,1.1969,1.3138,1.3356,1.3403,1.3403,1.3403,1.3403,1.3403,1.3403,1.3403,1.3403,1.3403,1.3403,1.3403,1.3403,1.3403,1.3403,1.3403,1.3403,1.3403,1.3403,1.3403,1.3403,1.3403,1.3403,1.3403,1.3403,1.3403,1.3403,1.3403,1.3403,1.3403,1.3403,1.3403,1.3403,1.3403,1.3403,1.3403,1.3403,1.3403,1.3403,1.3403,1.3403,1.3403,1.3403,1.3403,1.3403,1.3403,1.3403,1.3403,1.3403,1.3403,1.3403,1.3403,1.3403,1.3403,1.3403,1.3403,1.3403,1.3403,1.3403,1.3403,1.3403,1.3403,1.3403,1.3403,1.3403,1.3403,1.3403,1.3403,1.3403,1.3403,1.3403,1.3403,1.3403,1.3403,1.3403,1.3403,1.3403,1.3403,1.3403,1.3403,1.3403,1.3403,1.3403,1.3403,1.3403,1.3403,1.3403,1.3403,1.3403,1.3403,1.3403,1.3403,1.3403,1.3403,1.3403,1.3403,1.0846,1.0174,0.951,1.1516,1.0977,1.0389,1.2107,1.2474,1.2461,1.2494,1.2501,1.2596,1.2941,1.3003,1.3098,1.3356,1.3403,1.3403,1.3403,1.3403,1.3403,1.3403,1.3403,1.3403,1.3403,1.3403,1.3403,1.3403,1.3403,1.3403,1.3403,1.3403,1.3403,1.3403,1.3403,1.3403,1.3403,1.3403,1.3403,1.3403,1.3403,1.3403,1.3403,1.3403,1.3403,1.3403,1.3403,1.3403,1.3403,1.3403,1.3403,1.3403,1.3403,1.3403,1.3403,1.3403,1.3403,1.3403,1.3403,1.3403,1.3403,1.3403,1.3403,1.3403,1.3403,1.3403,1.3403,1.3403,1.3403,1.3403,1.3403,1.3403,1.3403,1.3403,1.3403,1.3403,1.3403,1.3403,1.3403,1.3403,1.3403,1.3403,1.3403,1.3403,1.3403,1.3403,1.3403,1.3403,1.3403,1.3403,1.3403,1.3403,1.3403,1.3403,1.3403,1.3403,1.3403,1.3403,1.3403,1.3403,1.3403,1.3403,1.3403,1.3403,1.3403,1.3403,1.3403,1.3403,1.3403,1.3403,1.3403,1.3403,1.082,1.1002,1.1176,1.1692,1.1885,1.2036,1.2433,1.24,1.2338,1.2474,1.2501,1.2596,1.2941,1.3003,1.3098,1.3356,1.3403,1.3403,1.3403,1.3403,1.3403,1.3403,1.3403,1.3403,1.3403,1.3403,1.3403,1.3403,1.3403,1.3403,1.3403,1.3403,1.3403,1.3403,1.3403,1.3403,1.3403,1.3403,1.3403,1.3403,1.3403,1.3403,1.3403,1.3403,1.3403,1.3403,1.3403,1.3403,1.3403,1.3403,1.3403,1.3403,1.3403,1.3403,1.3403,1.3403,1.3403,1.3403,1.3403,1.3403,1.3403,1.3403,1.3403,1.3403,1.3403,1.3403,1.3403,1.3403,1.3403,1.3403,1.3403,1.3403,1.3403,1.3403,1.3403,1.3403,1.3403,1.3403,1.3403,1.3403,1.3403,1.3403,1.3403,1.3403,1.3403,1.3403,1.3403,1.3403,1.3403,1.3403,1.3403,1.3403,1.3403,1.3403,1.3403,1.3403,1.3403,1.3403,1.3403,1.3403,1.3403,1.3403,1.3403,1.3403,1.3403,1.3403,1.3403,1.3403,1.3403,1.3403,1.3403,1.3403,1.0833,1.088,1.1009,1.1558,1.1803,1.1965,1.2176,1.2257,1.2305,1.2352,1.2366,1.2461,1.2759,1.2895,1.3098,1.3356,1.3403,1.3403,1.3403,1.3403,1.3403,1.3403,1.3403,1.3403,1.3403,1.3403,1.3403,1.3403,1.3403,1.3403,1.3403,1.3403,1.3403,1.3403,1.3403,1.3403,1.3403,1.3403,1.3403,1.3403,1.3403,1.3403,1.3403,1.3403,1.3403,1.3403,1.3403,1.3403,1.3403,1.3403,1.3403,1.3403,1.3403,1.3403,1.3403,1.3403,1.3403,1.3403,1.3403,1.3403,1.3403,1.3403,1.3403,1.3403,1.3403,1.3403,1.3403,1.3403,1.3403,1.3403,1.3403,1.3403,1.3403,1.3403,1.3403,1.3403,1.3403,1.3403,1.3403,1.3403,1.3403,1.3403,1.3403,1.3403,1.3437,1.3532,1.3464,1.3437,1.3532,1.3464,1.3403,1.3403,1.3403,1.3403,1.3403,1.3403,1.3403,1.3403,1.3403,1.3403,1.3403,1.3403,1.3403,1.3403,1.3403,1.3403,1.3403,1.3403,1.3403,1.3403,1.3403,1.3403,1.0786,1.0799,1.0894,1.1448,1.1617,1.1762,1.2104,1.2135,1.2162,1.2271,1.2291,1.2379,1.2638,1.2854,1.3077,1.3288,1.337,1.3403,1.3403,1.3403,1.3403,1.3403,1.3403,1.3403,1.3403,1.3403,1.3403,1.3403,1.3403,1.3403,1.3403,1.3403,1.3403,1.3403,1.3403,1.3403,1.3403,1.3403,1.3403,1.3403,1.3403,1.3403,1.3403,1.3403,1.3403,1.3403,1.3403,1.3403,1.3403,1.3403,1.3403,1.3403,1.3403,1.3403,1.3403,1.3403,1.3403,1.3403,1.3403,1.3403,1.3403,1.3403,1.3403,1.3403,1.3403,1.3403,1.3403,1.3403,1.3403,1.3403,1.3403,1.3403,1.3403,1.3403,1.3403,1.3403,1.3403,1.3403,1.3403,1.3403,1.3403,1.3403,1.3403,1.3403,1.3437,1.3539,1.3464,1.3437,1.3539,1.3464,1.3403,1.3403,1.3403,1.3403,1.3403,1.3403,1.3403,1.3403,1.3403,1.3403,1.3403,1.3403,1.3403,1.3403,1.3403,1.3403,1.3403,1.3403,1.3403,1.3403,1.3403,1.3403,0.0,0.0,0.0,1.1455,1.1497,1.1545,1.2128,1.2033,1.1874,1.2216,1.2277,1.2366,1.2625,1.2854,1.305,1.3186,1.3302,1.3403,1.3403,1.3403,1.3403,1.3403,1.3403,1.3403,1.3403,1.3403,1.3403,1.3403,1.3403,1.3403,1.3403,1.3403,1.3403,1.3403,1.3403,1.3403,1.3403,1.3403,1.3403,1.3403,1.3403,1.3403,1.3403,1.3403,1.3403,1.3403,1.3403,1.3403,1.3403,1.3403,1.3403,1.3403,1.3403,1.3403,1.3403,1.3403,1.3403,1.3403,1.3403,1.3403,1.3403,1.3403,1.3403,1.3403,1.3403,1.3403,1.3403,1.3403,1.3403,1.3403,1.3403,1.3403,1.3403,1.3403,1.3403,1.3403,1.3403,1.3403,1.3403,1.3403,1.3403,1.3403,1.3403,1.3403,1.3403,1.3403,1.341,1.341,1.341,1.341,1.3403,1.3403,1.3403,1.3403,1.3403,1.3403,1.3403,1.3403,1.3403,1.3403,1.3403,1.3403,1.3403,1.3403,1.3403,1.3403,1.3403,1.3403,1.3403,1.3403,1.3403,1.3403,1.0684,0.0,0.0,0.0,0.0,0.0,1.1606,1.166,1.1692,1.1881,1.1959,1.2054,1.2352,1.2712,1.3016,1.3057,1.3234,1.3403,1.3403,1.3403,1.3403,1.3403,1.3403,1.3403,1.3403,1.3403,1.3403,1.3403,1.3403,1.3403,1.3403,1.3403,1.3403,1.3403,1.3403,1.3403,1.3403,1.3403,1.3403,1.3403,1.3403,1.3403,1.3403,1.3403,1.3403,1.3403,1.3403,1.3403,1.3403,1.3403,1.3403,1.3403,1.3403,1.3403,1.3403,1.3403,1.3403,1.3403,1.3403,1.3403,1.3403,1.3403,1.3403,1.3403,1.3403,1.3403,1.3403,1.3403,1.3403,1.3403,1.3403,1.3403,1.3403,1.3403,1.3403,1.3403,1.3403,1.3403,1.3403,1.3403,1.3403,1.3403,1.3403,1.3403,1.3437,1.3553,1.3524,1.3524,1.3524,1.3524,1.3526,1.341,1.3403,1.3403,1.3403,1.3403,1.3403,1.3403,1.3403,1.3403,1.3403,1.3403,1.3403,1.3403,1.3403,1.3403,1.3403,1.3403,1.3403,1.3403,1.3403,1.3403,1.0684,1.0684,1.0752,1.1029,0.0,0.0,1.1613,1.1647,1.1681,1.1884,1.1925,1.1999,1.2244,1.2603,1.2888,1.2989,1.3193,1.3329,1.339,1.3458,1.3498,1.3498,1.3498,1.3498,1.3498,1.3437,1.3403,1.3403,1.3403,1.3403,1.3403,1.3403,1.3403,1.3403,1.3403,1.3403,1.3403,1.3403,1.3403,1.3403,1.3403,1.3403,1.3403,1.3403,1.3403,1.3403,1.3403,1.3403,1.3403,1.3403,1.3403,1.3403,1.3403,1.3403,1.3403,1.3403,1.3403,1.3403,1.3403,1.3403,1.3403,1.3403,1.3403,1.3403,1.3403,1.3403,1.3403,1.3403,1.3403,1.3403,1.3403,1.3403,1.3403,1.3403,1.3403,1.3403,1.3403,1.3403,1.3403,1.3403,1.3403,1.3403,1.3403,1.3403,1.3431,1.3519,1.3532,1.3532,1.3532,1.3532,1.3498,1.341,1.3403,1.3403,1.3403,1.3403,1.3403,1.3403,1.3403,1.3403,1.3403,1.3403,1.3403,1.3403,1.3403,1.3403,1.3403,1.3403,1.3403,1.3403,1.3403,1.3403,1.0691,1.0698,1.0806,1.124,1.1267,0.0,1.19,1.1782,1.1681,1.2009,1.2077,1.2125,1.2257,1.2549,1.2793,1.2955,1.3125,1.3247,1.3383,1.3519,1.3565,1.3585,1.3572,1.3565,1.3585,1.3492,1.3403,1.3403,1.3403,1.3403,1.3403,1.3403,1.3403,1.3403,1.3403,1.3403,1.3403,1.3403,1.3403,1.3403,1.3403,1.3403,1.3403,1.3403,1.3403,1.3403,1.3403,1.3403,1.3403,1.3403,1.3403,1.3403,1.3403,1.3403,1.3403,1.3403,1.3403,1.3403,1.3403,1.3403,1.3403,1.3403,1.3403,1.3403,1.3403,1.3403,1.3403,1.3403,1.3403,1.3403,1.3403,1.3403,1.3403,1.3403,1.3403,1.3403,1.3403,1.3403,1.3403,1.3403,1.3403,1.3403,1.3403,1.3403,1.3403,1.3403,1.3417,1.3417,1.3403,1.3417,1.3417,1.3403,1.3403,1.3403,1.3403,1.3403,1.3403,1.3403,1.3403,1.3403,1.3403,1.3403,1.3403,1.3403,1.3403,1.3403,1.3403,1.3403,1.3403,1.3403,1.3403,1.3403,1.0718,1.0779,1.0894,1.0975,1.1192,0.0,1.1497,1.1477,1.1518,1.1816,1.1877,1.1959,1.2237,1.263,1.2888,1.2793,1.3105,1.337,1.3397,1.3424,1.3492,1.3572,1.3519,1.3492,1.3572,1.3492,1.3403,1.3403,1.3403,1.3403,1.3403,1.3403,1.3403,1.3403,1.3403,1.3403,1.3403,1.3403,1.3403,1.3403,1.3403,1.3403,1.3403,1.3403,1.3403,1.3403,1.3403,1.3403,1.3403,1.3403,1.3403,1.3403,1.3403,1.3403,1.3403,1.3403,1.3403,1.3403,1.3403,1.3403,1.3403,1.3403,1.3403,1.3403,1.3403,1.3403,1.3403,1.3403,1.3403,1.3403,1.3403,1.3403,1.3403,1.3403,1.3403,1.3403,1.3403,1.3403,1.3403,1.3403,1.3403,1.3403,1.3403,1.3403,1.3403,1.3403,1.3505,1.3539,1.3417,1.3505,1.3539,1.341,1.3403,1.3403,1.3403,1.3403,1.3403,1.3403,1.3403,1.3403,1.3403,1.3403,1.3403,1.3403,1.3403,1.3403,1.3403,1.3403,1.3403,1.3403,1.3403,1.3403,1.0732,1.0745,1.0833,1.1016,1.1165,0.0,0.0,1.1558,1.1565,1.1746,1.1793,1.1868,1.2135,1.2458,1.2678,1.282,1.2969,1.3119,1.3268,1.3417,1.3504,1.3578,1.3559,1.3546,1.3578,1.3492,1.3403,1.3403,1.3403,1.3403,1.3403,1.3403,1.3403,1.3403,1.3403,1.3403,1.3403,1.3403,1.3403,1.3403,1.3403,1.3403,1.3403,1.3403,1.3403,1.3403,1.3403,1.3403,1.3403,1.3403,1.3403,1.3403,1.3403,1.3403,1.3403,1.3403,1.3403,1.3403,1.3403,1.3403,1.3403,1.3403,1.3403,1.3403,1.3403,1.3403,1.3403,1.3403,1.3403,1.3403,1.3403,1.3403,1.3403,1.3403,1.3403,1.3403,1.3403,1.3403,1.3403,1.3403,1.3403,1.3403,1.3403,1.3403,1.3403,1.3403,1.3464,1.3485,1.341,1.3464,1.3485,1.341,1.3403,1.3403,1.3403,1.3403,1.3403,1.3403,1.3403,1.3403,1.3403,1.3403,1.3403,1.3403,1.3403,1.3403,1.3403,1.3403,1.3403,1.3403,1.3403,1.3403,1.0719,1.0813,1.0941,1.1186,1.1281,1.1382,0.0,0.0,0.0,1.1773,1.182,1.1911,1.2077,1.2247,1.2447,1.2853,1.282,1.2868,1.3173,1.3383,1.3511,1.3538,1.3559,1.3524,1.3578,1.3464,1.337,1.3397,1.337,1.337,1.3397,1.3403,1.3403,1.3403,1.3403,1.3403,1.3403,1.3403,1.3403,1.3403,1.3403,1.3403,1.3403,1.3403,1.3403,1.3403,1.3403,1.3403,1.3403,1.3403,1.3403,1.3403,1.3403,1.3403,1.3403,1.3403,1.3403,1.3403,1.3403,1.3403,1.3403,1.3403,1.3403,1.3403,1.3403,1.3403,1.3403,1.3403,1.3403,1.3403,1.3403,1.3403,1.3403,1.3403,1.3403,1.3403,1.3403,1.3403,1.3403,1.3403,1.3403,1.3403,1.3403,1.3403,1.3403,1.3403,1.3403,1.3403,1.3403,1.3403,1.3403,1.3403,1.3403,1.3403,1.3403,1.3403,1.3403,1.3403,1.3403,1.3403,1.3403,1.3403,1.3403,1.3403,1.3403,1.3403,1.3403,1.3403,1.3403,1.3403,1.3403,1.3403,1.0694,1.1307,1.1491,1.1389,1.1558,1.1698,1.1624,0.0,1.1773,1.1793,0.0,1.2077,1.2098,0.0,0.0,1.2549,1.2805,1.303,1.3193,1.3241,1.3275,1.341,1.3308,1.3329,1.3558,1.337,1.3254,1.339,1.3275,1.3254,1.3397,1.3403,1.3403,1.3403,1.3403,1.3403,1.3403,1.3403,1.3403,1.3403,1.3403,1.3403,1.3403,1.3403,1.3403,1.3403,1.3403,1.3403,1.3403,1.3403,1.3403,1.3403,1.3403,1.3403,1.3403,1.3403,1.3403,1.3403,1.3403,1.3403,1.3403,1.3403,1.3403,1.3403,1.3403,1.3403,1.3403,1.3403,1.3403,1.3403,1.3403,1.3403,1.3403,1.3403,1.3403,1.3403,1.3403,1.3403,1.3403,1.3403,1.3403,1.3403,1.3403,1.3403,1.3403,1.3403,1.3403,1.3403,1.3403,1.3403,1.3403,1.3403,1.3403,1.3403,1.3403,1.3403,1.3403,1.3403,1.3403,1.3403,1.3403,1.3403,1.3403,1.3403,1.3403,1.3403,1.3403,1.3403,1.3403,1.3403,1.3403,1.3403,1.1011,1.0467,0.996,1.112,1.0645,1.0185,1.1338,1.1631,1.1671,1.1671,0.0,0.0,0.0,0.0,0.0,0.0,1.2684,1.2881,1.3071,1.3091,1.318,1.337,1.3342,1.339,1.3565,1.3349,1.3275,1.3512,1.3308,1.3282,1.339,1.3403,1.3403,1.3403,1.3403,1.3403,1.3403,1.3403,1.3403,1.3403,1.3403,1.3403,1.3403,1.3403,1.3403,1.3403,1.3403,1.3403,1.3403,1.3403,1.3403,1.3403,1.3403,1.3403,1.3403,1.3403,1.3403,1.3403,1.3403,1.3403,1.3403,1.3403,1.3403,1.3403,1.3403,1.3403,1.3403,1.3403,1.3403,1.3403,1.3403,1.3403,1.3403,1.3403,1.3403,1.3403,1.3403,1.3403,1.3403,1.3403,1.3403,1.3403,1.3403,1.3403,1.3403,1.3403,1.3403,1.3403,1.3403,1.3403,1.3403,1.3403,1.3403,1.3403,1.3403,1.3403,1.3403,1.3403,1.3403,1.3403,1.3403,1.3403,1.3403,1.3403,1.3403,1.3403,1.3403,1.3403,1.3403,1.3403,1.3403,1.3403,1.0222,0.9502,0.8936,1.0902,1.0376,0.9794,1.126,1.1714,1.1782,1.1658,1.1809,0.0,0.0,0.0,1.2318,1.2528,0.0,1.2786,1.2982,1.2962,1.301,1.3302,1.341,1.3492,1.3559,1.3363,1.3308,1.3492,1.3261,1.322,1.3329,1.3336,1.3356,1.3397,1.3403,1.3403,1.3403,1.3403,1.3403,1.3403,1.3403,1.3403,1.3403,1.3403,1.3403,1.3403,1.3403,1.3403,1.3403,1.3403,1.3403,1.3403,1.3403,1.3403,1.3403,1.3403,1.3403,1.3403,1.3403,1.3403,1.3403,1.3403,1.3403,1.3403,1.3403,1.3403,1.3403,1.3403,1.3403,1.3403,1.3403,1.3403,1.3403,1.3403,1.3403,1.3403,1.3403,1.3403,1.3403,1.3403,1.3403,1.3403,1.3403,1.3403,1.3403,1.3403,1.3403,1.3403,1.3403,1.3403,1.3403,1.3403,1.3403,1.3403,1.3403,1.3403,1.3403,1.3403,1.3403,1.3403,1.3403,1.3403,1.3403,1.3403,1.3403,1.3403,1.3403,1.3403,1.3403,1.3403,1.3403,1.3403,0.7597,0.8747,0.9289,1.0999,1.1534,1.168,1.1617,1.1959,1.2182,1.1847,1.2246,1.261,1.2325,1.2515,1.2672,1.2679,1.2686,0.0,0.0,1.2834,1.2847,1.3186,1.3444,1.3524,1.3424,1.3397,1.3336,1.3241,1.3091,1.3071,1.3214,1.322,1.3288,1.3397,1.3403,1.3403,1.3403,1.3403,1.3403,1.3403,1.3403,1.3403,1.3403,1.3403,1.3403,1.3403,1.3403,1.3403,1.3403,1.3403,1.3403,1.3403,1.3403,1.3403,1.3403,1.3403,1.3403,1.3403,1.3403,1.3403,1.3403,1.3403,1.3403,1.3403,1.3403,1.3403,1.3403,1.3403,1.3403,1.3403,1.3403,1.3403,1.3403,1.3403,1.3403,1.3403,1.3403,1.3403,1.3403,1.3403,1.3403,1.3403,1.3403,1.3403,1.3403,1.3403,1.3403,1.3403,1.3403,1.3403,1.3403,1.3403,1.3403,1.3403,1.3403,1.3403,1.3403,1.3403,1.3403,1.3403,1.3403,1.3403,1.3403,1.3403,1.3403,1.3403,1.3403,1.3403,1.3403,1.3403,1.3403,1.3403,0.6351,0.5841,0.5715,0.8936,0.8798,0.8503,1.1126,1.1959,1.2054,1.1755,1.2088,1.2379,1.2213,1.2379,1.261,1.2672,1.2895,1.301,0.0,1.2955,1.2956,1.3193,1.3261,1.339,1.3539,1.337,1.3315,1.3464,1.3241,1.3159,1.3214,1.3268,1.3302,1.3254,1.3349,1.3403,1.3403,1.3403,1.3403,1.3403,1.3403,1.3403,1.3403,1.3403,1.3403,1.3403,1.3403,1.3403,1.3403,1.3403,1.3403,1.3403,1.3403,1.3403,1.3403,1.3403,1.3403,1.3403,1.3403,1.3403,1.3403,1.3403,1.3403,1.3403,1.3403,1.3403,1.3403,1.3403,1.3403,1.3403,1.3403,1.3403,1.3403,1.3403,1.3403,1.3403,1.3403,1.3403,1.3403,1.3403,1.3403,1.3403,1.3403,1.3403,1.3403,1.3403,1.3403,1.3403,1.3403,1.3403,1.3403,1.3403,1.3403,1.3403,1.3403,1.3403,1.3403,1.3403,1.3403,1.3403,1.3403,1.3403,1.3403,1.3403,1.3403,1.3403,1.3403,1.3403,1.3403,1.3403,1.3403,1.3403,0.454,0.3835,0.3658,0.6913,0.6747,0.6645,0.9959,1.0903,1.0971,1.0712,1.1603,1.1965,1.0405,1.1551,1.2516,1.1717,1.2487,1.3146,0.0,1.2881,1.2935,1.3118,1.3193,1.3329,1.3532,1.3417,1.337,1.3458,1.3281,1.3214,1.3214,1.3268,1.3302,1.3254,1.3349,1.3403,1.3403,1.3403,1.3403,1.3403,1.3403,1.3403,1.3403,1.3403,1.3403,1.3403,1.3403,1.3403,1.3403,1.3403,1.3403,1.3403,1.3403,1.3403,1.3403,1.3403,1.3403,1.3403,1.3403,1.3403,1.3403,1.3403,1.3403,1.3403,1.3403,1.3403,1.3403,1.3403,1.3403,1.3403,1.3403,1.3403,1.3403,1.3403,1.3403,1.3403,1.3403,1.3403,1.3403,1.3403,1.3403,1.3403,1.3403,1.3403,1.3403,1.3403,1.3403,1.3403,1.3403,1.3403,1.3403,1.3403,1.3403,1.3403,1.3403,1.3403,1.3403,1.3403,1.3403,1.3403,1.3403,1.3403,1.3403,1.3403,1.3403,1.3403,1.3403,1.3403,1.3403,1.3403,1.3403,1.3403]},{"header":{"parameterUnit":"m.s-1","parameterCategory":1,"la1":30.6,"la2":29.2853,"lo1":-89.7004,"lo2":-87.6739,"dy":0.0162,"dx":0.0183,"nx":112,"ny":82,"refTime":"2024-06-18T12:00:00:Z","depth":0,"parameterNumber":3,"parameterNumberName":"V-component_of_WINDS"},"data":[0.0,0.0,0.0,0.0,0.0,0.0,0.0,0.0,0.0,0.0,0.0,0.0,0.0,0.0,0.0,0.0,0.0,0.0,0.0,0.0,0.0,0.0,0.0,0.0,0.0,0.0,0.0,0.0,0.0,0.0,0.0,0.0,0.0,0.0,0.0,0.0,0.0,0.0,0.0,0.0,0.0,0.0,0.0,0.0,0.0,0.0,0.0,0.0,0.0,0.0,0.0,0.0,0.0,0.0,0.0,0.0,0.0,0.0,0.0,0.0,0.0,0.0,0.0,0.0,0.0,0.0,0.0,0.0,0.0,0.0,0.0,0.0,0.0,0.0,0.0,0.0,0.0,0.0,0.0,0.0,0.0,0.0,0.0,0.0,0.0,0.0,0.0,0.0,0.0,0.0,4.5195,4.6172,4.6289,4.6289,4.6289,4.6289,4.5547,4.3828,0.0,0.0,0.0,0.0,0.0,0.0,0.0,0.0,0.0,0.0,0.0,0.0,0.0,0.0,0.0,0.0,0.0,0.0,0.0,0.0,0.0,0.0,0.0,0.0,0.0,0.0,0.0,0.0,0.0,0.0,0.0,0.0,0.0,0.0,0.0,0.0,0.0,0.0,0.0,0.0,0.0,0.0,0.0,0.0,0.0,0.0,0.0,0.0,0.0,0.0,0.0,0.0,0.0,0.0,0.0,0.0,0.0,0.0,0.0,0.0,0.0,0.0,0.0,0.0,0.0,0.0,0.0,0.0,0.0,0.0,0.0,0.0,0.0,0.0,0.0,0.0,0.0,0.0,0.0,0.0,0.0,0.0,0.0,0.0,0.0,0.0,0.0,0.0,0.0,0.0,0.0,0.0,0.0,0.0,0.0,0.0,0.0,0.0,0.0,0.0,0.0,0.0,0.0,0.0,4.4492,4.6133,4.6289,4.6289,4.6289,4.6289,4.5547,4.3828,0.0,0.0,0.0,0.0,0.0,0.0,0.0,0.0,0.0,0.0,0.0,0.0,0.0,0.0,0.0,0.0,0.0,0.0,0.0,0.0,0.0,0.0,0.0,0.0,0.0,0.0,0.0,0.0,0.0,0.0,0.0,0.0,0.0,0.0,0.0,0.0,0.0,0.0,0.0,0.0,0.0,0.0,0.0,0.0,0.0,0.0,0.0,0.0,0.0,0.0,0.0,0.0,0.0,0.0,0.0,0.0,0.0,0.0,0.0,0.0,0.0,0.0,0.0,0.0,0.0,0.0,0.0,0.0,0.0,0.0,0.0,0.0,0.0,0.0,0.0,0.0,0.0,0.0,0.0,0.0,0.0,0.0,0.0,0.0,0.0,0.0,0.0,0.0,0.0,0.0,0.0,0.0,0.0,0.0,0.0,0.0,0.0,0.0,0.0,0.0,0.0,0.0,0.0,4.4373,4.4883,4.6172,4.6289,4.6289,4.6289,4.6289,4.5547,4.3828,4.2461,0.0,0.0,0.0,0.0,0.0,0.0,0.0,0.0,0.0,0.0,0.0,0.0,0.0,0.0,0.0,0.0,0.0,0.0,0.0,0.0,0.0,0.0,0.0,0.0,0.0,0.0,0.0,0.0,0.0,0.0,0.0,0.0,0.0,0.0,0.0,0.0,0.0,0.0,0.0,0.0,0.0,0.0,0.0,0.0,0.0,0.0,0.0,0.0,0.0,0.0,0.0,0.0,0.0,0.0,0.0,0.0,0.0,0.0,0.0,0.0,0.0,0.0,0.0,0.0,0.0,0.0,0.0,0.0,0.0,0.0,0.0,0.0,0.0,0.0,0.0,0.0,0.0,0.0,0.0,0.0,0.0,0.0,0.0,0.0,0.0,0.0,0.0,0.0,0.0,0.0,0.0,0.0,0.0,0.0,0.0,0.0,0.0,0.0,0.0,0.0,0.0,0.0,4.4936,4.5459,4.6123,4.6201,4.6201,4.6201,4.605,4.5269,4.3741,4.1871,0.0,0.0,0.0,0.0,0.0,0.0,0.0,0.0,0.0,0.0,0.0,0.0,0.0,0.0,0.0,0.0,0.0,0.0,0.0,0.0,0.0,0.0,0.0,0.0,0.0,0.0,0.0,0.0,0.0,0.0,0.0,0.0,0.0,0.0,0.0,0.0,0.0,0.0,0.0,0.0,0.0,0.0,0.0,0.0,0.0,0.0,0.0,0.0,0.0,0.0,0.0,0.0,0.0,0.0,0.0,0.0,0.0,0.0,0.0,0.0,0.0,0.0,0.0,0.0,0.0,0.0,0.0,0.0,0.0,0.0,0.0,0.0,0.0,0.0,0.0,0.0,0.0,0.0,0.0,0.0,0.0,0.0,0.0,0.0,0.0,0.0,0.0,0.0,0.0,0.0,0.0,0.0,0.0,0.0,0.0,0.0,0.0,0.0,0.0,0.0,0.0,0.0,4.4886,4.5866,4.5905,4.5944,4.5944,4.5944,4.5318,4.447,4.3494,4.115,0.0,0.0,0.0,0.0,0.0,0.0,0.0,0.0,0.0,0.0,0.0,0.0,0.0,0.0,0.0,0.0,0.0,0.0,0.0,0.0,0.0,0.0,0.0,0.0,0.0,0.0,0.0,0.0,0.0,0.0,0.0,0.0,0.0,0.0,0.0,0.0,0.0,0.0,0.0,0.0,0.0,0.0,0.0,0.0,0.0,0.0,0.0,0.0,0.0,0.0,0.0,0.0,0.0,0.0,0.0,0.0,0.0,0.0,0.0,0.0,0.0,0.0,0.0,0.0,0.0,0.0,0.0,0.0,0.0,0.0,0.0,0.0,0.0,0.0,0.0,0.0,0.0,0.0,0.0,0.0,0.0,0.0,0.0,0.0,0.0,0.0,0.0,0.0,0.0,0.0,0.0,0.0,0.0,0.0,0.0,0.0,0.0,0.0,0.0,0.0,0.0,0.0,4.4353,4.5332,4.584,4.5882,4.5882,4.5882,4.518,4.4368,4.3469,0.0,0.0,0.0,0.0,0.0,0.0,0.0,0.0,0.0,0.0,0.0,0.0,0.0,0.0,0.0,0.0,0.0,0.0,0.0,0.0,0.0,0.0,0.0,0.0,0.0,0.0,0.0,0.0,0.0,0.0,0.0,0.0,0.0,0.0,0.0,0.0,0.0,0.0,0.0,0.0,0.0,0.0,0.0,0.0,0.0,0.0,0.0,0.0,0.0,0.0,0.0,0.0,0.0,0.0,0.0,0.0,0.0,0.0,0.0,0.0,0.0,0.0,0.0,0.0,0.0,0.0,0.0,0.0,0.0,0.0,0.0,0.0,0.0,0.0,0.0,0.0,0.0,0.0,0.0,0.0,0.0,0.0,0.0,0.0,0.0,0.0,0.0,0.0,0.0,0.0,0.0,0.0,0.0,0.0,0.0,0.0,0.0,0.0,0.0,0.0,0.0,0.0,4.3107,4.4246,4.5085,4.5365,4.5406,4.529,4.5018,4.4054,4.3168,4.2501,0.0,0.0,0.0,0.0,0.0,0.0,0.0,0.0,0.0,0.0,0.0,0.0,0.0,0.0,0.0,0.0,0.0,0.0,0.0,0.0,0.0,0.0,0.0,0.0,0.0,0.0,0.0,0.0,0.0,0.0,0.0,0.0,0.0,0.0,0.0,0.0,0.0,0.0,0.0,0.0,0.0,0.0,0.0,0.0,0.0,0.0,0.0,0.0,0.0,0.0,0.0,0.0,0.0,0.0,0.0,0.0,0.0,0.0,0.0,0.0,0.0,0.0,0.0,0.0,0.0,0.0,0.0,0.0,0.0,0.0,0.0,0.0,0.0,0.0,0.0,0.0,0.0,0.0,0.0,0.0,0.0,0.0,0.0,0.0,0.0,0.0,0.0,0.0,0.0,0.0,0.0,0.0,0.0,0.0,0.0,0.0,0.0,0.0,0.0,0.0,0.0,0.0,4.3085,4.4551,4.5244,4.4397,4.4278,4.397,4.3162,4.164,4.0668,0.0,0.0,0.0,0.0,0.0,0.0,0.0,0.0,0.0,0.0,0.0,0.0,0.0,0.0,0.0,0.0,0.0,0.0,0.0,0.0,0.0,0.0,0.0,0.0,0.0,0.0,0.0,0.0,0.0,0.0,0.0,0.0,0.0,0.0,0.0,0.0,0.0,0.0,0.0,0.0,0.0,0.0,0.0,0.0,0.0,0.0,0.0,0.0,0.0,0.0,0.0,0.0,0.0,0.0,0.0,0.0,0.0,0.0,0.0,0.0,0.0,0.0,0.0,0.0,0.0,0.0,0.0,0.0,0.0,0.0,0.0,0.0,0.0,0.0,0.0,0.0,0.0,0.0,0.0,0.0,0.0,0.0,0.0,0.0,0.0,0.0,0.0,0.0,0.0,0.0,0.0,0.0,0.0,0.0,0.0,0.0,0.0,0.0,0.0,0.0,0.0,0.0,0.0,4.2196,4.3162,4.3739,4.347,4.3431,4.3355,4.3124,4.2098,4.1451,4.1435,0.0,0.0,0.0,0.0,0.0,0.0,0.0,0.0,0.0,0.0,0.0,0.0,0.0,0.0,0.0,0.0,0.0,0.0,0.0,0.0,0.0,0.0,0.0,0.0,0.0,0.0,0.0,0.0,0.0,0.0,0.0,0.0,0.0,0.0,0.0,0.0,0.0,0.0,0.0,0.0,0.0,0.0,0.0,0.0,0.0,0.0,0.0,0.0,0.0,0.0,0.0,0.0,0.0,0.0,0.0,0.0,0.0,0.0,0.0,0.0,0.0,0.0,0.0,0.0,0.0,0.0,0.0,0.0,0.0,0.0,0.0,0.0,0.0,0.0,0.0,0.0,0.0,0.0,0.0,0.0,0.0,0.0,0.0,0.0,0.0,0.0,0.0,0.0,0.0,0.0,0.0,0.0,0.0,0.0,0.0,0.0,0.0,0.0,0.0,0.0,0.0,0.0,4.1812,4.2543,4.297,4.2624,4.2581,4.2431,4.2089,4.1277,4.0662,4.0312,0.0,0.0,0.0,0.0,0.0,0.0,0.0,0.0,0.0,0.0,0.0,0.0,0.0,0.0,0.0,0.0,0.0,0.0,0.0,0.0,0.0,0.0,0.0,0.0,0.0,0.0,0.0,0.0,0.0,0.0,0.0,0.0,0.0,0.0,0.0,0.0,0.0,0.0,0.0,0.0,0.0,0.0,0.0,0.0,0.0,0.0,0.0,0.0,0.0,0.0,0.0,0.0,0.0,0.0,0.0,0.0,0.0,0.0,0.0,0.0,0.0,0.0,0.0,0.0,0.0,0.0,0.0,0.0,0.0,0.0,0.0,0.0,0.0,0.0,0.0,0.0,0.0,0.0,0.0,0.0,0.0,0.0,0.0,0.0,0.0,0.0,0.0,0.0,0.0,0.0,0.0,0.0,0.0,0.0,0.0,0.0,0.0,0.0,0.0,0.0,0.0,0.0,4.1812,4.2431,4.2547,4.1773,4.1696,4.1354,4.0554,3.9823,3.9088,3.8277,0.0,0.0,0.0,0.0,0.0,0.0,0.0,0.0,0.0,0.0,0.0,0.0,0.0,0.0,0.0,0.0,0.0,0.0,0.0,0.0,0.0,0.0,0.0,0.0,0.0,0.0,0.0,0.0,0.0,0.0,0.0,0.0,0.0,0.0,0.0,0.0,0.0,0.0,0.0,0.0,0.0,0.0,0.0,0.0,0.0,0.0,0.0,0.0,0.0,0.0,0.0,0.0,0.0,0.0,0.0,0.0,0.0,0.0,0.0,0.0,4.6552,4.6436,0.0,0.0,0.0,0.0,0.0,0.0,0.0,0.0,0.0,0.0,0.0,0.0,0.0,0.0,0.0,0.0,0.0,0.0,0.0,0.0,0.0,0.0,0.0,0.0,0.0,0.0,0.0,0.0,0.0,0.0,0.0,0.0,0.0,0.0,0.0,0.0,0.0,0.0,0.0,0.0,4.1812,4.1354,4.0973,4.0781,4.0781,4.0704,4.0516,4.0323,4.0169,3.9973,3.9358,0.0,0.0,0.0,0.0,0.0,0.0,0.0,0.0,0.0,0.0,0.0,0.0,0.0,0.0,0.0,0.0,0.0,0.0,0.0,0.0,0.0,0.0,0.0,0.0,0.0,0.0,0.0,0.0,0.0,0.0,0.0,0.0,0.0,0.0,0.0,0.0,0.0,0.0,0.0,0.0,0.0,0.0,0.0,0.0,0.0,0.0,0.0,0.0,0.0,0.0,0.0,0.0,0.0,0.0,0.0,0.0,0.0,0.0,0.0,4.8086,4.7778,0.0,0.0,0.0,0.0,0.0,0.0,0.0,0.0,0.0,0.0,0.0,0.0,0.0,0.0,0.0,0.0,0.0,0.0,0.0,0.0,0.0,0.0,0.0,0.0,0.0,0.0,0.0,0.0,0.0,0.0,0.0,0.0,0.0,0.0,0.0,0.0,0.0,0.0,0.0,0.0,4.1812,4.105,4.0516,4.0516,4.0516,4.0516,4.0516,4.0516,4.0323,3.9938,3.9511,0.0,0.0,0.0,0.0,0.0,0.0,0.0,0.0,0.0,0.0,0.0,0.0,0.0,0.0,0.0,0.0,0.0,0.0,0.0,0.0,0.0,0.0,0.0,0.0,0.0,0.0,0.0,0.0,0.0,0.0,0.0,0.0,0.0,0.0,0.0,0.0,0.0,0.0,0.0,0.0,0.0,0.0,0.0,0.0,0.0,0.0,0.0,0.0,0.0,0.0,0.0,0.0,0.0,5.2851,5.3197,5.3159,5.2467,5.2505,5.3044,5.0197,4.9817,5.0976,4.9086,0.0,0.0,0.0,0.0,0.0,0.0,0.0,0.0,0.0,0.0,0.0,0.0,0.0,0.0,0.0,0.0,0.0,0.0,0.0,0.0,0.0,0.0,4.5163,4.6735,4.6547,4.5436,4.3158,0.0,0.0,0.0,0.0,0.0,0.0,0.0,0.0,0.0,0.0,0.0,4.185,4.1162,4.0666,4.0516,4.0516,4.0516,4.0516,4.0516,4.0208,3.955,3.9396,3.905,0.0,0.0,0.0,0.0,0.0,0.0,0.0,0.0,0.0,0.0,0.0,0.0,0.0,0.0,0.0,0.0,0.0,0.0,0.0,0.0,0.0,0.0,0.0,0.0,0.0,0.0,0.0,0.0,0.0,0.0,0.0,0.0,5.051,5.1313,0.0,0.0,0.0,0.0,0.0,0.0,0.0,0.0,0.0,0.0,0.0,0.0,0.0,5.3082,5.2856,5.3082,5.3121,5.3044,5.3159,5.3197,5.3197,5.3082,5.3082,5.3159,5.2736,0.0,5.2664,5.024,0.0,0.0,0.0,0.0,0.0,0.0,0.0,0.0,0.0,0.0,0.0,0.0,0.0,0.0,0.0,0.0,0.0,0.0,0.0,0.0,0.0,0.0,4.6774,4.7735,4.7851,4.7505,4.6466,4.6312,4.5928,4.4278,4.3508,4.3085,0.0,0.0,0.0,0.0,0.0,0.0,4.2004,4.1696,4.1354,4.0593,4.0516,4.0516,4.0516,4.0516,4.0439,4.0362,3.9708,3.955,4.0169,3.878,0.0,0.0,0.0,0.0,0.0,0.0,0.0,0.0,0.0,0.0,0.0,0.0,0.0,0.0,0.0,0.0,0.0,0.0,0.0,0.0,0.0,0.0,0.0,0.0,0.0,0.0,0.0,0.0,0.0,5.1246,5.2779,5.2659,5.3044,5.3159,0.0,0.0,0.0,0.0,0.0,0.0,0.0,0.0,0.0,5.3197,5.3664,5.3933,5.3933,5.4395,5.4626,5.4626,5.4626,5.4626,5.4626,5.4626,5.4626,5.4626,5.4626,5.4626,5.4434,5.2395,5.2049,5.2708,0.0,0.0,0.0,0.0,5.0966,5.0351,5.1241,5.1279,5.0813,4.9856,0.0,0.0,0.0,0.0,0.0,0.0,0.0,4.8279,4.812,4.7851,4.7774,4.8625,4.8817,4.874,4.8394,4.8317,4.7817,4.6086,4.5855,4.5778,4.5312,4.4816,0.0,0.0,0.0,4.4047,4.3316,4.2816,4.2393,4.2012,4.1508,4.1239,4.1239,4.0781,4.0516,4.0516,4.0169,4.0131,4.0477,3.9781,3.9742,0.0,0.0,0.0,0.0,0.0,0.0,0.0,0.0,0.0,0.0,0.0,0.0,0.0,0.0,0.0,0.0,0.0,0.0,0.0,0.0,0.0,0.0,0.0,0.0,0.0,0.0,0.0,0.0,5.3439,5.4434,5.4203,5.4549,5.4472,0.0,0.0,0.0,0.0,0.0,0.0,5.4164,5.4159,5.4274,5.4505,5.5126,5.5472,5.5472,5.5824,5.6016,5.6016,5.5824,5.5708,5.5708,5.5708,5.5708,5.5708,5.5708,5.5708,5.5593,5.4126,5.3895,5.4395,5.3549,5.2659,5.2038,5.3121,5.2967,5.2351,5.3236,5.3395,5.3005,5.1746,5.1053,5.0476,4.9163,0.0,0.0,0.0,0.0,4.9317,4.8894,4.8586,4.8663,4.9514,4.9745,4.9745,4.9745,4.9894,4.9471,4.7582,4.7505,4.7658,4.7274,4.6509,0.0,4.5936,4.5547,4.5047,4.4393,4.397,4.3585,4.3162,4.2504,4.2119,4.2119,4.1546,4.105,4.0858,4.0819,4.0743,4.0516,4.0516,4.0516,4.0516,0.0,0.0,0.0,0.0,0.0,0.0,0.0,0.0,0.0,0.0,0.0,0.0,0.0,0.0,0.0,0.0,0.0,0.0,0.0,0.0,0.0,0.0,0.0,0.0,0.0,0.0,0.0,0.0,0.0,5.6632,5.6132,0.0,0.0,0.0,0.0,5.4472,5.5126,5.5939,5.6747,5.6819,5.7198,5.8006,5.8083,5.8127,5.8127,5.7324,5.6945,5.6907,5.6093,5.5708,5.5708,5.5708,5.5708,5.5708,5.5708,5.5708,5.5631,5.478,5.4472,5.4395,5.3549,5.2659,5.212,5.3818,5.3895,5.3274,5.4126,5.3895,5.3197,5.3082,5.201,5.0668,5.0592,5.0014,0.0,0.0,4.9394,4.9591,5.0361,4.9976,4.9548,5.0438,5.063,5.063,5.063,5.1241,5.1043,4.8543,4.7466,4.7197,4.7928,0.0,4.6812,4.6812,4.7466,4.7048,4.4624,4.4975,4.4859,4.3278,4.3047,4.3047,4.3047,4.3008,4.2624,4.1773,4.1735,4.1354,4.0516,4.0516,4.0516,4.0516,4.0477,0.0,0.0,0.0,0.0,0.0,0.0,0.0,0.0,0.0,0.0,0.0,0.0,0.0,0.0,0.0,0.0,0.0,0.0,0.0,0.0,0.0,0.0,0.0,0.0,0.0,0.0,0.0,0.0,5.7703,5.7055,0.0,5.6934,5.7203,5.7242,5.6973,5.7203,5.7511,5.7819,5.7852,5.7967,5.8275,5.8313,5.8313,5.8313,5.7973,5.7857,5.7819,5.7511,5.7357,5.7357,5.6786,5.6555,5.6516,5.5939,5.5708,5.567,5.5401,5.5285,5.5247,5.4934,5.4318,5.3703,5.4857,5.4741,5.4164,5.4972,5.5049,5.4703,5.4203,5.3241,5.2395,5.2977,5.2938,5.2664,5.2664,5.2279,5.1779,5.1543,5.0856,5.0322,5.063,5.0707,5.0707,5.0707,5.0938,5.0856,4.9938,4.9553,4.924,4.8971,4.8235,4.7658,4.7658,4.7928,4.7774,4.6855,4.7009,4.6971,4.6394,4.5355,4.4705,4.4705,4.3701,4.2739,4.185,4.1812,4.1393,4.0554,4.0516,4.0516,4.0516,3.9977,4.0127,0.0,0.0,0.0,0.0,0.0,0.0,0.0,0.0,0.0,0.0,0.0,0.0,0.0,0.0,0.0,0.0,0.0,0.0,0.0,0.0,0.0,0.0,0.0,0.0,0.0,5.6632,5.7324,5.8198,5.8011,5.7978,5.828,5.855,5.8698,5.8698,5.8973,5.9281,5.9588,5.9852,6.0006,6.0006,5.9704,5.9588,5.9588,5.9011,5.8698,5.8698,5.8429,5.8313,5.8275,5.7703,5.744,5.7401,5.6819,5.6401,5.6132,5.6132,5.5978,5.5708,5.5708,5.5362,5.4972,5.5516,5.5362,5.4972,5.5516,5.5708,5.5593,5.5093,5.4318,5.3741,5.4318,5.428,5.4049,5.4049,5.3664,5.3082,5.2505,5.1933,5.1553,5.1553,5.1553,5.1553,5.1553,5.1553,5.1553,5.1553,5.1092,5.0515,4.9938,4.9356,4.9086,4.9351,4.9163,4.8971,4.8971,4.8702,4.8432,4.812,4.7124,4.6436,4.6436,4.5432,4.4316,4.3162,4.3085,4.2585,4.1435,4.1397,4.1397,4.1397,4.0858,4.1397,4.3085,0.0,0.0,0.0,0.0,0.0,0.0,0.0,0.0,0.0,0.0,0.0,0.0,0.0,0.0,0.0,0.0,0.0,0.0,0.0,0.0,0.0,0.0,0.0,5.7055,5.706,5.7401,5.828,5.9088,5.9242,5.8506,5.9165,5.9627,5.9627,6.0396,6.1248,6.2095,6.2897,6.3314,6.3314,6.2551,6.2133,6.2133,6.0473,5.9627,5.9627,5.8813,5.8434,5.8429,5.8396,5.8352,5.8352,5.8313,5.7819,5.7055,5.7022,5.6516,5.5747,5.5708,5.5708,5.5708,5.5708,5.5708,5.5708,5.5708,5.5708,5.5708,5.5708,5.517,5.4549,5.4549,5.3933,5.3274,5.3274,5.3274,5.3236,5.3236,5.3236,5.3197,5.3197,5.3197,5.3197,5.3197,5.3197,5.3197,5.3197,5.1895,5.0784,5.0784,5.0784,5.1053,5.1813,5.1279,0.0,5.0745,5.0014,4.9163,4.8312,4.8197,4.8197,4.8197,4.8159,4.7394,4.571,4.5594,4.4859,4.3201,4.3124,4.3124,4.3124,4.3201,4.4008,4.5594,0.0,0.0,0.0,0.0,0.0,0.0,0.0,0.0,0.0,0.0,0.0,0.0,0.0,0.0,0.0,0.0,0.0,0.0,0.0,0.0,0.0,5.7093,5.7209,5.7857,5.8434,5.9127,6.0012,6.0319,6.0589,6.1018,6.1781,6.2275,6.2275,6.2468,6.2698,6.2968,6.316,6.3314,6.3314,6.3083,6.2974,6.2974,6.2506,6.2275,6.2237,6.2044,6.1627,6.1018,6.0402,5.9781,5.9127,5.855,5.8165,5.7896,5.7247,5.6863,5.6593,5.5939,5.5708,5.5708,5.5708,5.5708,5.5708,5.5708,5.5708,5.5708,5.5708,5.5555,5.5362,5.5362,5.5203,5.5011,5.5011,5.4587,5.4126,5.4126,5.3664,5.3197,5.3197,5.3197,5.3197,5.3197,5.3197,5.3197,5.3197,5.2818,5.251,5.251,5.251,5.2587,5.2813,5.2664,5.2279,5.1659,5.1351,5.112,5.089,5.0317,4.9976,4.9976,4.9394,4.8052,4.5748,4.5594,4.509,4.4008,4.397,4.397,4.397,4.5201,4.5778,0.0,0.0,0.0,0.0,0.0,0.0,0.0,0.0,0.0,0.0,0.0,0.0,0.0,0.0,0.0,0.0,0.0,0.0,0.0,0.0,0.0,0.0,5.8165,5.8363,5.9204,5.9742,6.0242,6.0748,6.1435,6.205,6.2551,6.3051,6.3583,6.432,6.4397,6.4699,6.5391,6.5429,6.5276,6.4897,6.4551,6.4205,6.3852,6.3468,6.3314,6.3314,6.3314,6.3045,6.2589,6.2089,6.1589,6.105,6.0242,5.9665,5.9281,5.8401,5.7863,5.744,0.0,0.0,0.0,0.0,5.5913,5.5913,5.5913,5.5913,5.5913,5.5913,5.5913,5.5913,5.5913,5.5839,5.5794,5.5794,5.5411,5.5011,5.5011,5.4626,5.4241,5.4241,5.4241,5.4241,5.4241,5.4241,5.4241,5.4241,5.4241,0.0,5.4241,5.3664,5.3313,5.3703,5.3433,5.3159,5.3005,5.2659,5.2428,5.2428,5.2049,5.1746,5.1746,5.0933,0.0,0.0,0.0,4.6783,4.5932,4.5893,0.0,0.0,0.0,0.0,0.0,0.0,0.0,0.0,4.9765,4.9861,0.0,0.0,0.0,0.0,0.0,0.0,0.0,0.0,0.0,0.0,0.0,0.0,0.0,0.0,0.0,0.0,5.9347,6.0107,6.0993,6.1219,6.1213,6.11,6.2474,6.3506,6.3583,6.366,6.4391,6.6051,6.6167,6.6821,6.8314,6.8391,0.0,0.0,0.0,6.582,6.5051,6.4275,6.3814,6.3737,6.3814,6.3737,6.3468,6.3545,6.3506,6.3275,6.2477,6.1686,6.0916,5.9948,5.9072,5.8186,5.6536,5.5913,5.5978,5.6143,5.6194,5.6194,5.6194,0.0,0.0,5.6194,5.6194,5.6194,5.6194,5.6094,5.5916,5.5916,5.5852,5.5763,5.5763,5.5763,5.5763,5.5763,5.5763,5.5763,5.5763,5.5763,5.5763,5.5763,5.5763,5.5763,5.5763,5.4475,5.3741,5.4511,5.3972,5.3741,5.4395,5.3818,5.3351,5.3351,5.3351,0.0,5.3351,5.2659,5.1813,5.0899,5.0038,4.9219,4.848,4.8518,4.8904,4.9563,4.9795,5.0284,5.1083,5.1869,5.2337,5.2419,5.0681,5.0296,0.0,0.0,0.0,0.0,0.0,0.0,0.0,0.0,0.0,0.0,0.0,0.0,0.0,0.0,0.0,6.1095,6.1579,6.207,6.295,6.3778,6.3912,6.2918,6.3737,6.4628,6.532,6.5974,6.6782,6.7853,6.793,6.8045,6.8391,6.8391,6.8314,6.816,6.8007,6.7853,6.766,6.7507,6.7051,6.6359,6.7083,0.0,6.4359,6.5089,6.4628,6.3249,6.2565,6.2158,6.1901,6.0472,5.9416,5.8512,5.7365,5.6606,5.6152,5.6183,5.6194,5.6194,5.6194,5.6194,5.6194,5.6194,5.6194,5.6194,5.6194,5.6172,0.0,5.6149,5.6125,5.6104,5.6104,5.6104,5.6104,5.6104,5.6104,5.6104,5.6104,5.6104,5.6104,5.6104,5.6104,5.6104,5.6104,5.5599,5.528,5.5439,5.5318,5.5049,5.4549,5.4357,5.4241,5.4241,5.4241,5.4241,5.4241,5.4087,5.3318,5.1774,5.1001,5.0565,5.0526,5.1145,5.1258,5.0762,5.2083,5.2564,5.2095,5.2905,5.3302,5.3324,5.2961,5.2896,0.0,0.0,0.0,0.0,0.0,0.0,0.0,0.0,0.0,0.0,0.0,5.9555,6.0829,0.0,6.1948,6.2796,6.3367,6.4019,6.4866,6.5806,6.5991,6.4837,6.5479,6.6304,6.7064,6.7513,6.8282,6.9552,6.9667,6.986,7.0283,7.0283,6.9937,6.909,6.914,6.8915,6.8391,6.8569,6.8416,6.7928,6.8421,6.7983,6.6752,6.6782,6.6317,6.5435,6.4225,6.3449,6.2948,6.1295,6.0171,5.9404,5.8906,5.7985,5.6956,5.7042,5.6783,5.6391,5.6391,5.6391,5.6391,5.6391,5.6391,5.6391,5.6391,5.6363,5.6285,5.6285,5.6244,5.6194,5.6194,5.6194,5.6194,5.6194,5.6194,5.6194,5.6194,5.6194,5.6194,5.6194,5.6194,5.6194,5.6194,5.6057,5.5925,5.5807,5.5892,5.5771,5.5262,5.5277,5.5347,5.5347,5.5347,5.5347,5.5347,5.4963,5.415,5.2837,5.2424,5.2277,5.2356,5.2743,5.2743,5.2358,5.3174,5.344,5.3107,5.3923,5.4372,5.4445,5.4915,5.4796,0.0,0.0,0.0,0.0,0.0,0.0,0.0,5.7866,5.8461,6.1017,6.1704,6.221,6.3567,6.4226,6.4576,6.4576,6.5306,6.6143,6.6839,6.7567,6.7801,6.7254,6.7493,6.7963,6.8699,6.8907,6.964,7.1144,7.1414,7.1806,7.2501,7.2539,7.1922,7.0572,7.0493,7.0078,6.9254,6.9351,6.9285,6.8992,6.9289,6.9244,6.8897,6.8229,6.7836,6.7606,6.5881,6.466,6.3787,6.2267,6.1268,6.0742,6.0547,5.9572,5.8213,5.8162,5.7617,5.6836,5.6836,5.6758,5.6601,5.6601,5.6601,5.6601,5.6601,5.6515,5.6449,5.6449,5.6368,5.6269,5.6269,5.6269,5.6269,5.6269,5.6269,5.6269,5.6269,5.6269,5.6269,5.6269,5.6269,5.6269,5.6269,5.6269,5.6217,5.5976,5.611,5.6149,5.5962,5.6113,5.6194,5.6194,5.6194,5.6194,5.6194,5.5574,5.485,5.4177,5.3985,5.3916,5.3939,5.3941,5.3941,5.3941,5.4097,5.4252,5.4346,5.5049,5.5457,5.5586,5.6289,5.6117,5.6172,5.6749,5.7168,5.8159,5.7887,5.8004,0.0,6.0227,6.0208,6.2054,6.3075,6.3662,6.3857,6.5756,6.7268,6.7268,6.8071,6.8793,6.8871,6.908,6.9673,7.093,6.9693,6.9091,6.9918,7.07,7.1555,7.2516,7.3259,7.369,7.3807,7.3807,7.369,7.3538,7.2853,7.2422,7.2322,7.158,7.0816,7.0028,7.0816,7.0402,6.8897,6.8809,6.8378,6.7612,6.5975,6.4883,6.4176,6.32,6.2771,6.2616,6.1835,6.0937,5.9999,5.9297,5.8515,5.7734,5.7734,5.7265,5.6601,5.6601,5.6601,5.6601,5.6601,5.6601,5.6562,5.6562,5.6561,5.656,5.656,5.656,5.656,5.656,5.656,5.656,5.656,5.656,5.656,5.656,5.656,5.656,5.656,5.656,5.6462,5.621,5.6183,5.6186,5.6169,5.6183,5.6194,5.6194,5.6194,5.6194,5.6194,5.6116,5.6049,5.6101,5.5363,5.5,5.5114,5.5115,5.5115,5.5115,5.5857,5.6287,5.6288,5.6367,5.6445,5.6445,5.6562,5.6523,5.7675,5.8132,5.8306,5.8708,5.8917,5.9465,6.1062,6.1536,6.2141,6.3981,6.5043,6.5786,6.6294,6.8088,6.9452,6.9452,7.0644,7.1591,7.1591,7.2068,7.2655,7.331,7.2707,7.2264,7.2413,7.2747,7.3327,7.4177,7.4569,7.4764,7.4764,7.4764,7.453,7.4028,7.381,7.3381,7.2815,7.2632,7.2039,7.108,7.1571,7.1399,7.07,7.019,6.9213,6.7888,6.6193,6.5308,6.5,6.4101,6.375,6.3672,6.2812,6.2226,6.1758,6.039,5.9375,5.8594,5.8086,5.7656,5.7265,5.6758,5.6601,5.6601,5.6601,5.6601,5.6601,5.6601,5.6601,5.6601,5.6601,5.6601,5.6601,5.6601,5.6601,5.6601,5.6601,5.6601,5.6601,5.6601,5.6601,5.6601,5.6601,5.6601,5.656,5.6454,5.6447,5.6394,5.6344,5.6383,5.6447,5.6447,5.6447,5.6447,5.6447,5.6447,5.6457,5.6513,5.6162,5.6011,5.6055,5.6055,5.6055,5.6055,5.6406,5.6601,5.6601,5.6601,5.6601,5.6601,5.6601,5.6601,5.8922,5.9086,5.8895,5.8953,5.962,6.0559,6.1653,6.2591,6.3733,6.5585,6.6836,6.7773,6.8437,7.0117,7.1406,7.1406,7.2695,7.3672,7.3672,7.4219,7.4687,7.4922,7.4961,7.4951,7.4879,7.4665,7.4779,7.5401,7.5674,7.583,7.583,7.583,7.552,7.4899,7.4781,7.4392,7.3649,7.3656,7.316,7.2152,7.2301,7.2226,7.1953,7.1094,6.9805,6.8125,6.6875,6.6172,6.5898,6.5039,6.4648,6.457,6.3711,6.3359,6.3164,6.168,6.043,5.9453,5.8828,5.8437,5.8164,5.7539,5.7305,5.7305,5.7305,5.7305,5.7305,5.7305,5.7305,5.7305,5.7305,5.7305,5.7305,5.7305,5.7148,5.6953,5.6953,5.6953,5.6875,5.664,5.6797,5.6875,5.664,5.6797,5.6875,5.664,5.6797,5.6834,5.6499,5.6558,5.6601,5.6601,5.6601,5.6601,5.6601,5.6601,5.6601,5.6601,5.6601,5.6601,5.6601,5.6601,5.6601,5.6601,5.6601,5.6601,5.6601,5.6601,5.6601,5.6601,5.6601,5.6601,6.0111,5.9548,5.894,5.9138,5.9805,6.0859,6.2578,6.3633,6.4765,6.6484,6.8164,6.9336,6.9453,7.1523,7.3203,7.3203,7.3984,7.457,7.457,7.457,7.4922,7.5742,7.5859,7.6172,7.7031,7.6328,7.5859,7.5898,7.6679,7.7148,7.7148,7.7148,7.7148,7.7109,7.6289,7.5859,7.582,7.4961,7.4101,7.3242,7.3242,7.2812,7.1953,7.1094,6.9805,6.8203,6.8125,6.7656,6.6797,6.5937,6.5547,6.5469,6.4609,6.4258,6.414,6.3242,6.1836,6.0351,6.0312,5.9805,5.914,5.914,5.9101,5.9101,5.9101,5.9101,5.9101,5.9101,5.9101,5.9101,5.9101,5.9101,5.9101,5.9101,5.8476,5.7851,5.7851,5.7851,5.7617,5.6758,5.7265,5.7578,5.6758,5.7305,5.7578,5.6719,5.7305,5.7539,5.6719,5.6601,5.6601,5.6601,5.6601,5.6601,5.6601,5.6601,5.6601,5.6601,5.6601,5.6601,5.6601,5.6601,5.6601,5.6601,5.6601,5.6601,5.6601,5.6601,5.6601,5.6601,5.6601,5.6601,5.9678,5.9329,5.9253,5.9843,6.1055,6.2422,6.3594,6.4961,6.6172,6.6797,6.8242,6.957,7.0195,7.2422,7.4336,7.4922,7.5742,7.6328,7.6328,7.6328,7.6445,7.6719,7.6758,7.6875,7.7187,7.6914,7.6758,7.6758,7.7031,7.7187,7.7187,7.7187,7.7187,7.7187,7.6914,7.6484,7.5898,7.5625,7.5039,7.414,7.3594,7.2851,7.1953,7.1094,7.039,6.9805,6.8672,6.8047,6.7695,6.6836,6.6445,6.6367,6.5508,6.4805,6.418,6.332,6.2265,6.1172,6.0586,6.0234,5.9922,5.9375,5.9219,5.9219,5.9219,5.9219,5.9219,5.9219,5.9219,5.9219,5.9219,5.9219,5.9219,5.9219,5.8984,5.875,5.875,5.875,5.8672,5.8398,5.8555,5.8672,5.8398,5.8555,5.8672,5.8359,5.7578,5.6914,5.664,5.6601,5.6601,5.6601,5.6601,5.6601,5.6601,5.6601,5.6601,5.6601,5.6601,5.6601,5.6601,5.6601,5.6601,5.6601,5.6601,5.6601,5.6601,5.6601,5.6601,5.6601,5.6601,5.6601,5.9336,5.9414,5.9765,6.0273,6.1719,6.3242,6.4101,6.539,6.6523,6.6836,6.8242,6.957,7.0156,7.2656,7.4765,7.5351,7.6445,7.7187,7.7187,7.7187,7.7187,7.7187,7.7187,7.7187,7.7187,7.7187,7.7187,7.7187,7.7187,7.7187,7.7187,7.7187,7.7187,7.7187,7.7187,7.6914,7.6367,7.6367,7.5781,7.4609,7.3711,7.2851,7.1992,7.1406,7.0976,7.0625,6.957,6.875,6.8164,6.7617,6.7187,6.6836,6.6289,6.5703,6.5117,6.4258,6.3555,6.289,6.1367,6.0859,6.0781,6.0273,6.0078,6.0078,6.0078,6.0078,6.0078,6.0078,6.0078,6.0078,6.0078,6.0078,6.0078,6.0078,5.9844,5.9648,5.9648,5.9648,5.9531,5.9258,5.9414,5.9531,5.9258,5.9219,5.9297,5.9609,5.8437,5.7539,5.7539,5.7265,5.707,5.707,5.6797,5.6601,5.6601,5.6601,5.6601,5.6601,5.6601,5.6601,5.6601,5.6601,5.6601,5.6601,5.6601,5.6758,5.707,5.707,5.7226,5.7539,5.7539,5.7539,5.9258,5.9805,6.043,6.0508,6.1797,6.3281,6.418,6.5,6.582,6.664,6.8164,6.9375,6.9414,7.2265,7.4609,7.4609,7.6055,7.7187,7.7187,7.7187,7.7187,7.7187,7.7187,7.7187,7.7187,7.7187,7.7187,7.7187,7.7187,7.7187,7.7187,7.7187,7.7187,7.7187,7.7187,7.7187,7.7187,7.7187,7.6328,7.4609,7.375,7.289,7.1992,7.1992,7.1562,7.0742,7.0703,6.9805,6.832,6.8281,6.7734,6.6953,6.6953,6.6914,6.6719,6.5898,6.5586,6.5195,6.2695,6.1797,6.1758,6.1758,6.1758,6.1719,6.1719,6.1719,6.1719,6.1719,6.1719,6.1719,6.1719,6.1719,6.1719,6.1719,6.1055,6.0469,6.0469,6.0469,6.0234,5.9492,5.9961,6.0273,5.9453,5.9375,5.9648,6.0351,5.9805,5.9297,5.9219,5.8476,5.7969,5.7969,5.7226,5.6719,5.6719,5.6719,5.6719,5.6719,5.6719,5.6719,5.6719,5.6719,5.6719,5.6719,5.6719,5.7148,5.7969,5.7969,5.8398,5.9219,5.9219,5.9219,5.9922,6.0234,6.0703,6.1992,6.3164,6.4219,6.5078,6.543,6.5664,6.5898,6.7305,6.8515,6.8515,7.1875,7.4609,7.4609,7.6055,7.7187,7.7187,7.7187,7.7187,7.7187,7.7187,7.7187,7.7187,7.7187,7.7187,7.7187,7.7187,7.7187,7.7187,7.7187,7.7187,7.7187,7.7187,7.7187,7.7187,7.7187,7.6328,7.4609,7.4375,7.3476,7.1992,7.1992,7.1875,7.164,7.0976,7.0469,7.0,6.9375,6.8594,6.7851,6.7851,6.707,6.5898,6.5664,6.5195,6.4531,6.3867,6.3203,6.2656,6.2656,6.2226,6.1719,6.1719,6.1719,6.1719,6.1719,6.1719,6.1719,6.1719,6.1719,6.1719,6.1719,6.1523,6.1367,6.1367,6.1367,6.1328,6.1094,6.1758,6.207,6.1211,6.1601,6.1875,6.1445,6.1172,6.0625,5.9375,5.9023,5.8867,5.8867,5.8672,5.8555,5.8555,5.8555,5.8555,5.8555,5.8555,5.8555,5.8555,5.8555,5.8555,5.8555,5.8555,5.8633,5.8867,5.8867,5.8984,5.9219,5.9219,5.9219,6.0742,6.125,6.1875,6.3242,6.4219,6.5,6.5508,6.5898,6.6172,6.6172,6.7578,6.8555,6.7773,7.1133,7.3906,7.3515,7.5234,7.6758,7.7148,7.7187,7.7187,7.7187,7.7187,7.7187,7.7187,7.7187,7.7187,7.7187,7.7187,7.7187,7.7187,7.7187,7.7187,7.7187,7.7187,7.7187,7.7187,7.7187,7.6523,7.5156,7.4765,7.3906,7.2578,7.2187,7.1992,7.1953,7.1484,7.1055,7.0664,7.0156,6.9492,6.8711,6.875,6.793,6.6758,6.6758,6.6172,6.543,6.543,6.4883,6.4062,6.3672,6.2969,6.2265,6.2265,6.1992,6.1719,6.1719,6.1992,6.2265,6.2265,6.2539,6.2851,6.2851,6.2851,6.2851,6.2851,6.2851,6.2851,6.2851,6.3242,6.3437,6.293,6.3242,6.3398,6.289,6.2851,6.2343,6.0967,6.0154,5.9726,5.9726,5.9414,5.9219,5.9219,5.9219,5.9219,5.9219,5.9219,5.9178,5.9051,5.905,5.9042,5.8977,5.8975,5.9172,5.9562,5.9562,5.9757,6.011,6.011,6.011,6.1797,6.2617,6.3398,6.4258,6.4961,6.5508,6.5703,6.6172,6.6601,6.6719,6.8125,6.8789,6.7031,7.0234,7.289,7.2109,7.4101,7.6055,7.707,7.7187,7.7187,7.7187,7.7187,7.7187,7.7187,7.7187,7.7187,7.7187,7.7187,7.7187,7.7187,7.7187,7.7187,7.7187,7.7187,7.7187,7.7187,7.7187,7.6758,7.5898,7.5117,7.4336,7.3437,7.2578,7.2187,7.2187,7.2031,7.1562,7.0859,7.0859,7.0351,6.957,6.9648,6.914,6.8359,6.8359,6.7812,6.707,6.707,6.6484,6.5585,6.4765,6.3867,6.3164,6.3164,6.2656,6.2031,6.2031,6.2578,6.3164,6.3164,6.3711,6.4297,6.4297,6.4297,6.4297,6.4297,6.4297,6.4297,6.4296,6.4374,6.4373,6.4253,6.4331,6.437,6.4253,6.4214,6.3931,6.3057,6.1622,6.0662,6.0543,5.9917,5.9488,5.9488,5.9488,5.9488,5.9488,5.9488,5.9397,5.922,5.9217,5.9174,5.9054,5.9051,5.9404,6.0188,6.0188,6.0541,6.1286,6.1286,6.1286,6.3437,6.3945,6.4297,6.5156,6.4961,6.4883,6.6367,6.5664,6.4961,6.5664,6.7226,6.789,6.6133,6.9336,7.2187,7.2031,7.3594,7.539,7.6992,7.7187,7.7187,7.7187,7.7187,7.7187,7.7187,7.7187,7.7187,7.7187,7.7187,7.7187,7.7187,7.7187,7.7187,7.7187,7.7187,7.7187,7.7187,7.7187,7.6758,7.5898,7.5742,7.5234,7.4336,7.3476,7.3086,7.3047,7.2305,7.1914,7.1758,7.1758,7.125,7.0469,7.0508,7.0,6.9258,6.9219,6.8672,6.7969,6.7969,6.7296,6.6294,6.5584,6.4765,6.4062,6.4062,6.3984,6.3867,6.3867,6.3945,6.4062,6.4062,6.418,6.4297,6.4297,6.4297,6.4297,6.4297,6.4297,6.4256,6.4145,6.4682,6.4857,6.4021,6.4471,6.4704,6.4,6.3884,6.3834,6.3653,6.291,6.2085,6.1215,6.1008,6.0931,6.0931,6.0931,6.0931,6.0931,6.0931,6.0921,6.0895,6.0895,6.0881,6.0855,6.0855,6.0933,6.105,6.105,6.117,6.1286,6.1286,6.1286,6.4492,6.4961,6.5195,6.6055,6.5625,6.5312,6.6601,6.5898,6.5234,6.6094,6.7656,6.8281,6.6601,6.9414,7.1992,7.1992,7.3476,7.5195,7.6953,7.7187,7.7187,7.7187,7.7187,7.7187,7.7187,7.7187,7.7187,7.7187,7.7187,7.7187,7.7187,7.7187,7.7187,7.7187,7.7187,7.7187,7.7187,7.7187,7.6992,7.6562,7.6133,7.5664,7.5234,7.3906,7.3281,7.3242,7.2383,7.1992,7.1992,7.1992,7.1758,7.1367,7.1367,7.0859,7.0117,7.0078,6.9216,6.803,6.803,6.7364,6.6427,6.6127,6.5437,6.4735,6.4735,6.4382,6.4031,6.4031,6.4382,6.4735,6.4735,6.5047,6.5398,6.5398,6.5398,6.5398,6.5398,6.5398,6.5386,6.5292,6.5594,6.573,6.5226,6.5486,6.5641,6.521,6.5132,6.4944,6.4377,6.4023,6.3534,6.2678,6.26,6.26,6.26,6.26,6.26,6.26,6.26,6.2368,6.1845,6.1803,6.1562,6.1061,6.1057,6.1057,6.1057,6.1057,6.1057,6.1057,6.1057,6.1057,6.5234,6.5742,6.6055,6.6719,6.6094,6.5586,6.664,6.6094,6.5625,6.668,6.8242,6.8945,6.7461,6.9687,7.1836,7.2226,7.3594,7.5195,7.6953,7.7344,7.7422,7.7226,7.7187,7.7187,7.7187,7.7187,7.7187,7.7187,7.7187,7.7187,7.7187,7.7187,7.7187,7.7187,7.7187,7.7187,7.7187,7.7187,7.7187,7.7187,7.6523,7.6172,7.6133,7.457,7.375,7.3515,7.2656,7.2187,7.1992,7.1992,7.1992,7.1992,7.1992,7.1562,7.0976,7.0976,6.991,6.8413,6.8258,6.7509,6.6563,6.6408,6.5887,6.5369,6.5369,6.4899,6.4348,6.4348,6.4857,6.5369,6.5369,6.5878,6.6426,6.662,6.6543,6.6465,6.662,6.6504,6.6377,6.6337,6.633,6.6316,6.6314,6.6307,6.6307,6.6307,6.6307,6.5975,6.5127,6.502,6.4822,6.4326,6.3915,6.3685,6.3685,6.3685,6.3685,6.3685,6.3685,6.3343,6.254,6.2491,6.2125,6.1364,6.1172,6.1172,6.1358,6.1172,6.1095,6.1095,6.1095,6.0979,6.5547,6.6172,6.6797,6.6875,6.5664,6.4844,6.6523,6.5625,6.4883,6.6562,6.8281,6.9219,6.8242,6.957,7.1328,7.293,7.3984,7.5195,7.6953,7.789,7.8086,7.7305,7.7187,7.7187,7.7187,7.7187,7.7187,7.7187,7.7187,7.7187,7.7187,7.7187,7.7187,7.7187,7.7187,7.7187,7.7187,7.7187,7.7187,7.7187,7.7109,7.707,7.7031,7.6094,7.5234,7.4414,7.3555,7.2734,7.1992,7.1992,7.1992,7.1992,7.1992,7.1953,7.1875,7.1875,7.1199,7.0167,6.9351,6.8301,6.7188,6.6374,6.6206,6.627,6.627,6.6231,6.6153,6.6153,6.6231,6.627,6.627,6.6348,6.6581,6.7314,6.6928,6.6581,6.7314,6.6928,6.6341,6.6148,6.6142,6.607,6.5967,6.5952,6.5952,6.5952,6.5952,6.5901,6.5793,6.5793,6.5761,6.5714,6.4283,6.3359,6.3359,6.3359,6.3359,6.3359,6.3359,6.3309,6.3202,6.3202,6.3152,6.3083,6.2364,6.2326,6.3083,6.2326,6.1979,6.1979,6.1979,6.1556,6.5469,6.625,6.6914,6.6914,6.5586,6.4765,6.6484,6.5976,6.5586,6.7305,6.9023,7.0117,6.9765,7.0664,7.2031,7.3789,7.4375,7.5039,7.625,7.7187,7.7383,7.6523,7.6875,7.7187,7.7187,7.7187,7.7187,7.7187,7.7187,7.7187,7.7187,7.7187,7.7187,7.7187,7.7187,7.7187,7.7187,7.7187,7.7187,7.7187,7.7187,7.7187,7.7187,7.6289,7.543,7.4531,7.3672,7.2812,7.1992,7.1992,7.1949,7.1811,7.1811,7.1786,7.1696,7.1696,7.1032,7.0028,6.9179,6.8164,6.7093,6.6244,6.6019,6.6108,6.6108,6.6108,6.6108,6.6108,6.6108,6.6108,6.6108,6.6108,6.6301,6.7109,6.7031,6.7031,6.7916,6.7833,6.7569,6.7491,6.7467,6.7316,6.6731,6.6635,6.6442,6.5981,6.5904,6.5904,6.5904,6.5904,6.5904,6.5904,6.5282,6.4859,6.4859,6.4859,6.4859,6.4859,6.4859,6.4628,6.4089,6.4083,6.3852,6.3314,6.2974,6.2974,6.3314,6.2974,6.282,6.282,6.282,6.2627,6.5039,6.5859,6.6562,6.6836,6.5976,6.539,6.6601,6.6601,6.6719,6.7969,6.9531,7.0703,7.0703,7.1406,7.25,7.3984,7.4414,7.5,7.6133,7.7031,7.7461,7.707,7.7148,7.7305,7.7578,7.7344,7.7187,7.7187,7.7187,7.7187,7.7187,7.7187,7.7187,7.7187,7.7187,7.7187,7.7187,7.7187,7.7187,7.7187,7.7187,7.7187,7.7187,7.6562,7.582,7.4922,7.3981,7.3119,7.2259,7.1974,7.1783,7.1644,7.1644,7.1586,7.1481,7.1481,7.0968,7.0176,6.9333,6.853,6.7744,6.6898,6.6628,6.6628,6.6628,6.6282,6.5904,6.5904,6.5904,6.5942,6.6211,6.625,6.6519,6.7596,6.7667,6.7705,6.8584,6.8584,6.8391,6.8391,6.8391,6.8199,6.759,6.7475,6.7282,6.6705,6.6628,6.6628,6.6628,6.6628,6.6551,6.6282,6.625,6.6173,6.5904,6.5904,6.5904,6.5904,6.5904,6.5628,6.5013,6.4974,6.4705,6.4083,6.3814,6.3814,6.4083,6.3814,6.366,6.366,6.366,6.3545,6.4297,6.4961,6.582,6.668,6.6875,6.6875,6.6914,6.7578,6.8164,6.8203,6.9531,7.0703,7.0703,7.1406,7.2305,7.3164,7.4023,7.5195,7.6953,7.793,7.8789,7.957,7.8203,7.7539,7.8398,7.7695,7.7187,7.7187,7.7187,7.7187,7.7187,7.7187,7.7187,7.7187,7.7187,7.7187,7.7187,7.7187,7.7187,7.7187,7.7187,7.7187,7.7187,7.7187,7.6719,7.582,7.4734,7.3804,7.2897,7.1911,7.1485,7.1485,7.1485,7.1481,7.1481,7.1481,7.1352,7.1061,7.0176,6.9793,6.9513,6.866,6.8353,6.8353,6.8353,6.7205,6.5904,6.5904,6.5904,6.6096,6.6865,6.7096,6.752,6.9244,6.9007,6.8622,6.9513,6.9007,6.8391,6.8391,6.8391,6.8391,6.8391,6.8391,6.8391,6.8391,6.8353,6.8353,6.8353,6.8353,6.8045,6.7173,6.7096,6.6789,6.5981,6.5904,6.5904,6.5904,6.5904,6.5904,6.5897,6.5897,6.5859,6.5859,6.5013,6.5013,6.5859,6.5013,6.4589,6.4589,6.4589,6.4122,6.5039,6.582,6.6562,6.6836,6.6445,6.6328,6.7539,6.8008,6.8515,6.9687,7.0781,7.1601,7.1601,7.2305,7.2969,7.3242,7.4023,7.5,7.6133,7.707,7.793,7.8789,7.8398,7.7969,7.7656,7.7344,7.7187,7.7187,7.7187,7.7187,7.7187,7.7187,7.7187,7.7187,7.7187,7.7187,7.7187,7.7187,7.7187,7.7187,7.7187,7.7144,7.6996,7.6996,7.6459,7.5445,7.4508,7.3589,7.2723,7.1855,7.1401,7.1299,7.1299,7.1193,7.1097,7.1097,7.1038,7.0869,7.006,6.9759,6.9552,6.866,6.8391,6.8391,6.8391,6.7628,6.6712,6.6712,6.7167,6.7667,6.7936,6.7968,6.8282,6.9436,6.9475,6.9513,7.036,7.0283,7.0129,7.0129,7.0129,6.9937,6.9398,6.9276,6.9084,6.8507,6.8391,6.8391,6.8391,6.8391,6.8276,6.8013,6.7475,6.6789,6.5981,6.5904,6.5904,6.5904,6.5904,6.5904,6.5904,6.5904,6.5904,6.5904,6.5628,6.5628,6.5904,6.5628,6.5474,6.5474,6.5474,6.532,6.5469,6.6015,6.6484,6.6836,6.6953,6.7226,6.8008,6.8945,6.9844,7.0547,7.1406,7.1992,7.1992,7.2422,7.293,7.3242,7.3476,7.4258,7.6133,7.6875,7.7539,7.8398,7.8789,7.8359,7.6875,7.6992,7.7187,7.7187,7.7187,7.7187,7.7187,7.7187,7.7187,7.7187,7.7187,7.7187,7.7187,7.7187,7.7147,7.7099,7.7099,7.6991,7.6773,7.6773,7.6412,7.5754,7.4786,7.4088,0.0,7.2627,7.1985,7.1593,7.1593,7.1319,7.0898,7.0898,7.0898,7.0821,7.0321,7.0167,7.0052,6.9507,6.9353,6.9276,6.8968,6.8282,6.759,6.759,6.7975,6.8468,6.8814,6.8891,6.9084,6.9937,7.0167,7.0283,7.0783,7.0898,7.0898,7.0898,7.0898,7.0744,7.0244,7.0167,6.9975,6.9436,6.9353,6.9353,6.9353,6.9353,6.9237,6.893,6.8398,6.7744,6.6898,6.6551,6.6365,6.6365,6.6667,6.6859,6.6859,6.6513,6.6365,6.6365,6.6051,6.5904,6.5904,6.5904,6.5904,6.5904,6.5904,6.5904,0.0,6.5703,6.5898,6.6719,6.8125,6.914,6.8437,7.0156,0.0,7.0937,7.1445,7.2031,7.207,7.2109,7.2383,7.3242,7.2656,7.3281,7.6719,7.7305,7.7656,7.8398,7.914,7.8672,7.6211,7.6719,7.7187,7.7187,7.7187,7.7187,7.7187,7.7187,7.7187,7.7187,7.7187,7.7187,7.7187,7.7187,7.7099,7.6882,7.6872,7.6765,7.656,7.656,7.6552,7.649,7.5454,7.4995,7.4895,7.3928,7.3014,7.229,7.229,7.1745,7.0975,7.0975,7.0937,7.0898,7.0898,7.0898,7.0898,7.0898,7.0898,7.0744,7.0014,6.9199,6.8584,6.8507,6.8545,6.8776,6.959,6.9783,6.9975,7.0706,7.0898,7.0898,7.0898,7.0898,7.0898,7.0898,7.0898,7.0898,7.0898,7.0898,7.0898,7.0898,7.0898,7.0898,7.0898,7.0898,7.0591,6.986,6.9744,6.936,6.8545,6.7705,6.7173,6.7173,6.7936,6.8391,6.8391,6.7552,6.7096,6.7096,6.6327,6.5904,6.5904,6.5904,6.5904,6.5904,6.5904,6.5904,6.6601,0.0,6.664,6.6836,6.7695,6.8594,0.0,7.0117,7.1133,7.1601,7.1875,7.2187,7.2851,7.3008,7.3281,7.414,7.3555,7.3984,7.6797,7.8281,7.8945,7.8555,7.8672,7.8281,7.7031,7.707,7.7187,7.7187,7.7187,7.7187,7.7187,7.7187,7.7145,7.6991,7.6951,7.7051,7.7187,7.7052,7.6942,7.6882,7.6746,7.6587,7.6361,7.6361,7.6278,7.6077,7.5181,7.4762,7.4717,7.3857,7.3392,7.3199,7.3199,7.2668,7.1905,7.1905,7.1475,7.0898,7.0898,7.0898,7.0898,7.0898,7.0898,7.086,7.0667,7.0475,7.0167,6.959,6.986,7.036,7.0552,7.0629,7.0667,7.086,7.0898,7.0898,7.0898,7.0898,7.0898,7.0898,7.0898,7.0898,7.0898,7.0898,7.0898,7.0898,7.0898,7.0898,7.0898,7.0898,7.0821,7.0629,7.0052,6.9629,6.9391,6.8584,6.8084,6.8084,6.8276,6.8391,6.8391,6.7552,6.7096,6.7096,6.6327,6.5904,6.5904,6.5904,6.5904,6.5904,6.5904,6.5904,6.6914,6.7187,6.75,6.75,6.8164,6.8906,6.9375,6.9844,7.0273,7.0742,7.1133,7.1562,7.2031,7.2773,7.3594,7.4453,7.4219,7.4687,7.6875,7.832,7.8984,7.8555,7.8515,7.8164,7.7265,7.7187,7.7187,7.7187,7.7103,7.7054,7.7055,7.6951,7.6868,7.6763,7.676,7.6795,7.6929,7.6834,7.6727,7.6607,7.6496,7.6379,7.616,7.616,7.6095,7.5976,7.5515,7.5284,7.5245,7.4822,7.4392,7.4046,7.4046,7.3546,7.2745,7.2367,7.1905,7.1437,7.1052,7.0898,7.0898,7.0898,7.0898,7.0898,7.0898,7.0898,7.0821,7.036,7.0552,7.0898,7.0898,7.0898,7.0898,7.0898,7.0898,7.0898,7.0898,7.0898,7.0898,7.0898,7.0898,7.0898,7.0898,7.0898,7.0898,7.0898,7.0898,7.0898,7.0898,7.0898,7.0898,7.0898,7.0514,7.0244,7.0244,6.9821,6.9391,6.9007,6.9353,6.9552,6.9552,6.8744,6.7936,6.7135,6.6327,6.5904,6.5904,6.5904,6.6096,6.6442,6.6442,6.6667,6.6875,6.7617,6.832,6.8086,6.8867,6.9609,6.9375,6.9492,6.9648,6.9492,7.0117,7.0781,7.1055,7.2305,7.3633,7.4648,7.4687,7.5117,7.6601,7.7539,7.8164,7.8281,7.8281,7.8008,7.7225,7.7147,7.7145,7.7103,7.6941,7.6856,7.6858,7.6705,7.6606,7.6576,7.6537,7.6521,7.6527,7.656,7.6479,7.63,7.6256,7.6166,7.6015,7.6015,7.6015,7.6015,7.6015,7.6015,7.6015,7.6015,7.5553,7.4892,7.4892,7.4392,7.3584,7.2706,7.2322,7.2098,7.1206,7.0898,7.0898,7.0898,7.0898,7.0898,7.0898,7.0898,7.0898,7.0898,7.0898,7.0898,7.0898,7.0898,7.0898,7.0898,7.0898,7.0898,7.0898,7.0898,7.0898,7.0898,7.0898,7.0898,7.0898,7.0898,7.0898,7.0898,7.0898,7.0898,7.0898,7.0898,7.0898,7.0898,7.0898,7.0898,7.0898,7.0898,7.0591,6.9937,7.0514,7.0821,7.0706,7.0052,6.8936,6.7327,6.6628,6.6282,6.6282,6.6282,6.6628,6.7282,6.7282,6.7705,6.6719,6.8047,6.8867,6.7461,6.8828,7.0156,6.8711,6.9492,7.0312,6.957,7.0117,7.1133,7.2617,7.3125,7.3828,7.543,7.5078,7.4687,7.4961,7.5742,7.6562,7.7305,7.7383,7.7262,7.6987,7.6939,7.6866,7.6715,7.6641,7.6663,7.6667,7.6639,7.6539,7.6364,7.6359,7.6244,7.6075,7.6277,7.6343,7.63,7.6134,7.6034,7.6015,7.6015,7.6015,7.6015,7.6015,7.6015,7.6015,7.6015,7.5938,7.5784,7.5784,7.5284,7.443,7.3584,7.2822,7.2098,7.1206,7.0898,7.0898,7.0898,7.0898,7.0898,7.0898,7.0898,7.0898,7.0898,7.0898,7.0898,7.0898,7.0898,7.0898,7.0898,7.0898,7.0898,7.0898,7.0898,7.0898,7.0898,7.0898,7.0898,7.0898,7.0898,7.0898,7.0898,7.0898,7.0898,7.0898,7.0898,7.0898,7.0898,7.0898,7.0898,7.0898,7.0898,7.086,7.0706,7.0821,7.0591,6.9898,6.9783,6.9244,6.8237,6.8084,6.8007,6.8007,6.8007,6.8084,6.8199,6.8199,6.8276,6.5976,6.7109,6.7851,6.7109,6.8828,7.0508,6.9726,6.9765,6.9883,6.9492,7.0078,7.1094,7.2344,7.2969,7.3711,7.5,7.5273,7.5312,7.5312,7.6055,7.6758,7.7148,7.7101,7.6999,7.6922,7.6785,7.6709,7.6628,7.6518,7.6443,7.6438,7.6343,7.6231,7.6154,7.6154,7.6075,7.6015,7.6075,7.6154,7.6154,7.6024,7.6015,7.6015,7.6015,7.6015,7.6015,7.6015,7.6015,7.6015,7.6015,7.6015,7.6015,7.6015,7.5745,7.5245,7.3969,7.2937,7.2098,7.1206,7.0898,7.0898,7.0898,7.0898,7.0898,7.0898,7.0898,7.0898,7.0898,7.0898,7.0898,7.0898,7.0898,7.0898,7.0898,7.0898,7.0898,7.0898,7.0898,7.0898,7.0898,7.0898,7.0898,7.0898,7.0898,7.0898,7.0898,7.0898,7.0898,7.0898,7.0898,7.0898,7.0898,7.0898,7.0898,7.0898,7.0898,7.0898,7.0898,7.0898,7.0744,7.036,6.9937,6.9513,6.9122,6.8622,6.8391,6.8391,6.8391,6.8622,6.9084,6.9084,6.9353,6.5351,6.625,6.6914,6.6914,6.8515,7.0117,7.0117,6.9609,6.9101,6.9101,6.9961,7.0976,7.1836,7.289,7.3906,7.4765,7.5117,7.5429,7.5778,7.6402,7.6868,7.7055,7.6929,7.6829,7.6757,7.66,7.6527,7.647,7.6322,7.6225,7.6219,7.6093,7.6015,7.6015,7.6015,7.6015,7.6015,7.6015,7.6015,7.6015,7.6015,7.6015,7.6015,7.6015,7.6015,7.6015,7.6015,7.6015,7.6015,7.6015,7.6015,7.6015,7.6015,7.5861,7.5553,7.4238,7.3129,7.2098,7.1437,7.1052,7.0898,7.0898,7.0898,7.0898,7.0898,7.0898,7.0898,7.0898,7.0898,7.0898,7.0898,7.0898,7.0898,7.0898,7.1052,7.1206,7.1206,7.1206,7.1206,7.1206,7.1052,7.0898,7.0898,7.0898,7.0898,7.0898,7.0898,7.0898,7.0898,7.0898,7.0898,7.0898,7.0898,7.0898,7.0898,7.0898,7.0898,7.0898,7.0898,7.0898,7.0898,7.0321,6.9975,6.9975,6.9314,6.9007,6.9007,6.9007,6.9314,6.9975,6.9975,7.0321,6.5351,6.625,6.6914,6.6914,6.7656,6.8398,6.8398,6.832,6.8281,6.8281,6.957,7.0976,7.1836,7.3359,7.4805,7.5664,7.4492,7.3981,7.5415,7.5677,7.5955,7.6563,7.6611,7.6529,7.6346,7.6343,7.6254,7.6045,7.6034,7.602,7.602,7.5991,7.6015,7.6015,7.6015,7.6015,7.6015,7.6015,7.6015,7.6015,7.6015,7.6015,7.6015,7.6015,7.6015,7.6015,7.6015,7.6015,7.6015,7.6015,7.6015,7.6015,7.6015,7.5515,7.4776,7.4661,7.3591,7.2175,7.2136,7.1598,7.0898,7.0898,7.0898,7.0898,7.0898,7.0898,7.0898,7.0898,7.0898,7.0898,7.0898,7.0898,7.0898,7.0898,7.1514,7.2098,7.2098,7.2098,7.2098,7.2098,7.1437,7.0898,7.0898,7.0898,7.0898,7.0898,7.0898,7.0898,7.0898,7.0898,7.0898,7.0898,7.0898,7.0898,7.0898,7.0898,7.0898,7.0898,7.0898,7.0898,7.0898,7.0821,7.0821,7.0821,7.0744,7.0706,7.0706,7.0706,7.0744,7.0821,7.0821,7.0821,6.4531,6.543,6.5976,6.543,6.6367,6.7656,6.8711,6.8984,6.9297,7.0351,7.1055,7.1756,7.2478,7.3275,7.3865,7.4077,7.3993,7.4141,7.4696,7.5606,7.6307,7.6551,7.6501,7.6371,7.6311,7.6203,7.6093,7.6022,7.6015,7.6015,7.6015,7.6015,7.6015,7.6015,7.6015,7.6015,7.6015,7.6015,7.6015,7.6015,7.6015,7.6015,7.6015,7.6015,7.6015,7.6015,7.6015,7.6015,7.6015,7.6015,7.6015,7.6015,7.6015,7.5784,7.5438,7.4892,7.3969,7.2937,7.2406,7.1636,7.0898,7.0898,7.0898,7.0898,7.0898,7.0898,7.0898,7.0898,7.0898,7.0898,7.0898,7.1283,7.1552,7.1014,7.1975,7.2706,7.1629,7.2245,7.2706,7.1591,7.1552,7.1552,7.0975,7.0898,7.0898,7.0898,7.0898,7.0898,7.0898,7.0898,7.0898,7.0898,7.0898,7.0898,7.0898,7.0898,7.0898,7.0898,7.0898,7.0898,7.0898,7.0898,7.0898,7.0898,7.0898,7.0898,7.0898,7.0898,7.0898,7.0898,7.0898,7.0898,6.414,6.4922,6.5469,6.4844,6.5625,6.6992,6.8945,6.9258,6.9492,7.0937,7.1365,7.1865,7.2899,7.2953,7.3032,7.3722,7.4102,7.4431,7.4856,7.5832,7.6497,7.6415,7.6278,7.6222,7.6189,7.6093,7.6015,7.6015,7.6015,7.6015,7.6015,7.6015,7.6015,7.6015,7.6015,7.6015,7.6015,7.6015,7.6015,7.6015,7.6015,7.6015,7.6015,7.6015,7.6015,7.6015,7.6015,7.6015,7.6015,7.6015,7.6015,7.6015,7.6015,7.6015,7.5938,7.5322,7.4584,7.3776,7.3206,7.2437,7.1706,7.1706,7.1706,7.1706,7.1706,7.1706,7.1706,7.1706,7.1706,7.1706,7.1706,7.1745,7.1783,7.1745,7.2437,7.2899,7.2245,7.2853,7.3161,7.1937,7.1975,7.1905,7.1052,7.0898,7.0898,7.0898,7.0898,7.0898,7.0898,7.0898,7.0898,7.0898,7.0898,7.0898,7.0898,7.0898,7.0898,7.0898,7.0898,7.0898,7.0898,7.0898,7.0898,7.0898,7.0898,7.0898,7.0898,7.0898,7.0898,7.0898,7.0898,7.0898,6.4297,6.4922,6.5586,6.5586,6.5586,6.6289,6.8789,6.8789,6.8437,6.9336,7.0061,7.1096,7.2967,7.2483,7.2633,7.5159,7.4843,7.4756,7.6103,7.63,7.6219,7.602,7.6015,7.6015,7.6015,7.6015,7.6015,7.6015,7.6015,7.6015,7.6015,7.6015,7.6015,7.6015,7.6015,7.6015,7.6015,7.6015,7.6015,7.6015,7.6015,7.6015,7.6015,7.6015,7.6015,7.6015,7.6015,7.6015,7.6015,7.6015,7.6015,7.6015,7.6015,7.6015,7.6015,7.6015,7.5438,7.47,7.47,7.4161,7.3507,7.3507,7.3507,7.3507,7.3507,7.3507,7.3507,7.3507,7.3507,7.3507,7.3507,7.2206,7.136,7.3084,7.286,7.2668,7.4315,7.4084,7.3507,7.3507,7.2783,7.1944,7.1052,7.0898,7.0898,7.0898,7.0898,7.0898,7.0898,7.0898,7.0898,7.0898,7.0898,7.0898,7.0898,7.0898,7.0898,7.0898,7.0898,7.0898,7.0898,7.0898,7.0898,7.0898,7.0898,7.0898,7.0898,7.0898,7.0898,7.0898,7.0898,7.0898,6.3555,6.4023,6.4531,6.3906,6.5625,6.7461,6.7617,6.793,6.8789,7.0859,7.1405,7.1865,7.2897,7.2444,7.2319,7.3381,7.3847,7.4191,7.4439,7.5406,7.6066,7.6029,7.6015,7.6015,7.6015,7.6015,7.6015,7.6015,7.6015,7.6015,7.6015,7.6015,7.6015,7.6015,7.6015,7.6015,7.6015,7.6015,7.6015,7.6015,7.6015,7.6015,7.6015,7.6015,7.6015,7.6015,7.6015,7.6015,7.6015,7.6015,7.6015,7.6015,7.6015,7.6015,7.6015,7.6015,7.5438,7.47,7.47,7.4161,7.3507,7.3507,7.3507,7.3507,7.3507,7.3507,7.3507,7.3507,7.3507,7.3623,7.4199,7.3546,7.2853,7.3392,7.4207,7.4707,7.4007,7.4584,7.4892,7.3738,7.3276,7.2822,7.1975,7.1321,7.0898,7.0898,7.0898,7.1129,7.1745,7.1828,7.1828,7.1828,7.1283,7.0898,7.0898,7.0898,7.0898,7.0898,7.0898,7.0898,7.0898,7.1475,7.1514,7.0898,7.1514,7.1514,7.0898,7.0898,7.1206,7.179,7.1206,7.1245,6.3984,6.4414,6.4921,6.5343,6.6833,6.8242,6.8398,6.8828,6.9726,7.1601,7.1677,7.1623,7.2359,7.1821,7.1591,7.2462,7.3333,7.3946,7.409,7.5186,7.6015,7.6015,7.6015,7.6015,7.6015,7.6015,7.6015,7.6015,7.6015,7.6015,7.6015,7.6015,7.6015,7.6015,7.6015,7.6015,7.6015,7.6015,7.6015,7.6015,7.6015,7.6015,7.6015,7.6015,7.6015,7.6015,7.6015,7.6015,7.6015,7.6015,7.6015,7.6015,7.6015,7.6015,7.6015,7.6015,7.5668,7.5207,7.5207,7.4892,7.4469,7.4469,7.4469,7.4469,7.4469,7.4469,7.4469,7.4469,7.4469,7.4584,7.5091,7.4861,7.4469,7.4469,7.4745,7.4892,7.4584,7.5014,7.5168,7.4161,7.3969,7.3699,7.286,7.2283,7.1937,7.1937,7.1937,7.2129,7.2668,7.2706,7.2706,7.2706,7.2245,7.1783,7.1437,7.1398,7.1283,7.0937,7.1206,7.1398,7.1398,7.1905,7.2129,7.1937,7.2437,7.2476,7.1937,7.1937,7.2206,7.2706,7.2168,7.2206,6.5039,6.539,6.5934,6.8396,6.8697,6.8867,7.0469,7.0781,7.1015,7.1796,7.1272,7.0844,7.1565,7.1017,7.0905,7.2269,7.3225,7.4009,7.4641,7.5438,7.6015,7.6015,7.6015,7.6015,7.6015,7.6015,7.6015,7.6015,7.6015,7.6015,7.6015,7.6015,7.6015,7.6015,7.6015,7.6015,7.6015,7.6015,7.6015,7.6015,7.6015,7.6015,7.6015,7.6015,7.6015,7.6015,7.6015,7.6015,7.6015,7.6015,7.6015,7.6015,7.6015,7.6015,7.6015,7.6015,7.6015,7.6015,7.6015,7.6015,7.6015,7.6015,7.6015,7.6015,7.6015,7.6015,7.6015,7.6015,7.6015,7.6015,7.6015,7.6015,7.6015,7.6015,7.4861,7.4161,7.5668,7.5399,7.4815,7.4815,7.4738,7.4469,7.3738,7.3546,7.3507,7.3507,7.3546,7.3623,7.3623,7.3623,7.3623,7.3623,7.3546,7.3161,7.2406,7.2329,7.1975,7.1206,7.186,7.2367,7.2399,7.2444,7.2783,7.3507,7.3584,7.3584,7.3507,7.3507,7.3546,7.3623,7.3546,7.3546,6.4297,6.4014,6.403,6.6712,6.8788,7.043,7.1484,7.159,7.1521,7.1717,7.1703,7.1661,7.1544,7.1994,7.2432,7.2492,7.3761,7.4732,7.4711,7.5438,7.6015,7.6015,7.6015,7.6015,7.6015,7.6015,7.6015,7.6015,7.6015,7.6015,7.6015,7.6015,7.6015,7.6015,7.6015,7.6015,7.6015,7.6015,7.6015,7.6015,7.6015,7.6015,7.6015,7.6015,7.6015,7.6015,7.6015,7.6015,7.6015,7.6015,7.6015,7.6015,7.6015,7.6015,7.6015,7.6015,7.6015,7.6015,7.6015,7.6015,7.6015,7.6015,7.6015,7.6015,7.6015,7.6015,7.6015,7.6015,7.6015,7.6015,7.6015,7.6015,7.6015,7.6015,7.5707,7.5553,7.5938,7.5861,7.5707,7.5707,7.5168,7.4661,7.4469,7.393,7.3507,7.3507,7.4046,7.443,7.443,7.443,7.443,7.443,7.3892,7.343,7.3238,7.3199,7.3122,7.293,7.3122,7.3514,7.413,7.4168,7.3937,7.3507,7.4123,7.4123,7.3507,7.3507,7.3815,7.443,7.3776,7.3853,6.4438,6.4353,6.4521,6.7193,6.9468,7.1185,7.1655,7.1694,7.1588,7.1475,7.1619,7.1803,7.1937,7.2392,7.2823,7.2969,7.4044,7.4829,7.4728,7.5438,7.6015,7.6015,7.6015,7.6015,7.6015,7.6015,7.6015,7.6015,7.6015,7.6015,7.6015,7.6015,7.6015,7.6015,7.6015,7.6015,7.6015,7.6015,7.6015,7.6015,7.6015,7.6015,7.6015,7.6015,7.6015,7.6015,7.6015,7.6015,7.6015,7.6015,7.6015,7.6015,7.6015,7.6015,7.6015,7.6015,7.6015,7.6015,7.6015,7.6015,7.6015,7.6015,7.6015,7.6015,7.6015,7.6015,7.6015,7.6015,7.6015,7.6015,7.6015,7.6015,7.6015,7.6015,7.6015,7.6015,7.6015,7.6015,7.6015,7.6015,7.563,7.5322,7.5322,7.4976,7.4707,7.4707,7.5053,7.5322,7.5322,7.5322,7.5322,7.5322,7.4938,7.4546,7.4123,7.4084,7.3892,7.3507,7.3853,7.4276,7.4661,7.5091,7.513,7.4707,7.513,7.513,7.4707,7.4707,7.4892,7.5322,7.4899,7.4938,6.4407,6.508,6.5871,6.8257,7.0176,7.1481,7.1481,7.1457,7.1385,7.1223,7.1378,7.168,7.2329,7.2573,7.2938,7.3609,7.4392,7.4938,7.4938,7.5553,7.6015,7.6015,7.6015,7.6015,7.6015,7.6015,7.6015,7.6015,7.6015,7.6015,7.6015,7.6015,7.6015,7.6015,7.6015,7.6015,7.6015,7.6015,7.6015,7.6015,7.6015,7.6015,7.6015,7.6015,7.6015,7.6015,7.6015,7.6015,7.6015,7.6015,7.6015,7.6015,7.6015,7.6015,7.6015,7.6015,7.6015,7.6015,7.6015,7.6015,7.6015,7.6015,7.6015,7.6015,7.6015,7.6015,7.6015,7.6015,7.6015,7.6015,7.6015,7.6015,7.6015,7.6015,7.6015,7.6015,7.6015,7.6015,7.6015,7.6015,7.6015,7.6015,7.6015,7.6015,7.6015,7.6015,7.6015,7.6015,7.6015,7.6015,7.6015,7.6015,7.6015,7.5707,7.4976,7.4938,7.4623,7.3969,7.4546,7.4938,7.4938,7.563,7.6015,7.6015,7.6015,7.6015,7.6015,7.6015,7.6015,7.6015,7.6015,7.6015,6.2702,6.4555,6.6637,6.8316,7.0117,7.1481,7.1481,7.1383,7.1223,7.1226,7.1378,7.1636,7.2167,7.294,7.3744,7.4417,7.5245,7.5822,7.5822,7.5938,7.6015,7.6015,7.6015,7.6015,7.6015,7.6015,7.6015,7.6015,7.6015,7.6015,7.6015,7.6015,7.6015,7.6015,7.6015,7.6015,7.6015,7.6015,7.6015,7.6015,7.6015,7.6015,7.6015,7.6015,7.6015,7.6015,7.6015,7.6015,7.6015,7.6015,7.6015,7.6015,7.6015,7.6015,7.6015,7.6015,7.6015,7.6015,7.6015,7.6015,7.6015,7.6015,7.6015,7.6015,7.6015,7.6015,7.6015,7.6015,7.6015,7.6015,7.6015,7.6015,7.6015,7.6015,7.6015,7.6015,7.6015,7.6015,7.6015,7.6015,7.6015,7.6015,7.6015,7.6015,7.6015,7.6015,7.6015,7.6015,7.6015,7.6015,7.6015,7.6015,7.6015,7.5938,7.5822,7.5822,7.5784,7.5668,7.5784,7.5822,7.5822,7.5938,7.6015,7.6015,7.6015,7.6015,7.6015,7.6015,7.6015,7.6015,7.6015,7.6015,6.3398,6.4636,6.6036,6.8044,6.9574,7.0692,7.109,7.1108,7.1047,7.1047,7.1114,7.1512,7.2723,7.3291,7.3999,7.5228,7.5745,7.6015,7.6015,7.6015,7.6015,7.6015,7.6015,7.6015,7.6015,7.6015,7.6015,7.6015,7.6015,7.6015,7.6015,7.6015,7.6015,7.6015,7.6015,7.6015,7.6015,7.6015,7.6015,7.6015,7.6015,7.6015,7.6015,7.6015,7.6015,7.6015,7.6015,7.6015,7.6015,7.6015,7.6015,7.6015,7.6015,7.6015,7.6015,7.6015,7.6015,7.6015,7.6015,7.6015,7.6015,7.6015,7.6015,7.6015,7.6015,7.6015,7.6015,7.6015,7.6015,7.6015,7.6015,7.6015,7.6015,7.6015,7.6015,7.6015,7.6015,7.6015,7.6015,7.6015,7.6015,7.6015,7.6015,7.6015,7.6015,7.6015,7.6015,7.6015,7.6015,7.6015,7.6015,7.6015,7.6015,7.6015,7.6015,7.6015,7.6015,7.6015,7.6015,7.6015,7.6015,7.6015,7.6015,7.6015,7.6015,7.6015,7.6015,7.6015,7.6015,7.6015,7.6015,7.6015,6.3534,6.4238,6.509,6.7461,6.8817,6.9777,7.0689,7.0744,7.0667,7.086,7.0898,7.1437,7.3161,7.3507,7.4046,7.5745,7.6015,7.6015,7.6015,7.6015,7.6015,7.6015,7.6015,7.6015,7.6015,7.6015,7.6015,7.6015,7.6015,7.6015,7.6015,7.6015,7.6015,7.6015,7.6015,7.6015,7.6015,7.6015,7.6015,7.6015,7.6015,7.6015,7.6015,7.6015,7.6015,7.6015,7.6015,7.6015,7.6015,7.6015,7.6015,7.6015,7.6015,7.6015,7.6015,7.6015,7.6015,7.6015,7.6015,7.6015,7.6015,7.6015,7.6015,7.6015,7.6015,7.6015,7.6015,7.6015,7.6015,7.6015,7.6015,7.6015,7.6015,7.6015,7.6015,7.6015,7.6015,7.6015,7.6015,7.6015,7.6015,7.6015,7.6015,7.6015,7.6015,7.6015,7.6015,7.6015,7.6015,7.6015,7.6015,7.6015,7.6015,7.6015,7.6015,7.6015,7.6015,7.6015,7.6015,7.6015,7.6015,7.6015,7.6015,7.6015,7.6015,7.6015,7.6015,7.6015,7.6015,7.6015,7.6015,7.6015,6.1755,6.2793,6.3992,6.6519,6.7834,6.8918,7.0514,7.0321,6.9975,7.0744,7.0898,7.1437,7.3161,7.3507,7.4046,7.5745,7.6015,7.6015,7.6015,7.6015,7.6015,7.6015,7.6015,7.6015,7.6015,7.6015,7.6015,7.6015,7.6015,7.6015,7.6015,7.6015,7.6015,7.6015,7.6015,7.6015,7.6015,7.6015,7.6015,7.6015,7.6015,7.6015,7.6015,7.6015,7.6015,7.6015,7.6015,7.6015,7.6015,7.6015,7.6015,7.6015,7.6015,7.6015,7.6015,7.6015,7.6015,7.6015,7.6015,7.6015,7.6015,7.6015,7.6015,7.6015,7.6015,7.6015,7.6015,7.6015,7.6015,7.6015,7.6015,7.6015,7.6015,7.6015,7.6015,7.6015,7.6015,7.6015,7.6015,7.6015,7.6015,7.6015,7.6015,7.6015,7.6015,7.6015,7.6015,7.6015,7.6015,7.6015,7.6015,7.6015,7.6015,7.6015,7.6015,7.6015,7.6015,7.6015,7.6015,7.6015,7.6015,7.6015,7.6015,7.6015,7.6015,7.6015,7.6015,7.6015,7.6015,7.6015,7.6015,7.6015,6.1633,6.1903,6.2435,6.5551,6.6936,6.7859,6.9052,6.9513,6.9783,7.0052,7.0129,7.0667,7.236,7.3129,7.4046,7.5745,7.6015,7.6015,7.6015,7.6015,7.6015,7.6015,7.6015,7.6015,7.6015,7.6015,7.6015,7.6015,7.6015,7.6015,7.6015,7.6015,7.6015,7.6015,7.6015,7.6015,7.6015,7.6015,7.6015,7.6015,7.6015,7.6015,7.6015,7.6015,7.6015,7.6015,7.6015,7.6015,7.6015,7.6015,7.6015,7.6015,7.6015,7.6015,7.6015,7.6015,7.6015,7.6015,7.6015,7.6015,7.6015,7.6015,7.6015,7.6015,7.6015,7.6015,7.6015,7.6015,7.6015,7.6015,7.6015,7.6015,7.6015,7.6015,7.6015,7.6015,7.6015,7.6015,7.6015,7.6015,7.6015,7.6015,7.6015,7.6015,7.6207,7.6746,7.6361,7.6207,7.6746,7.6361,7.6015,7.6015,7.6015,7.6015,7.6015,7.6015,7.6015,7.6015,7.6015,7.6015,7.6015,7.6015,7.6015,7.6015,7.6015,7.6015,7.6015,7.6015,7.6015,7.6015,7.6015,7.6015,6.1364,6.1441,6.1979,6.5134,6.6096,6.6705,6.843,6.8821,6.8975,6.959,6.9706,7.0206,7.1905,7.2899,7.393,7.5361,7.5822,7.6015,7.6015,7.6015,7.6015,7.6015,7.6015,7.6015,7.6015,7.6015,7.6015,7.6015,7.6015,7.6015,7.6015,7.6015,7.6015,7.6015,7.6015,7.6015,7.6015,7.6015,7.6015,7.6015,7.6015,7.6015,7.6015,7.6015,7.6015,7.6015,7.6015,7.6015,7.6015,7.6015,7.6015,7.6015,7.6015,7.6015,7.6015,7.6015,7.6015,7.6015,7.6015,7.6015,7.6015,7.6015,7.6015,7.6015,7.6015,7.6015,7.6015,7.6015,7.6015,7.6015,7.6015,7.6015,7.6015,7.6015,7.6015,7.6015,7.6015,7.6015,7.6015,7.6015,7.6015,7.6015,7.6015,7.6015,7.6207,7.6784,7.6361,7.6207,7.6784,7.6361,7.6015,7.6015,7.6015,7.6015,7.6015,7.6015,7.6015,7.6015,7.6015,7.6015,7.6015,7.6015,7.6015,7.6015,7.6015,7.6015,7.6015,7.6015,7.6015,7.6015,7.6015,7.6015,0.0,0.0,0.0,6.5173,6.5205,6.5474,6.8783,6.8244,6.7558,6.9283,6.9629,7.0129,7.1828,7.2899,7.3776,7.4546,7.5438,7.6015,7.6015,7.6015,7.6015,7.6015,7.6015,7.6015,7.6015,7.6015,7.6015,7.6015,7.6015,7.6015,7.6015,7.6015,7.6015,7.6015,7.6015,7.6015,7.6015,7.6015,7.6015,7.6015,7.6015,7.6015,7.6015,7.6015,7.6015,7.6015,7.6015,7.6015,7.6015,7.6015,7.6015,7.6015,7.6015,7.6015,7.6015,7.6015,7.6015,7.6015,7.6015,7.6015,7.6015,7.6015,7.6015,7.6015,7.6015,7.6015,7.6015,7.6015,7.6015,7.6015,7.6015,7.6015,7.6015,7.6015,7.6015,7.6015,7.6015,7.6015,7.6015,7.6015,7.6015,7.6015,7.6015,7.6015,7.6015,7.6015,7.6053,7.6053,7.6053,7.6053,7.6015,7.6015,7.6015,7.6015,7.6015,7.6015,7.6015,7.6015,7.6015,7.6015,7.6015,7.6015,7.6015,7.6015,7.6015,7.6015,7.6015,7.6015,7.6015,7.6015,7.6015,7.6015,6.0787,0.0,0.0,0.0,0.0,0.0,6.582,6.6128,6.6519,6.7596,6.7821,6.8359,7.0052,7.2091,7.3584,7.3815,7.5053,7.6015,7.6015,7.6015,7.6015,7.6015,7.6015,7.6015,7.6015,7.6015,7.6015,7.6015,7.6015,7.6015,7.6015,7.6015,7.6015,7.6015,7.6015,7.6015,7.6015,7.6015,7.6015,7.6015,7.6015,7.6015,7.6015,7.6015,7.6015,7.6015,7.6015,7.6015,7.6015,7.6015,7.6015,7.6015,7.6015,7.6015,7.6015,7.6015,7.6015,7.6015,7.6015,7.6015,7.6015,7.6015,7.6015,7.6015,7.6015,7.6015,7.6015,7.6015,7.6015,7.6015,7.6015,7.6015,7.6015,7.6015,7.6015,7.6015,7.6015,7.6015,7.6015,7.6015,7.6015,7.6015,7.6015,7.6015,7.6207,7.6861,7.6945,7.6945,7.6945,7.6945,7.6707,7.6053,7.6015,7.6015,7.6015,7.6015,7.6015,7.6015,7.6015,7.6015,7.6015,7.6015,7.6015,7.6015,7.6015,7.6015,7.6015,7.6015,7.6015,7.6015,7.6015,7.6015,6.0787,6.0787,6.1172,6.2749,0.0,0.0,6.5859,6.6051,6.6244,6.7398,6.7628,6.8052,6.9436,7.1475,7.3091,7.343,7.4584,7.5592,7.5938,7.6322,7.6553,7.6553,7.6553,7.6553,7.6553,7.6207,7.6015,7.6015,7.6015,7.6015,7.6015,7.6015,7.6015,7.6015,7.6015,7.6015,7.6015,7.6015,7.6015,7.6015,7.6015,7.6015,7.6015,7.6015,7.6015,7.6015,7.6015,7.6015,7.6015,7.6015,7.6015,7.6015,7.6015,7.6015,7.6015,7.6015,7.6015,7.6015,7.6015,7.6015,7.6015,7.6015,7.6015,7.6015,7.6015,7.6015,7.6015,7.6015,7.6015,7.6015,7.6015,7.6015,7.6015,7.6015,7.6015,7.6015,7.6015,7.6015,7.6015,7.6015,7.6015,7.6015,7.6015,7.6015,7.6169,7.6669,7.6746,7.6746,7.6746,7.6746,7.6553,7.6053,7.6015,7.6015,7.6015,7.6015,7.6015,7.6015,7.6015,7.6015,7.6015,7.6015,7.6015,7.6015,7.6015,7.6015,7.6015,7.6015,7.6015,7.6015,7.6015,7.6015,6.0825,6.0864,6.1479,6.3743,6.3897,0.0,6.7276,6.6821,6.6244,6.7891,6.8276,6.8545,6.9513,7.1168,7.2552,7.3238,7.4199,7.513,7.5899,7.6669,7.7176,7.7292,7.7215,7.7176,7.7292,7.6515,7.6015,7.6015,7.6015,7.6015,7.6015,7.6015,7.6015,7.6015,7.6015,7.6015,7.6015,7.6015,7.6015,7.6015,7.6015,7.6015,7.6015,7.6015,7.6015,7.6015,7.6015,7.6015,7.6015,7.6015,7.6015,7.6015,7.6015,7.6015,7.6015,7.6015,7.6015,7.6015,7.6015,7.6015,7.6015,7.6015,7.6015,7.6015,7.6015,7.6015,7.6015,7.6015,7.6015,7.6015,7.6015,7.6015,7.6015,7.6015,7.6015,7.6015,7.6015,7.6015,7.6015,7.6015,7.6015,7.6015,7.6015,7.6015,7.6015,7.6015,7.6092,7.6092,7.6015,7.6092,7.6092,7.6015,7.6015,7.6015,7.6015,7.6015,7.6015,7.6015,7.6015,7.6015,7.6015,7.6015,7.6015,7.6015,7.6015,7.6015,7.6015,7.6015,7.6015,7.6015,7.6015,7.6015,6.0979,6.1325,6.1979,6.2441,6.3474,0.0,6.5205,6.5089,6.532,6.7013,6.7359,6.7821,6.9398,7.1629,7.3091,7.2552,7.4322,7.5822,7.5976,7.613,7.6515,7.7215,7.6669,7.6515,7.7215,7.6515,7.6015,7.6015,7.6015,7.6015,7.6015,7.6015,7.6015,7.6015,7.6015,7.6015,7.6015,7.6015,7.6015,7.6015,7.6015,7.6015,7.6015,7.6015,7.6015,7.6015,7.6015,7.6015,7.6015,7.6015,7.6015,7.6015,7.6015,7.6015,7.6015,7.6015,7.6015,7.6015,7.6015,7.6015,7.6015,7.6015,7.6015,7.6015,7.6015,7.6015,7.6015,7.6015,7.6015,7.6015,7.6015,7.6015,7.6015,7.6015,7.6015,7.6015,7.6015,7.6015,7.6015,7.6015,7.6015,7.6015,7.6015,7.6015,7.6015,7.6015,7.6592,7.6784,7.6092,7.6592,7.6784,7.6053,7.6015,7.6015,7.6015,7.6015,7.6015,7.6015,7.6015,7.6015,7.6015,7.6015,7.6015,7.6015,7.6015,7.6015,7.6015,7.6015,7.6015,7.6015,7.6015,7.6015,6.1056,6.1133,6.1633,6.2474,6.332,0.0,0.0,6.5551,6.559,6.6827,6.7096,6.752,6.8821,7.043,7.1898,7.2706,7.3553,7.4399,7.5245,7.6092,7.683,7.7253,7.6899,7.6823,7.7253,7.6515,7.6015,7.6015,7.6015,7.6015,7.6015,7.6015,7.6015,7.6015,7.6015,7.6015,7.6015,7.6015,7.6015,7.6015,7.6015,7.6015,7.6015,7.6015,7.6015,7.6015,7.6015,7.6015,7.6015,7.6015,7.6015,7.6015,7.6015,7.6015,7.6015,7.6015,7.6015,7.6015,7.6015,7.6015,7.6015,7.6015,7.6015,7.6015,7.6015,7.6015,7.6015,7.6015,7.6015,7.6015,7.6015,7.6015,7.6015,7.6015,7.6015,7.6015,7.6015,7.6015,7.6015,7.6015,7.6015,7.6015,7.6015,7.6015,7.6015,7.6015,7.6361,7.6476,7.6053,7.6361,7.6476,7.6053,7.6015,7.6015,7.6015,7.6015,7.6015,7.6015,7.6015,7.6015,7.6015,7.6015,7.6015,7.6015,7.6015,7.6015,7.6015,7.6015,7.6015,7.6015,7.6015,7.6015,6.1574,6.1518,6.205,6.3237,6.3775,6.4551,0.0,0.0,0.0,6.6981,6.725,6.7552,6.8276,6.9237,7.0591,7.2661,7.2706,7.2976,7.4469,7.5899,7.6868,7.7022,7.6899,7.6945,7.7253,7.6361,7.5822,7.5976,7.5822,7.5822,7.5976,7.6015,7.6015,7.6015,7.6015,7.6015,7.6015,7.6015,7.6015,7.6015,7.6015,7.6015,7.6015,7.6015,7.6015,7.6015,7.6015,7.6015,7.6015,7.6015,7.6015,7.6015,7.6015,7.6015,7.6015,7.6015,7.6015,7.6015,7.6015,7.6015,7.6015,7.6015,7.6015,7.6015,7.6015,7.6015,7.6015,7.6015,7.6015,7.6015,7.6015,7.6015,7.6015,7.6015,7.6015,7.6015,7.6015,7.6015,7.6015,7.6015,7.6015,7.6015,7.6015,7.6015,7.6015,7.6015,7.6015,7.6015,7.6015,7.6015,7.6015,7.6015,7.6015,7.6015,7.6015,7.6015,7.6015,7.6015,7.6015,7.6015,7.6015,7.6015,7.6015,7.6015,7.6015,7.6015,7.6015,7.6015,7.6015,7.6015,7.6015,7.6015,6.348,6.4128,6.5166,6.4589,6.5551,6.6558,6.6134,0.0,6.6981,6.7096,0.0,6.8276,6.8391,0.0,0.0,7.1168,7.2392,7.3661,7.4584,7.4853,7.5284,7.6053,7.5476,7.5592,7.7138,7.5822,7.5168,7.5938,7.5284,7.5168,7.5976,7.6015,7.6015,7.6015,7.6015,7.6015,7.6015,7.6015,7.6015,7.6015,7.6015,7.6015,7.6015,7.6015,7.6015,7.6015,7.6015,7.6015,7.6015,7.6015,7.6015,7.6015,7.6015,7.6015,7.6015,7.6015,7.6015,7.6015,7.6015,7.6015,7.6015,7.6015,7.6015,7.6015,7.6015,7.6015,7.6015,7.6015,7.6015,7.6015,7.6015,7.6015,7.6015,7.6015,7.6015,7.6015,7.6015,7.6015,7.6015,7.6015,7.6015,7.6015,7.6015,7.6015,7.6015,7.6015,7.6015,7.6015,7.6015,7.6015,7.6015,7.6015,7.6015,7.6015,7.6015,7.6015,7.6015,7.6015,7.6015,7.6015,7.6015,7.6015,7.6015,7.6015,7.6015,7.6015,7.6015,7.6015,7.6015,7.6015,7.6015,7.6015,6.3664,6.427,6.5181,6.4715,6.5587,6.6411,6.5986,6.6173,6.6404,6.6404,0.0,0.0,0.0,0.0,0.0,0.0,7.1937,7.3053,7.3892,7.4007,7.4507,7.5822,7.5668,7.5938,7.7176,7.5707,7.5284,7.663,7.5476,7.5084,7.5938,7.6015,7.6015,7.6015,7.6015,7.6015,7.6015,7.6015,7.6015,7.6015,7.6015,7.6015,7.6015,7.6015,7.6015,7.6015,7.6015,7.6015,7.6015,7.6015,7.6015,7.6015,7.6015,7.6015,7.6015,7.6015,7.6015,7.6015,7.6015,7.6015,7.6015,7.6015,7.6015,7.6015,7.6015,7.6015,7.6015,7.6015,7.6015,7.6015,7.6015,7.6015,7.6015,7.6015,7.6015,7.6015,7.6015,7.6015,7.6015,7.6015,7.6015,7.6015,7.6015,7.6015,7.6015,7.6015,7.6015,7.6015,7.6015,7.6015,7.6015,7.6015,7.6015,7.6015,7.6015,7.6015,7.6015,7.6015,7.6015,7.6015,7.6015,7.6015,7.6015,7.6015,7.6015,7.6015,7.6015,7.6015,7.6015,7.6015,7.6015,7.6015,6.3637,6.4302,6.5132,6.4713,6.5511,6.6272,6.596,6.6436,6.6821,6.6327,6.6974,0.0,0.0,0.0,6.986,7.1052,0.0,7.2514,7.3392,7.3276,7.3783,7.5438,7.6053,7.6515,7.6899,7.5784,7.5476,7.6515,7.5207,7.4738,7.5592,7.563,7.5745,7.5976,7.6015,7.6015,7.6015,7.6015,7.6015,7.6015,7.6015,7.6015,7.6015,7.6015,7.6015,7.6015,7.6015,7.6015,7.6015,7.6015,7.6015,7.6015,7.6015,7.6015,7.6015,7.6015,7.6015,7.6015,7.6015,7.6015,7.6015,7.6015,7.6015,7.6015,7.6015,7.6015,7.6015,7.6015,7.6015,7.6015,7.6015,7.6015,7.6015,7.6015,7.6015,7.6015,7.6015,7.6015,7.6015,7.6015,7.6015,7.6015,7.6015,7.6015,7.6015,7.6015,7.6015,7.6015,7.6015,7.6015,7.6015,7.6015,7.6015,7.6015,7.6015,7.6015,7.6015,7.6015,7.6015,7.6015,7.6015,7.6015,7.6015,7.6015,7.6015,7.6015,7.6015,7.6015,7.6015,7.6015,7.6015,7.6015,6.3886,6.4803,6.5832,6.4855,6.5833,6.6878,6.6096,6.7821,6.909,6.7404,6.9674,7.1514,6.9898,7.0975,7.2098,7.2136,7.2175,0.0,0.0,7.2783,7.286,7.4546,7.6245,7.6945,7.613,7.5976,7.563,7.4853,7.4007,7.3892,7.47,7.4738,7.5123,7.5976,7.6015,7.6015,7.6015,7.6015,7.6015,7.6015,7.6015,7.6015,7.6015,7.6015,7.6015,7.6015,7.6015,7.6015,7.6015,7.6015,7.6015,7.6015,7.6015,7.6015,7.6015,7.6015,7.6015,7.6015,7.6015,7.6015,7.6015,7.6015,7.6015,7.6015,7.6015,7.6015,7.6015,7.6015,7.6015,7.6015,7.6015,7.6015,7.6015,7.6015,7.6015,7.6015,7.6015,7.6015,7.6015,7.6015,7.6015,7.6015,7.6015,7.6015,7.6015,7.6015,7.6015,7.6015,7.6015,7.6015,7.6015,7.6015,7.6015,7.6015,7.6015,7.6015,7.6015,7.6015,7.6015,7.6015,7.6015,7.6015,7.6015,7.6015,7.6015,7.6015,7.6015,7.6015,7.6015,7.6015,7.6015,7.6015,6.4846,6.6345,6.7885,6.6748,6.7397,6.8025,6.6933,6.7821,6.8359,6.6667,6.8552,7.0206,6.9045,7.0206,7.1514,7.2098,7.3129,7.3783,0.0,7.3238,7.3476,7.4584,7.5207,7.5938,7.6784,7.5822,7.5515,7.6361,7.5091,7.4392,7.47,7.5245,7.5438,7.5168,7.5707,7.6015,7.6015,7.6015,7.6015,7.6015,7.6015,7.6015,7.6015,7.6015,7.6015,7.6015,7.6015,7.6015,7.6015,7.6015,7.6015,7.6015,7.6015,7.6015,7.6015,7.6015,7.6015,7.6015,7.6015,7.6015,7.6015,7.6015,7.6015,7.6015,7.6015,7.6015,7.6015,7.6015,7.6015,7.6015,7.6015,7.6015,7.6015,7.6015,7.6015,7.6015,7.6015,7.6015,7.6015,7.6015,7.6015,7.6015,7.6015,7.6015,7.6015,7.6015,7.6015,7.6015,7.6015,7.6015,7.6015,7.6015,7.6015,7.6015,7.6015,7.6015,7.6015,7.6015,7.6015,7.6015,7.6015,7.6015,7.6015,7.6015,7.6015,7.6015,7.6015,7.6015,7.6015,7.6015,7.6015,7.6015,6.4919,6.6256,6.7675,6.7184,6.7751,6.8232,6.7393,6.8117,6.8541,6.7159,6.8873,7.0555,7.0407,7.1415,7.2363,7.2694,7.3874,7.4315,0.0,7.3053,7.336,7.4161,7.4822,7.5592,7.6746,7.6092,7.5822,7.6322,7.5322,7.47,7.47,7.5245,7.5438,7.5168,7.5707,7.6015,7.6015,7.6015,7.6015,7.6015,7.6015,7.6015,7.6015,7.6015,7.6015,7.6015,7.6015,7.6015,7.6015,7.6015,7.6015,7.6015,7.6015,7.6015,7.6015,7.6015,7.6015,7.6015,7.6015,7.6015,7.6015,7.6015,7.6015,7.6015,7.6015,7.6015,7.6015,7.6015,7.6015,7.6015,7.6015,7.6015,7.6015,7.6015,7.6015,7.6015,7.6015,7.6015,7.6015,7.6015,7.6015,7.6015,7.6015,7.6015,7.6015,7.6015,7.6015,7.6015,7.6015,7.6015,7.6015,7.6015,7.6015,7.6015,7.6015,7.6015,7.6015,7.6015,7.6015,7.6015,7.6015,7.6015,7.6015,7.6015,7.6015,7.6015,7.6015,7.6015,7.6015,7.6015,7.6015,7.6015]}]]